[[{"header":{"parameterUnit":"m.s-1","parameterCategory":1,"la1":31.0,"la2":29.5877,"lo1":-88.7671,"lo2":-86.6584,"dy":0.0162,"dx":0.0185,"nx":115,"ny":88,"refTime":"2023-08-26T18:00:00:Z","depth":0,"parameterNumber":2,"parameterNumberName":"U-component_of_WINDS"},"data":[0.0,0.0,0.0,0.0,0.0,0.0,0.0,0.0,0.0,0.0,0.0,0.0,0.0,0.0,0.0,0.0,0.0,0.0,0.0,0.0,0.0,0.0,0.0,0.0,0.0,0.0,0.0,0.0,0.0,0.0,0.0,0.0,0.0,0.0,0.0,0.0,0.0,0.0,0.0,0.0,0.0,0.0,0.0,0.0,0.0,0.0,0.0,0.0,0.0,0.0,0.0,0.0,0.0,0.0,0.0,0.0,0.0,0.0,0.0,0.0,0.0,0.0,0.0,0.0,0.0,0.0,0.0,0.0,0.0,0.0,0.0,0.0,0.0,0.0,0.0,0.0,0.0,0.0,0.0,0.0,0.0,0.0,0.0,0.0,0.0,0.0,0.0,0.0,0.0,0.0,0.0,0.0,0.0,0.0,0.0,0.0,0.0,0.0,0.0,0.0,0.0,0.0,0.0,0.0,0.0,0.0,0.0,0.0,0.0,0.0,0.0,0.0,0.0,0.0,0.0,0.0,0.0,0.0,0.0,0.0,0.0,0.0,0.0,0.0,0.0,0.0,0.0,0.0,0.0,0.0,0.0,0.0,0.0,0.0,0.0,0.0,0.0,0.0,0.0,0.0,0.0,0.0,0.0,0.0,0.0,0.0,0.0,0.0,0.0,0.0,0.0,0.0,0.0,0.0,0.0,0.0,0.0,0.0,0.0,0.0,0.0,0.0,0.0,0.0,0.0,0.0,0.0,0.0,0.0,0.0,0.0,0.0,0.0,0.0,0.0,0.0,0.0,0.0,0.0,0.0,0.0,0.0,0.0,0.0,0.0,0.0,0.0,0.0,0.0,0.0,0.0,0.0,0.0,0.0,0.0,0.0,0.0,0.0,0.0,0.0,0.0,0.0,0.0,0.0,0.0,0.0,0.0,0.0,0.0,0.0,0.0,0.0,0.0,0.0,0.0,0.0,0.0,0.0,0.0,0.0,0.0,0.0,0.0,0.0,0.0,0.0,0.0,0.0,0.0,0.0,0.0,0.0,0.0,0.0,0.0,0.0,0.0,0.0,0.0,0.0,0.0,0.0,0.0,0.0,0.0,0.0,0.0,0.0,0.0,0.0,0.0,0.0,0.0,0.0,0.0,0.0,0.0,0.0,0.0,0.0,0.0,0.0,0.0,0.0,0.0,0.0,0.0,0.0,0.0,0.0,0.0,0.0,0.0,0.0,0.0,0.0,0.0,0.0,0.0,0.0,0.0,0.0,0.0,0.0,0.0,0.0,0.0,0.0,0.0,0.0,0.0,0.0,0.0,0.0,0.0,0.0,0.0,0.0,0.0,0.0,0.0,0.0,0.0,0.0,0.0,0.0,0.0,0.0,0.0,0.0,0.0,0.0,0.0,0.0,0.0,0.0,0.0,0.0,0.0,0.0,0.0,0.0,0.0,0.0,0.0,0.0,0.0,0.0,0.0,0.0,0.0,0.0,0.0,0.0,0.0,0.0,0.0,0.0,0.0,0.0,0.0,0.0,0.0,0.0,0.0,0.0,0.0,0.0,0.0,0.0,0.0,0.0,0.0,0.0,0.0,0.0,0.0,0.0,0.0,0.0,0.0,0.0,0.0,0.0,0.0,0.0,0.0,0.0,0.0,0.0,0.0,0.0,0.0,0.0,0.0,0.0,0.0,0.0,0.0,0.0,0.0,0.0,0.0,0.0,0.0,0.0,0.0,0.0,0.0,0.0,0.0,0.0,0.0,0.0,0.0,0.0,0.0,0.0,0.0,0.0,0.0,0.0,0.0,0.0,0.0,0.0,0.0,0.0,0.0,0.0,0.0,0.0,0.0,0.0,0.0,0.0,0.0,0.0,0.0,0.0,0.0,0.0,0.0,0.0,0.0,0.0,0.0,0.0,0.0,0.0,0.0,0.0,0.0,0.0,0.0,0.0,0.0,0.0,0.0,0.0,0.0,0.0,0.0,0.0,0.0,0.0,0.0,0.0,0.0,0.0,0.0,0.0,0.0,0.0,0.0,0.0,0.0,0.0,0.0,0.0,0.0,0.0,0.0,0.0,0.0,0.0,0.0,0.0,0.0,0.0,0.0,0.0,0.0,0.0,0.0,0.0,0.0,0.0,0.0,0.0,0.0,0.0,0.0,0.0,0.0,0.0,0.0,0.0,0.0,0.0,0.0,0.0,0.0,0.0,0.0,0.0,0.0,0.0,0.0,0.0,0.0,0.0,0.0,0.0,0.0,0.0,0.0,0.0,0.0,0.0,0.0,0.0,0.0,0.0,0.0,0.0,0.0,0.0,0.0,0.0,0.0,0.0,0.0,0.0,0.0,0.0,0.0,0.0,0.0,0.0,0.0,0.0,0.0,0.0,0.0,0.0,0.0,0.0,0.0,0.0,0.0,0.0,0.0,0.0,0.0,0.0,0.0,0.0,0.0,0.0,0.0,0.0,0.0,0.0,0.0,0.0,0.0,0.0,0.0,0.0,0.0,0.0,0.0,0.0,0.0,0.0,0.0,0.0,0.0,0.0,0.0,0.0,0.0,0.0,0.0,0.0,0.0,0.0,0.0,0.0,0.0,0.0,0.0,0.0,0.0,0.0,0.0,0.0,0.0,0.0,0.0,0.0,0.0,0.0,0.0,0.0,0.0,0.0,0.0,0.0,0.0,0.0,0.0,0.0,0.0,0.0,0.0,0.0,0.0,0.0,0.0,0.0,0.0,0.0,0.0,0.0,0.0,0.0,0.0,0.0,0.0,0.0,0.0,0.0,0.0,0.0,0.0,0.0,0.0,0.0,0.0,0.0,0.0,0.0,0.0,0.0,0.0,0.0,0.0,0.0,0.0,0.0,0.0,0.0,0.0,0.0,0.0,0.0,0.0,0.0,0.0,0.0,0.0,0.0,0.0,0.0,0.0,0.0,0.0,0.0,0.0,0.0,0.0,0.0,0.0,0.0,0.0,0.0,0.0,0.0,0.0,0.0,0.0,0.0,0.0,0.0,0.0,0.0,0.0,0.0,0.0,0.0,0.0,0.0,0.0,0.0,0.0,0.0,0.0,0.0,0.0,0.0,0.0,0.0,0.0,0.0,0.0,0.0,0.0,0.0,0.0,0.0,0.0,0.0,0.0,0.0,0.0,0.0,0.0,0.0,0.0,0.0,0.0,0.0,0.0,0.0,0.0,0.0,0.0,0.0,0.0,0.0,0.0,0.0,0.0,0.0,0.0,0.0,0.0,0.0,0.0,0.0,0.0,0.0,0.0,0.0,0.0,0.0,0.0,0.0,0.0,0.0,0.0,0.0,0.0,0.0,0.0,0.0,0.0,0.0,0.0,0.0,0.0,0.0,0.0,0.0,0.0,0.0,0.0,0.0,0.0,0.0,0.0,0.0,0.0,0.0,0.0,0.0,0.0,0.0,0.0,0.0,0.0,0.0,0.0,0.0,0.0,0.0,0.0,0.0,0.0,0.0,0.0,0.0,0.0,0.0,0.0,0.0,0.0,0.0,0.0,0.0,0.0,0.0,0.0,0.0,0.0,0.0,0.0,0.0,0.0,0.0,0.0,0.0,0.0,0.0,0.0,0.0,0.0,0.0,0.0,0.0,0.0,0.0,0.0,0.0,0.0,0.0,0.0,0.0,0.0,0.0,0.0,0.0,0.0,0.0,0.0,0.0,0.0,0.0,0.0,0.0,0.0,0.0,0.0,0.0,0.0,0.0,0.0,0.0,0.0,0.0,0.0,0.0,0.0,0.0,0.0,0.0,0.0,0.0,0.0,0.0,0.0,0.0,0.0,0.0,0.0,0.0,0.0,0.0,0.0,0.0,0.0,0.0,0.0,0.0,0.0,0.0,0.0,0.0,0.0,0.0,0.0,0.0,0.0,0.0,0.0,0.0,0.0,0.0,0.0,0.0,0.0,0.0,0.0,0.0,0.0,0.0,0.0,0.0,0.0,0.0,0.0,0.0,0.0,0.0,0.0,0.0,0.0,0.0,0.0,0.0,0.0,0.0,0.0,0.0,0.0,0.0,0.0,0.0,0.0,0.0,0.0,0.0,0.0,0.0,0.0,0.0,0.0,0.0,0.0,0.0,0.0,0.0,0.0,0.0,0.0,0.0,0.0,0.0,0.0,0.0,0.0,0.0,0.0,0.0,0.0,0.0,0.0,0.0,0.0,0.0,0.0,0.0,0.0,0.0,0.0,0.0,0.0,0.0,0.0,0.0,0.0,0.0,0.0,0.0,0.0,0.0,0.0,0.0,0.0,0.0,-2.0778,0.0,0.0,0.0,-2.0686,0.0,0.0,0.0,0.0,0.0,0.0,0.0,0.0,0.0,0.0,0.0,0.0,0.0,0.0,0.0,0.0,0.0,0.0,0.0,0.0,0.0,0.0,0.0,0.0,0.0,0.0,0.0,0.0,0.0,0.0,0.0,0.0,0.0,0.0,0.0,0.0,0.0,0.0,0.0,0.0,0.0,0.0,0.0,0.0,0.0,0.0,0.0,0.0,0.0,0.0,0.0,0.0,0.0,0.0,0.0,0.0,0.0,0.0,0.0,0.0,0.0,0.0,0.0,0.0,0.0,0.0,0.0,0.0,0.0,0.0,0.0,0.0,0.0,0.0,0.0,0.0,0.0,0.0,0.0,0.0,0.0,0.0,0.0,0.0,0.0,0.0,0.0,0.0,0.0,0.0,0.0,0.0,0.0,0.0,0.0,0.0,0.0,0.0,0.0,0.0,0.0,0.0,0.0,0.0,0.0,0.0,0.0,0.0,0.0,0.0,-2.0038,-2.0582,-2.0597,-2.0592,-2.0551,0.0,0.0,0.0,0.0,0.0,0.0,0.0,0.0,0.0,0.0,0.0,0.0,0.0,0.0,0.0,0.0,0.0,0.0,0.0,0.0,0.0,0.0,0.0,0.0,0.0,0.0,0.0,0.0,0.0,0.0,0.0,0.0,0.0,0.0,0.0,0.0,0.0,0.0,0.0,0.0,0.0,0.0,0.0,0.0,0.0,0.0,0.0,0.0,0.0,0.0,0.0,0.0,0.0,0.0,0.0,0.0,0.0,0.0,0.0,0.0,0.0,0.0,0.0,0.0,0.0,0.0,0.0,0.0,0.0,0.0,0.0,0.0,0.0,0.0,0.0,0.0,0.0,0.0,0.0,0.0,0.0,0.0,0.0,0.0,0.0,0.0,0.0,0.0,0.0,0.0,0.0,0.0,0.0,0.0,0.0,0.0,0.0,0.0,0.0,0.0,0.0,0.0,0.0,0.0,0.0,0.0,0.0,0.0,0.0,0.0,0.0,0.0,-2.0598,-2.0596,-2.0595,0.0,0.0,0.0,0.0,0.0,0.0,0.0,0.0,0.0,0.0,0.0,0.0,0.0,0.0,0.0,0.0,0.0,0.0,0.0,0.0,0.0,0.0,0.0,0.0,0.0,0.0,0.0,0.0,0.0,0.0,0.0,0.0,0.0,0.0,0.0,0.0,0.0,0.0,0.0,0.0,0.0,0.0,0.0,0.0,0.0,0.0,0.0,0.0,0.0,0.0,0.0,0.0,0.0,0.0,0.0,0.0,0.0,0.0,0.0,0.0,0.0,0.0,0.0,0.0,0.0,0.0,0.0,0.0,0.0,0.0,0.0,0.0,0.0,0.0,0.0,0.0,0.0,0.0,0.0,0.0,0.0,0.0,0.0,0.0,0.0,0.0,0.0,0.0,0.0,0.0,0.0,0.0,0.0,0.0,0.0,0.0,0.0,0.0,0.0,0.0,0.0,0.0,0.0,0.0,0.0,0.0,0.0,0.0,0.0,0.0,-2.0444,-2.0586,-2.0603,0.0,-2.0599,0.0,0.0,0.0,0.0,0.0,0.0,0.0,0.0,0.0,0.0,0.0,0.0,0.0,0.0,0.0,0.0,0.0,0.0,0.0,0.0,0.0,0.0,0.0,0.0,0.0,0.0,0.0,0.0,0.0,0.0,0.0,0.0,0.0,0.0,0.0,0.0,0.0,0.0,0.0,0.0,0.0,0.0,0.0,0.0,0.0,0.0,0.0,0.0,0.0,0.0,0.0,0.0,0.0,0.0,0.0,0.0,0.0,0.0,0.0,0.0,0.0,0.0,0.0,0.0,0.0,0.0,0.0,0.0,0.0,0.0,0.0,0.0,0.0,0.0,0.0,0.0,0.0,0.0,0.0,0.0,0.0,0.0,0.0,0.0,0.0,0.0,0.0,0.0,0.0,0.0,0.0,0.0,0.0,0.0,0.0,0.0,0.0,0.0,0.0,0.0,0.0,0.0,0.0,0.0,0.0,0.0,0.0,0.0,0.0,0.0,-1.9984,-2.0525,-2.0541,-2.0542,0.0,0.0,0.0,0.0,0.0,0.0,0.0,0.0,0.0,0.0,0.0,0.0,0.0,0.0,0.0,0.0,0.0,0.0,0.0,0.0,0.0,0.0,0.0,0.0,0.0,0.0,0.0,0.0,0.0,0.0,0.0,0.0,0.0,0.0,0.0,0.0,0.0,0.0,0.0,0.0,0.0,0.0,0.0,0.0,0.0,0.0,0.0,0.0,0.0,0.0,0.0,0.0,0.0,0.0,0.0,0.0,0.0,0.0,0.0,0.0,0.0,0.0,0.0,0.0,0.0,0.0,0.0,0.0,0.0,0.0,0.0,0.0,0.0,0.0,0.0,0.0,0.0,0.0,0.0,0.0,0.0,0.0,0.0,0.0,0.0,0.0,0.0,0.0,0.0,0.0,0.0,0.0,0.0,0.0,0.0,0.0,0.0,0.0,0.0,0.0,0.0,0.0,0.0,0.0,0.0,0.0,0.0,0.0,0.0,0.0,-1.9864,-1.9829,-2.046,-2.0501,-2.0501,-2.0501,0.0,0.0,0.0,0.0,0.0,0.0,0.0,0.0,0.0,0.0,0.0,0.0,0.0,0.0,0.0,0.0,0.0,0.0,0.0,0.0,0.0,0.0,0.0,0.0,0.0,0.0,0.0,0.0,0.0,0.0,0.0,0.0,0.0,0.0,0.0,0.0,0.0,0.0,0.0,0.0,0.0,0.0,0.0,0.0,0.0,0.0,0.0,0.0,0.0,0.0,0.0,0.0,0.0,0.0,0.0,0.0,0.0,0.0,0.0,0.0,0.0,0.0,0.0,0.0,0.0,0.0,0.0,0.0,0.0,0.0,0.0,0.0,0.0,0.0,0.0,0.0,0.0,0.0,0.0,0.0,0.0,0.0,0.0,0.0,0.0,0.0,0.0,0.0,0.0,0.0,0.0,0.0,0.0,0.0,0.0,0.0,0.0,0.0,0.0,0.0,0.0,0.0,0.0,0.0,0.0,0.0,0.0,0.0,-2.0392,-2.0355,-2.0375,-2.0481,-2.0501,-2.0497,0.0,0.0,0.0,0.0,0.0,0.0,0.0,0.0,0.0,0.0,0.0,0.0,0.0,0.0,0.0,0.0,0.0,0.0,0.0,0.0,0.0,0.0,0.0,0.0,0.0,0.0,0.0,0.0,0.0,0.0,0.0,0.0,0.0,0.0,0.0,0.0,0.0,0.0,0.0,0.0,0.0,0.0,0.0,0.0,0.0,0.0,0.0,0.0,0.0,0.0,0.0,0.0,0.0,0.0,0.0,0.0,0.0,0.0,0.0,0.0,0.0,0.0,0.0,0.0,0.0,0.0,0.0,0.0,0.0,0.0,0.0,0.0,0.0,0.0,0.0,0.0,0.0,0.0,0.0,0.0,0.0,0.0,0.0,0.0,0.0,0.0,0.0,0.0,0.0,0.0,0.0,0.0,0.0,0.0,0.0,0.0,0.0,0.0,0.0,0.0,0.0,0.0,0.0,0.0,0.0,0.0,0.0,0.0,0.0,-2.0368,-1.9896,-1.9647,-1.9666,-1.9625,-1.9877,0.0,0.0,0.0,0.0,0.0,0.0,0.0,0.0,0.0,0.0,0.0,0.0,0.0,0.0,0.0,0.0,0.0,0.0,0.0,0.0,0.0,0.0,0.0,0.0,0.0,0.0,0.0,0.0,0.0,0.0,0.0,0.0,0.0,0.0,0.0,0.0,0.0,0.0,0.0,0.0,0.0,0.0,0.0,0.0,0.0,0.0,0.0,0.0,0.0,0.0,0.0,0.0,0.0,0.0,0.0,0.0,0.0,0.0,0.0,0.0,0.0,0.0,0.0,0.0,0.0,0.0,0.0,0.0,0.0,0.0,0.0,0.0,0.0,0.0,0.0,0.0,0.0,0.0,0.0,0.0,0.0,0.0,0.0,0.0,0.0,0.0,0.0,0.0,0.0,0.0,0.0,0.0,0.0,0.0,0.0,0.0,0.0,0.0,0.0,0.0,0.0,0.0,0.0,0.0,0.0,0.0,0.0,0.0,0.0,-2.0374,0.0,-1.9315,-1.9596,-1.9554,-1.9796,0.0,0.0,0.0,0.0,0.0,0.0,0.0,0.0,0.0,0.0,0.0,0.0,0.0,0.0,0.0,0.0,0.0,0.0,0.0,0.0,0.0,0.0,0.0,0.0,0.0,0.0,0.0,0.0,0.0,0.0,0.0,0.0,0.0,0.0,0.0,0.0,0.0,0.0,0.0,0.0,0.0,0.0,0.0,0.0,0.0,0.0,0.0,0.0,0.0,0.0,0.0,0.0,0.0,0.0,0.0,0.0,0.0,0.0,0.0,0.0,0.0,0.0,0.0,0.0,0.0,0.0,0.0,0.0,0.0,0.0,0.0,0.0,0.0,0.0,0.0,0.0,0.0,0.0,0.0,0.0,0.0,0.0,0.0,0.0,0.0,0.0,0.0,0.0,0.0,0.0,0.0,0.0,0.0,0.0,0.0,0.0,0.0,0.0,0.0,0.0,0.0,0.0,0.0,0.0,0.0,0.0,0.0,0.0,-2.0362,-2.0355,-1.9586,-1.9588,-2.0455,-2.0346,-2.0357,0.0,0.0,0.0,0.0,0.0,0.0,0.0,0.0,0.0,0.0,0.0,0.0,0.0,0.0,0.0,0.0,0.0,0.0,0.0,0.0,0.0,0.0,0.0,0.0,0.0,0.0,0.0,0.0,0.0,0.0,0.0,0.0,0.0,0.0,0.0,0.0,0.0,0.0,0.0,0.0,0.0,0.0,0.0,0.0,0.0,0.0,0.0,0.0,0.0,0.0,0.0,0.0,0.0,0.0,0.0,0.0,0.0,0.0,0.0,0.0,0.0,0.0,0.0,0.0,0.0,0.0,0.0,0.0,0.0,0.0,0.0,0.0,0.0,0.0,0.0,0.0,0.0,0.0,0.0,0.0,0.0,0.0,0.0,0.0,0.0,0.0,0.0,0.0,0.0,0.0,0.0,0.0,0.0,0.0,0.0,0.0,0.0,0.0,0.0,0.0,0.0,0.0,0.0,0.0,0.0,0.0,0.0,0.0,0.0,-1.95,-1.9217,-1.9498,-2.0346,-1.9741,-1.9927,0.0,0.0,0.0,0.0,0.0,0.0,0.0,0.0,0.0,0.0,0.0,0.0,0.0,0.0,0.0,0.0,0.0,0.0,0.0,0.0,0.0,0.0,0.0,0.0,0.0,0.0,0.0,0.0,0.0,0.0,0.0,0.0,0.0,0.0,0.0,0.0,0.0,0.0,0.0,0.0,0.0,0.0,0.0,0.0,0.0,0.0,0.0,0.0,0.0,0.0,0.0,0.0,0.0,0.0,0.0,0.0,0.0,0.0,0.0,0.0,0.0,0.0,0.0,0.0,0.0,0.0,0.0,0.0,0.0,0.0,0.0,0.0,0.0,0.0,0.0,0.0,0.0,0.0,0.0,0.0,0.0,0.0,0.0,0.0,0.0,0.0,0.0,0.0,0.0,0.0,0.0,0.0,0.0,0.0,0.0,0.0,0.0,0.0,0.0,0.0,0.0,0.0,0.0,0.0,0.0,0.0,0.0,0.0,0.0,-1.995,-1.9616,-1.9864,-2.0708,-2.0411,-2.061,-2.1393,0.0,0.0,0.0,0.0,0.0,0.0,0.0,0.0,0.0,0.0,0.0,0.0,0.0,0.0,0.0,0.0,0.0,0.0,0.0,0.0,0.0,0.0,0.0,0.0,0.0,0.0,0.0,0.0,0.0,0.0,0.0,0.0,0.0,0.0,0.0,0.0,0.0,0.0,0.0,0.0,0.0,0.0,0.0,0.0,0.0,0.0,0.0,0.0,0.0,0.0,0.0,0.0,0.0,0.0,0.0,0.0,0.0,0.0,0.0,0.0,0.0,0.0,0.0,0.0,0.0,0.0,0.0,0.0,0.0,0.0,0.0,0.0,0.0,0.0,0.0,0.0,0.0,0.0,0.0,0.0,0.0,0.0,0.0,0.0,0.0,0.0,0.0,0.0,0.0,0.0,0.0,0.0,0.0,0.0,0.0,0.0,0.0,0.0,0.0,0.0,0.0,0.0,0.0,0.0,0.0,0.0,0.0,0.0,-2.1458,-2.0742,-2.0735,-2.1447,-2.2085,-2.2149,0.0,0.0,0.0,0.0,0.0,0.0,0.0,0.0,0.0,0.0,0.0,0.0,0.0,0.0,0.0,0.0,0.0,0.0,0.0,0.0,0.0,0.0,0.0,0.0,0.0,0.0,0.0,0.0,0.0,0.0,0.0,0.0,0.0,0.0,0.0,0.0,0.0,0.0,0.0,0.0,0.0,0.0,0.0,0.0,0.0,0.0,0.0,0.0,0.0,0.0,0.0,0.0,0.0,0.0,0.0,0.0,0.0,0.0,0.0,0.0,0.0,0.0,0.0,0.0,0.0,0.0,0.0,0.0,0.0,0.0,0.0,0.0,0.0,0.0,0.0,0.0,0.0,0.0,0.0,0.0,0.0,0.0,0.0,0.0,0.0,0.0,0.0,0.0,0.0,0.0,0.0,0.0,0.0,0.0,0.0,0.0,0.0,0.0,0.0,0.0,0.0,0.0,0.0,0.0,0.0,0.0,0.0,0.0,0.0,-2.2149,-2.2412,-2.2741,-2.3037,-2.2609,-2.2609,0.0,0.0,0.0,0.0,0.0,0.0,0.0,0.0,0.0,0.0,0.0,0.0,0.0,0.0,0.0,0.0,0.0,0.0,0.0,0.0,0.0,0.0,0.0,0.0,0.0,0.0,0.0,0.0,0.0,0.0,0.0,0.0,0.0,0.0,0.0,0.0,0.0,0.0,0.0,0.0,0.0,0.0,0.0,0.0,0.0,0.0,0.0,0.0,0.0,0.0,0.0,0.0,0.0,0.0,0.0,0.0,0.0,0.0,0.0,0.0,0.0,0.0,0.0,0.0,0.0,0.0,0.0,0.0,0.0,0.0,0.0,0.0,0.0,0.0,0.0,0.0,0.0,0.0,0.0,0.0,0.0,0.0,0.0,0.0,0.0,0.0,0.0,0.0,0.0,0.0,0.0,0.0,0.0,0.0,0.0,0.0,0.0,0.0,0.0,0.0,0.0,0.0,0.0,0.0,0.0,0.0,0.0,0.0,-2.2887,-2.2294,-2.3399,-2.3999,-2.4037,-2.3547,-2.3387,0.0,0.0,0.0,0.0,0.0,0.0,0.0,0.0,0.0,0.0,0.0,0.0,0.0,0.0,0.0,0.0,0.0,0.0,0.0,0.0,0.0,0.0,0.0,0.0,0.0,0.0,0.0,0.0,0.0,0.0,0.0,0.0,0.0,0.0,0.0,0.0,0.0,0.0,0.0,0.0,0.0,0.0,0.0,0.0,0.0,0.0,0.0,0.0,0.0,0.0,0.0,0.0,0.0,0.0,0.0,0.0,0.0,0.0,0.0,0.0,0.0,0.0,0.0,0.0,0.0,0.0,0.0,0.0,0.0,0.0,0.0,0.0,0.0,0.0,0.0,0.0,0.0,0.0,0.0,0.0,0.0,0.0,0.0,0.0,0.0,0.0,0.0,0.0,0.0,0.0,0.0,0.0,0.0,0.0,0.0,0.0,0.0,0.0,0.0,0.0,0.0,0.0,0.0,0.0,0.0,0.0,0.0,0.0,-2.3393,-2.2295,-2.3886,-2.4693,-2.4517,-2.4566,-2.4268,0.0,0.0,0.0,0.0,0.0,0.0,0.0,0.0,0.0,0.0,0.0,0.0,0.0,0.0,0.0,0.0,0.0,0.0,0.0,0.0,0.0,0.0,0.0,0.0,0.0,0.0,0.0,0.0,0.0,0.0,0.0,0.0,0.0,0.0,0.0,0.0,0.0,0.0,0.0,0.0,0.0,0.0,0.0,0.0,0.0,0.0,0.0,0.0,0.0,0.0,0.0,0.0,0.0,0.0,0.0,0.0,0.0,0.0,0.0,0.0,0.0,0.0,0.0,0.0,0.0,0.0,0.0,0.0,0.0,0.0,0.0,0.0,0.0,0.0,0.0,0.0,0.0,0.0,0.0,0.0,0.0,0.0,0.0,0.0,0.0,0.0,0.0,0.0,0.0,0.0,0.0,0.0,0.0,0.0,0.0,0.0,0.0,0.0,0.0,0.0,0.0,0.0,0.0,0.0,0.0,0.0,0.0,0.0,-2.3508,-2.3161,-2.407,-2.4549,-2.45,-2.4566,-2.4562,0.0,0.0,0.0,0.0,0.0,0.0,0.0,0.0,0.0,0.0,0.0,0.0,0.0,0.0,0.0,0.0,0.0,0.0,0.0,0.0,0.0,0.0,0.0,0.0,0.0,0.0,0.0,0.0,0.0,0.0,0.0,0.0,0.0,0.0,0.0,0.0,0.0,0.0,0.0,0.0,0.0,0.0,0.0,0.0,0.0,0.0,0.0,0.0,-2.4608,0.0,0.0,0.0,0.0,0.0,0.0,0.0,0.0,0.0,0.0,0.0,0.0,0.0,0.0,0.0,0.0,0.0,0.0,0.0,0.0,0.0,0.0,0.0,0.0,0.0,0.0,0.0,0.0,0.0,0.0,0.0,0.0,0.0,0.0,0.0,0.0,0.0,0.0,0.0,0.0,0.0,0.0,0.0,0.0,0.0,0.0,0.0,0.0,0.0,0.0,0.0,0.0,0.0,0.0,0.0,0.0,0.0,0.0,0.0,-2.3427,-2.3281,-2.407,-2.4474,-2.4411,-2.4532,-2.4444,0.0,0.0,0.0,0.0,0.0,0.0,0.0,0.0,0.0,0.0,0.0,0.0,0.0,0.0,0.0,0.0,0.0,0.0,0.0,0.0,0.0,0.0,0.0,0.0,0.0,0.0,0.0,0.0,0.0,0.0,0.0,0.0,0.0,0.0,0.0,0.0,0.0,0.0,0.0,0.0,0.0,0.0,0.0,0.0,0.0,0.0,0.0,0.0,0.0,0.0,0.0,0.0,0.0,0.0,0.0,0.0,0.0,0.0,0.0,0.0,0.0,0.0,0.0,0.0,0.0,0.0,0.0,0.0,0.0,0.0,0.0,0.0,0.0,0.0,0.0,0.0,0.0,0.0,0.0,0.0,0.0,0.0,0.0,0.0,0.0,0.0,0.0,0.0,0.0,0.0,0.0,0.0,0.0,0.0,0.0,0.0,0.0,0.0,0.0,0.0,0.0,0.0,0.0,0.0,0.0,0.0,0.0,-2.3088,-2.3377,-2.3314,-2.4077,-2.442,-2.433,-2.4368,-2.4086,-2.3451,0.0,0.0,0.0,0.0,0.0,0.0,0.0,0.0,0.0,0.0,0.0,0.0,0.0,0.0,0.0,0.0,0.0,0.0,0.0,0.0,0.0,0.0,0.0,0.0,0.0,0.0,0.0,0.0,0.0,0.0,0.0,0.0,0.0,0.0,0.0,0.0,0.0,0.0,-2.3025,-2.301,0.0,0.0,0.0,0.0,0.0,0.0,0.0,0.0,-2.4353,0.0,0.0,0.0,0.0,0.0,0.0,0.0,0.0,0.0,0.0,0.0,0.0,0.0,0.0,0.0,0.0,0.0,0.0,0.0,0.0,0.0,0.0,0.0,0.0,0.0,0.0,0.0,0.0,0.0,0.0,0.0,0.0,0.0,0.0,0.0,0.0,0.0,0.0,0.0,0.0,0.0,0.0,0.0,0.0,0.0,0.0,0.0,0.0,0.0,0.0,0.0,0.0,0.0,0.0,0.0,0.0,-2.3149,-2.3363,-2.3674,-2.4081,-2.4293,-2.4403,-2.4357,-2.3822,-2.3468,-2.3444,0.0,0.0,0.0,0.0,0.0,0.0,0.0,0.0,0.0,0.0,0.0,0.0,0.0,0.0,0.0,0.0,0.0,0.0,0.0,0.0,0.0,0.0,0.0,0.0,0.0,0.0,0.0,0.0,0.0,0.0,0.0,0.0,0.0,0.0,0.0,0.0,0.0,0.0,0.0,-2.2524,-2.2428,0.0,0.0,0.0,0.0,0.0,0.0,0.0,0.0,-2.4528,0.0,0.0,0.0,0.0,0.0,0.0,0.0,0.0,0.0,0.0,0.0,0.0,0.0,0.0,0.0,0.0,0.0,0.0,0.0,0.0,0.0,0.0,0.0,0.0,0.0,0.0,0.0,0.0,0.0,0.0,0.0,0.0,0.0,0.0,0.0,0.0,0.0,0.0,0.0,0.0,0.0,0.0,0.0,0.0,0.0,0.0,0.0,0.0,0.0,0.0,0.0,0.0,0.0,0.0,0.0,-2.3881,-2.3537,-2.3632,-2.4321,-2.4385,-2.4421,-2.4403,-2.3717,-2.3534,0.0,0.0,0.0,0.0,0.0,0.0,0.0,0.0,0.0,0.0,0.0,0.0,0.0,0.0,0.0,0.0,0.0,0.0,0.0,0.0,0.0,0.0,0.0,0.0,0.0,0.0,0.0,0.0,0.0,0.0,0.0,0.0,0.0,0.0,0.0,0.0,0.0,0.0,0.0,0.0,-2.2764,-2.2825,-2.3638,0.0,0.0,0.0,0.0,0.0,0.0,-2.4015,-2.4021,0.0,0.0,0.0,0.0,0.0,0.0,0.0,0.0,0.0,0.0,0.0,0.0,0.0,0.0,0.0,0.0,0.0,0.0,0.0,0.0,0.0,0.0,0.0,0.0,0.0,0.0,0.0,0.0,0.0,0.0,0.0,0.0,0.0,0.0,0.0,0.0,0.0,0.0,0.0,0.0,0.0,0.0,0.0,0.0,0.0,0.0,0.0,0.0,0.0,0.0,0.0,0.0,0.0,0.0,0.0,-2.4447,-2.3786,-2.3717,-2.4357,-2.4375,-2.4421,-2.4403,-2.3576,-2.3561,0.0,0.0,0.0,0.0,0.0,0.0,0.0,0.0,0.0,0.0,0.0,0.0,0.0,0.0,0.0,0.0,0.0,0.0,0.0,0.0,0.0,0.0,0.0,0.0,0.0,0.0,0.0,0.0,0.0,0.0,0.0,0.0,0.0,0.0,0.0,0.0,0.0,0.0,0.0,0.0,0.0,-2.3412,-2.4278,-2.4259,0.0,0.0,0.0,0.0,-2.3695,-2.349,0.0,0.0,0.0,0.0,0.0,0.0,0.0,0.0,0.0,0.0,0.0,0.0,0.0,0.0,0.0,0.0,0.0,0.0,0.0,0.0,0.0,0.0,0.0,0.0,0.0,0.0,0.0,0.0,0.0,0.0,0.0,0.0,0.0,0.0,0.0,0.0,0.0,0.0,0.0,0.0,0.0,0.0,0.0,0.0,0.0,0.0,0.0,0.0,0.0,0.0,0.0,0.0,0.0,0.0,0.0,0.0,-2.4338,-2.4402,-2.4393,-2.4321,-2.4376,-2.4421,-2.4384,-2.3004,-2.2983,0.0,0.0,0.0,0.0,0.0,0.0,0.0,0.0,0.0,0.0,0.0,0.0,0.0,0.0,0.0,0.0,0.0,0.0,0.0,0.0,0.0,0.0,0.0,0.0,0.0,0.0,0.0,0.0,0.0,0.0,0.0,0.0,0.0,0.0,0.0,0.0,0.0,0.0,0.0,0.0,0.0,-2.3418,-2.4277,-2.3751,-2.3524,0.0,0.0,-2.4642,-2.5295,-2.476,0.0,0.0,0.0,0.0,0.0,0.0,0.0,0.0,0.0,0.0,0.0,0.0,0.0,0.0,0.0,0.0,0.0,0.0,0.0,0.0,0.0,0.0,0.0,0.0,0.0,0.0,0.0,0.0,0.0,0.0,0.0,0.0,0.0,0.0,0.0,0.0,0.0,0.0,0.0,0.0,0.0,0.0,0.0,0.0,0.0,0.0,0.0,0.0,0.0,0.0,0.0,0.0,0.0,0.0,0.0,-2.4559,-2.4348,-2.4471,-2.4497,-2.4411,-2.4447,-2.4456,-2.4437,-2.2933,-2.2879,0.0,0.0,0.0,0.0,0.0,0.0,0.0,0.0,0.0,0.0,0.0,0.0,0.0,0.0,0.0,0.0,0.0,0.0,0.0,0.0,0.0,0.0,0.0,0.0,0.0,0.0,0.0,0.0,0.0,0.0,0.0,0.0,0.0,0.0,0.0,0.0,0.0,0.0,0.0,0.0,0.0,0.0,-2.3696,-2.3713,0.0,0.0,0.0,-2.4329,-2.424,0.0,0.0,0.0,0.0,0.0,0.0,0.0,0.0,0.0,0.0,0.0,0.0,0.0,0.0,0.0,0.0,0.0,0.0,0.0,0.0,0.0,0.0,0.0,0.0,0.0,0.0,0.0,0.0,0.0,0.0,0.0,0.0,0.0,0.0,0.0,0.0,0.0,0.0,0.0,0.0,0.0,0.0,0.0,0.0,0.0,0.0,0.0,0.0,0.0,0.0,0.0,0.0,0.0,0.0,0.0,0.0,0.0,-2.4448,-2.4482,-2.4508,-2.45,-2.45,-2.45,-2.4481,-2.3127,0.0,0.0,0.0,0.0,0.0,0.0,0.0,0.0,0.0,0.0,0.0,0.0,0.0,0.0,0.0,0.0,0.0,0.0,0.0,0.0,0.0,0.0,0.0,0.0,0.0,0.0,0.0,-2.2546,0.0,0.0,0.0,0.0,0.0,0.0,0.0,0.0,0.0,0.0,0.0,0.0,0.0,0.0,-2.5454,-2.4122,-2.4158,-2.4388,0.0,0.0,-2.4186,-2.3817,-2.4295,-2.4589,0.0,0.0,0.0,0.0,0.0,0.0,0.0,0.0,0.0,0.0,0.0,0.0,0.0,0.0,0.0,0.0,0.0,0.0,0.0,0.0,0.0,0.0,0.0,0.0,0.0,0.0,0.0,0.0,0.0,0.0,0.0,0.0,0.0,0.0,0.0,0.0,0.0,0.0,0.0,0.0,0.0,0.0,0.0,0.0,0.0,0.0,0.0,0.0,0.0,0.0,0.0,0.0,0.0,0.0,-2.4557,-2.45,-2.4497,-2.4497,-2.45,-2.45,-2.45,-2.45,-2.3609,-2.3568,0.0,0.0,0.0,0.0,0.0,0.0,0.0,0.0,0.0,0.0,0.0,0.0,0.0,0.0,0.0,0.0,0.0,0.0,0.0,0.0,0.0,0.0,0.0,0.0,0.0,0.0,0.0,0.0,0.0,0.0,0.0,0.0,0.0,0.0,0.0,0.0,0.0,0.0,0.0,0.0,0.0,-2.6747,-2.6566,-2.5256,-2.4598,0.0,-2.4888,-2.4648,-2.5409,-2.5545,-2.5071,-2.3451,0.0,0.0,0.0,0.0,0.0,0.0,0.0,0.0,0.0,0.0,0.0,0.0,0.0,0.0,0.0,0.0,0.0,0.0,0.0,0.0,0.0,0.0,0.0,0.0,0.0,0.0,0.0,0.0,0.0,0.0,0.0,0.0,0.0,0.0,0.0,0.0,0.0,0.0,0.0,0.0,0.0,0.0,0.0,0.0,0.0,0.0,0.0,0.0,0.0,0.0,0.0,0.0,0.0,-2.4541,-2.45,-2.4498,-2.4498,-2.45,-2.45,-2.45,-2.45,-2.3709,-2.3669,0.0,0.0,0.0,0.0,0.0,0.0,0.0,0.0,0.0,0.0,0.0,0.0,0.0,0.0,0.0,0.0,0.0,0.0,0.0,0.0,0.0,0.0,0.0,0.0,0.0,0.0,0.0,0.0,-2.3779,-2.34,-2.3069,0.0,0.0,0.0,0.0,0.0,0.0,0.0,0.0,0.0,0.0,-2.7252,-2.6198,-2.5511,0.0,0.0,-2.489,-2.466,-2.5566,-2.5234,-2.484,-2.4729,-2.4525,0.0,0.0,0.0,0.0,0.0,0.0,0.0,0.0,0.0,0.0,0.0,0.0,0.0,0.0,0.0,0.0,0.0,0.0,0.0,0.0,0.0,0.0,0.0,0.0,0.0,0.0,0.0,-2.5284,0.0,0.0,0.0,0.0,0.0,0.0,0.0,0.0,0.0,0.0,0.0,0.0,0.0,0.0,0.0,0.0,0.0,0.0,0.0,0.0,0.0,0.0,0.0,0.0,-2.4505,-2.45,-2.4517,-2.4517,-2.45,-2.45,-2.45,-2.45,-2.3959,-2.393,0.0,0.0,0.0,0.0,0.0,0.0,0.0,0.0,0.0,0.0,0.0,0.0,0.0,0.0,0.0,0.0,0.0,0.0,0.0,0.0,0.0,0.0,0.0,0.0,0.0,0.0,0.0,0.0,-2.4116,-2.3478,-2.3725,0.0,0.0,0.0,0.0,0.0,0.0,0.0,0.0,0.0,0.0,-2.8065,-2.6896,-2.6307,-2.6013,-2.6009,-2.5279,-2.4946,-2.5605,-2.5389,-2.5191,-2.529,0.0,0.0,0.0,0.0,0.0,0.0,0.0,0.0,0.0,0.0,0.0,0.0,0.0,0.0,0.0,0.0,0.0,0.0,0.0,0.0,0.0,0.0,0.0,0.0,0.0,0.0,0.0,-2.5209,0.0,0.0,-2.5194,0.0,0.0,0.0,0.0,0.0,0.0,0.0,0.0,0.0,0.0,0.0,0.0,0.0,0.0,0.0,0.0,0.0,0.0,0.0,0.0,0.0,0.0,-2.4497,-2.45,-2.4497,-2.4497,-2.45,-2.45,-2.45,-2.45,-2.4481,-2.4479,-2.4495,0.0,0.0,0.0,0.0,0.0,0.0,0.0,0.0,0.0,0.0,0.0,0.0,0.0,0.0,0.0,0.0,0.0,0.0,0.0,0.0,0.0,0.0,0.0,0.0,0.0,0.0,-2.4419,-2.4305,-2.4581,0.0,0.0,0.0,0.0,0.0,0.0,0.0,0.0,0.0,-2.9182,-2.9304,-2.9352,-2.9265,-2.7926,-2.6916,-2.6931,-2.621,-2.5683,-2.5692,-2.6373,-2.6373,0.0,0.0,0.0,0.0,0.0,0.0,0.0,0.0,0.0,0.0,0.0,0.0,0.0,0.0,0.0,0.0,0.0,0.0,0.0,0.0,0.0,0.0,0.0,0.0,0.0,0.0,0.0,-2.4879,-2.494,0.0,0.0,0.0,0.0,0.0,0.0,0.0,0.0,0.0,0.0,0.0,-2.5016,-2.4949,0.0,0.0,0.0,0.0,0.0,0.0,0.0,0.0,0.0,0.0,0.0,0.0,-2.4498,-2.45,-2.4517,-2.4498,-2.45,-2.45,-2.45,-2.45,-2.45,-2.4507,-2.4503,0.0,0.0,0.0,0.0,0.0,0.0,0.0,0.0,0.0,0.0,0.0,0.0,0.0,0.0,0.0,0.0,0.0,0.0,0.0,0.0,0.0,0.0,0.0,0.0,0.0,-2.4388,0.0,0.0,0.0,0.0,0.0,0.0,0.0,0.0,0.0,0.0,-2.814,-2.8687,-2.9278,-2.9888,-3.0058,-2.955,-2.8994,-2.8237,0.0,0.0,0.0,0.0,0.0,0.0,0.0,0.0,0.0,0.0,0.0,0.0,0.0,-2.8186,-2.7899,-2.5932,-2.5548,-2.5682,-2.6146,0.0,0.0,0.0,0.0,0.0,0.0,0.0,0.0,0.0,0.0,0.0,0.0,0.0,0.0,-2.4692,-2.4734,-2.4741,0.0,0.0,0.0,0.0,0.0,0.0,0.0,0.0,-2.4756,-2.4775,-2.4824,-2.4734,-2.4712,-2.4704,-2.4775,-2.4818,0.0,0.0,0.0,0.0,0.0,0.0,0.0,0.0,-2.4927,-2.4927,-2.4908,-2.4927,-2.4908,-2.4648,-2.45,-2.45,-2.45,-2.4508,-2.4505,-2.4505,-2.4539,0.0,0.0,0.0,0.0,0.0,0.0,0.0,0.0,0.0,0.0,0.0,0.0,0.0,0.0,0.0,0.0,0.0,0.0,0.0,0.0,0.0,0.0,0.0,-2.4957,0.0,0.0,0.0,0.0,0.0,0.0,0.0,0.0,0.0,-2.867,-2.8786,-2.9151,-2.9747,-3.0353,-3.0531,-3.0037,0.0,0.0,0.0,0.0,0.0,0.0,0.0,-2.715,-2.7419,-2.7696,-2.7991,-2.8259,-2.8298,-2.8296,-2.8291,0.0,0.0,-2.6904,-2.6603,-2.6715,-2.7128,-2.6981,-2.7121,-2.8188,-2.8241,-2.7976,0.0,0.0,0.0,0.0,-2.4468,0.0,0.0,0.0,-2.4564,-2.4599,0.0,-2.4547,0.0,0.0,0.0,0.0,-2.452,-2.47,0.0,0.0,-2.4607,-2.4574,-2.4512,-2.4503,-2.4505,-2.45,-2.4508,-2.4517,-2.4572,-2.4642,-2.4631,0.0,0.0,0.0,0.0,0.0,-2.5708,-2.5745,-2.5726,-2.5736,-2.5699,-2.4964,-2.4537,-2.45,-2.45,-2.45,-2.45,-2.45,-2.4542,-2.4599,-2.4636,0.0,0.0,0.0,0.0,0.0,0.0,0.0,0.0,0.0,0.0,0.0,0.0,0.0,0.0,0.0,0.0,0.0,0.0,0.0,0.0,-2.6382,0.0,0.0,0.0,0.0,0.0,0.0,0.0,0.0,0.0,-2.9541,-2.9616,-3.0167,-3.0626,-3.0665,0.0,0.0,0.0,0.0,-2.9628,-2.957,-2.8883,-2.8332,-2.8272,-2.8991,-2.9279,-2.8479,0.0,0.0,-2.8537,-2.842,-2.8496,-2.8433,-2.8568,-2.8616,-2.9175,-2.9046,-2.8965,-2.8862,-2.8217,-2.779,-2.7803,-2.7868,-2.7593,-2.4375,0.0,0.0,0.0,0.0,-2.4293,-2.4311,-2.4366,-2.4472,-2.4532,-2.452,-2.4503,0.0,0.0,0.0,0.0,0.0,0.0,-2.4566,-2.4515,-2.4534,-2.4515,-2.4498,-2.4498,-2.4508,-2.45,-2.45,-2.4778,-2.5317,-2.4811,-2.4541,-2.4498,0.0,0.0,0.0,0.0,-2.5987,-2.6516,-2.6553,-2.6553,-2.6553,-2.5754,-2.5076,-2.4518,-2.45,-2.45,-2.45,-2.45,-2.4507,-2.4539,-2.5123,0.0,0.0,0.0,0.0,0.0,0.0,0.0,0.0,0.0,0.0,0.0,0.0,0.0,0.0,0.0,0.0,0.0,0.0,0.0,-2.6502,-2.7264,-2.7517,0.0,0.0,0.0,0.0,0.0,0.0,0.0,0.0,0.0,-3.14,-3.0975,-3.0709,0.0,0.0,-3.0826,-3.0857,-3.0664,-3.0311,-2.9706,-2.9389,0.0,-2.8407,-2.9029,-2.9514,-2.9259,-2.9923,-3.0372,-3.0138,-3.0587,-3.1016,-3.0995,-3.1029,-3.1038,-3.0925,-2.9528,-2.8616,-2.8868,-2.8778,-2.8771,-2.9318,-2.941,-2.9201,-2.4228,-2.4257,-2.4257,-2.4229,-2.4201,-2.4201,-2.4229,-2.4303,-2.4402,-2.4472,-2.4515,-2.4497,-2.4515,-2.4515,-2.4508,0.0,0.0,0.0,-2.45,-2.4518,-2.4816,-2.4816,-2.4537,-2.4834,-2.4797,-2.4518,-2.4816,-2.5224,-2.5708,-2.5531,-2.5448,-2.5429,0.0,-2.5373,-2.6172,-2.6479,-2.6888,-2.7352,-2.7371,-2.7381,-2.7371,-2.6591,-2.5782,-2.502,-2.4983,-2.4834,-2.4518,-2.4816,-2.4833,-2.4532,-2.562,-2.6184,0.0,0.0,0.0,0.0,0.0,0.0,0.0,0.0,0.0,0.0,0.0,-2.7168,-2.6634,0.0,0.0,0.0,-2.6683,-2.6968,-2.7333,-2.7814,0.0,0.0,0.0,0.0,0.0,0.0,0.0,-3.2455,-3.2889,-3.288,-3.2285,-3.1965,-3.1544,-3.0929,-3.1145,-3.1363,-3.1406,0.0,-3.119,-3.0663,-3.0326,-2.9931,-2.9423,-2.9751,-3.0079,-3.006,-3.0762,-3.1289,-3.1328,-3.2031,-3.2597,-3.2576,-3.2311,-3.2023,-3.1919,-3.0261,-2.9043,-2.9456,-2.9481,-2.9612,-3.0109,-3.0183,-3.0015,-2.4209,-2.4199,-2.4199,-2.42,-2.4192,-2.4192,-2.4238,-2.4312,-2.4358,-2.4438,-2.45,-2.45,-2.4537,-2.4611,-2.4592,0.0,-2.4592,-2.4611,-2.4611,-2.463,-2.5355,-2.5317,-2.4648,-2.541,-2.5373,-2.463,-2.541,-2.5838,-2.594,-2.6572,-2.6962,-2.7055,-2.6284,-2.6256,-2.6999,-2.7724,-2.8133,-2.8207,-2.8207,-2.817,-2.8096,-2.739,-2.6609,-2.581,-2.5801,-2.5448,-2.476,-2.541,-2.5447,-2.4793,-2.6245,-2.6853,-2.6355,0.0,0.0,0.0,0.0,0.0,0.0,0.0,0.0,0.0,0.0,0.0,0.0,0.0,0.0,-2.79,-2.7167,0.0,-2.8025,-2.8245,0.0,0.0,0.0,-3.1241,-3.2105,-3.2127,-3.2487,-3.3378,0.0,0.0,-3.2598,-3.3047,-3.2871,-3.1211,-3.1641,-3.2109,-3.209,-3.1992,-3.1991,-3.1854,-3.1342,-3.0888,-3.0711,-3.0746,-3.0722,-3.0742,-3.1465,-3.1875,-3.1953,-3.2617,-3.3201,-3.3182,-3.2571,-3.2007,-3.1988,-3.1036,-3.0348,-3.0182,-3.018,-3.0185,-3.0204,-3.0204,-3.0072,-2.4199,-2.4199,-2.4191,-2.4191,-2.4209,-2.4209,-2.4238,-2.4294,-2.4321,-2.4403,-2.45,-2.45,-2.4834,-2.541,-2.541,-2.5429,-2.5401,-2.541,-2.541,-2.541,-2.5615,-2.5596,-2.5448,-2.6238,-2.6182,-2.5494,-2.6219,-2.6925,-2.7483,-2.7111,-2.7557,-2.869,-2.7947,-2.7631,-2.7817,-2.8003,-2.843,-2.9081,-2.9099,-2.8765,-2.8133,-2.791,-2.7427,-2.6628,-2.6609,-2.6516,-2.633,-2.6526,-2.6526,-2.6377,-2.7491,-2.8091,-2.797,-2.902,0.0,0.0,0.0,0.0,0.0,0.0,0.0,0.0,0.0,-2.8086,-2.8028,0.0,-2.709,0.0,-2.6881,-2.7157,-2.8106,-2.9357,0.0,0.0,-3.1822,-3.2821,-3.298,-3.305,-3.3393,-3.4228,-3.4547,-3.455,-3.4141,-3.4277,-3.3789,-3.2129,-3.1504,-3.1211,-3.1211,-3.119,-3.1207,-3.1207,-3.1025,-3.0823,-3.0823,-3.0801,-3.08,-3.08,-3.0997,-3.1114,-3.1114,-3.1816,-3.2402,-3.2401,-3.2212,-3.2005,-3.1932,-3.11,-3.0408,-3.0241,-3.0206,-3.0204,-3.0204,-3.0204,-3.0128,-2.4199,-2.4199,-2.42,-2.4209,-2.4209,-2.4228,-2.4469,-2.4829,-2.4875,-2.5134,-2.5559,-2.5197,-2.5485,-2.6182,-2.5856,-2.5885,-2.6219,-2.6228,-2.6219,-2.6247,-2.6619,-2.6591,-2.6284,-2.7037,-2.7018,-2.6256,-2.7055,-2.7668,-2.8077,-2.805,-2.8486,-2.9388,-2.8913,-2.8672,-2.8672,-2.869,-2.8913,-2.9388,-2.9388,-2.9155,-2.8709,-2.8672,-2.8321,-2.7597,-2.7475,-2.7336,-2.715,-2.7408,-2.7418,-2.7196,-2.8403,-2.9009,-2.8761,-2.9702,-2.9883,0.0,0.0,0.0,0.0,0.0,0.0,0.0,0.0,0.0,0.0,0.0,-2.845,-2.8479,-2.8133,-2.8463,-2.9804,-3.0441,-3.09,-3.131,-3.2565,-3.3525,-3.3851,-3.3939,-3.4296,-3.5113,-3.5253,-3.5117,-3.4766,-3.4707,-3.4219,-3.291,-3.2324,-3.2012,-3.2031,-3.201,-3.2007,-3.2005,-3.1334,-3.08,-3.08,-3.08,-3.08,-3.082,-3.1133,-3.1368,-3.1407,-3.209,-3.2653,-3.2619,-3.2265,-3.1919,-3.1777,-3.1021,-3.0343,-3.0241,-3.0206,-3.0211,-3.0204,-3.0204,-3.0142,-2.4199,-2.4199,-2.4209,-2.4265,-2.4376,-2.446,-2.4866,-2.5503,-2.5569,-2.6033,-2.6712,-2.6108,-2.6238,-2.6851,-2.6265,-2.6386,-2.7037,-2.7055,-2.7055,-2.7092,-2.778,-2.7724,-2.7092,-2.7873,-2.7854,-2.7111,-2.7873,-2.8263,-2.8282,-2.9025,-2.9388,-2.9388,-2.9388,-2.9388,-2.9407,-2.9489,-2.9518,-2.9407,-2.9531,-2.9541,-2.9438,-2.9541,-2.9267,-2.8585,-2.8381,-2.81,-2.7714,-2.8263,-2.832,-2.7816,-2.9141,-2.9687,-2.9206,-2.9832,-3.0303,0.0,-3.0609,0.0,0.0,0.0,0.0,0.0,0.0,0.0,0.0,-3.1608,-3.0694,-3.0698,-2.9968,-3.0167,-3.1772,-3.1388,-3.1354,-3.2114,-3.3098,-3.401,-3.4695,-3.4842,-3.5156,-3.5898,-3.6016,-3.5684,-3.5019,-3.4863,-3.4551,-3.375,-3.3691,-3.3672,-3.3534,-3.3259,-3.3022,-3.3232,-3.1859,-3.08,-3.08,-3.08,-3.08,-3.0878,-3.1304,-3.193,-3.2005,-3.2506,-3.2984,-3.2969,-3.2266,-3.1681,-3.1565,-3.0843,-3.0312,-3.0246,-3.0213,-3.0211,-3.0204,-3.0204,-3.0142,-2.4199,-2.4199,-2.4257,-2.4662,-2.5261,-2.5394,-2.5495,-2.5569,-2.5606,-2.5736,-2.5959,-2.6442,-2.6767,-2.6925,-2.7427,-2.7724,-2.7873,-2.7873,-2.7854,-2.7873,-2.8021,-2.8003,-2.7929,-2.8746,-2.8709,-2.7966,-2.8728,-2.9155,-2.9165,-2.9314,-2.9388,-2.9388,-2.9388,-2.9388,-2.9425,0.0,0.0,0.0,-3.0205,-3.0274,-2.9608,-3.0255,-3.0218,-2.942,-2.9336,0.0,-2.9192,-2.9465,-2.9566,-2.9447,-2.9873,0.0,0.0,0.0,0.0,0.0,0.0,0.0,0.0,0.0,0.0,0.0,-3.3031,-3.2684,-3.296,-3.216,-3.1355,-3.0688,-3.0545,-3.0654,-3.102,-3.2174,-3.2943,-3.3158,-3.4549,-3.5566,-3.5722,-3.5742,-3.584,-3.5976,-3.6016,-3.5937,-3.5762,-3.5762,-3.541,-3.4648,-3.5059,-3.5176,-3.453,-3.3298,-3.2418,-3.2261,-3.1433,-3.0821,-3.08,-3.08,-3.078,-3.0838,-3.0838,-3.1229,-3.1807,-3.1482,-3.1492,-3.1994,-3.1386,-3.0819,-3.0748,-3.0477,-3.0305,-3.0279,-3.0226,-3.0204,-3.0204,-3.0204,-3.0178,-2.4209,-2.4228,-2.4699,-2.5142,0.0,-2.6051,-2.6469,-2.6803,-2.6413,-2.647,-2.6869,-2.6888,-2.7362,-2.8133,-2.8114,-2.8337,-2.8728,-2.8746,-2.8746,-2.8746,-2.8746,-2.8746,-2.8746,-2.9192,-2.9174,-2.8765,-2.9202,-2.9388,-2.9388,-2.9388,-2.9388,-2.9388,-2.9388,-2.9582,-3.001,-3.0381,-3.0381,-2.9991,-3.0489,-3.0365,-2.9655,-3.0049,-3.0122,-2.9851,-2.9784,0.0,0.0,0.0,0.0,0.0,0.0,0.0,0.0,-3.0981,-3.122,-3.1607,-3.2051,-3.2486,-3.2894,-3.2928,-3.348,-3.477,-3.451,-3.3945,-3.3111,-3.3119,-3.2845,-3.2029,-3.2002,-3.2228,-3.2697,-3.353,-3.4042,-3.41,-3.5215,-3.6016,-3.6016,-3.6016,-3.6016,-3.6016,-3.6016,-3.6016,-3.6016,-3.6016,-3.584,-3.543,-3.5703,-3.582,-3.5293,-3.3865,-3.2515,-3.1631,-3.1138,-3.08,-3.0799,-3.0768,-3.0767,-3.0792,-3.0717,-3.0862,-3.1264,-3.1297,-3.1262,-3.1258,-3.1128,-3.1028,-3.0537,-3.0379,-3.0312,-3.0305,-3.024,-3.0211,-3.0204,-3.0204,-3.0204,-2.4283,-2.4505,-2.5206,-2.5725,-2.6106,-2.6746,-2.7545,-2.8282,-2.7631,0.0,0.0,-2.7557,-2.8021,-2.9118,-2.8579,-2.8719,-2.9359,-2.9388,-2.9388,-2.9388,-2.9388,-2.9388,-2.9388,-2.9388,-2.9388,-2.9407,-2.9556,-2.9527,-2.9407,-2.9537,-2.9556,-2.9407,-2.9388,-2.988,-3.0753,-3.0852,-3.0929,-3.1041,-3.0812,-3.041,-2.9898,-2.9906,-2.9986,-3.0082,-2.9985,-3.0063,-3.0343,-3.0215,-3.0235,-3.0379,-3.0535,-3.0958,-3.1641,-3.1844,-3.2216,-3.284,-3.3045,-3.3429,-3.4148,-3.4353,-3.4732,-3.5457,-3.5556,-3.5004,-3.3626,-3.4288,-3.4483,-3.3817,-3.3778,-3.4087,-3.4856,-3.4919,-3.492,-3.494,-3.5566,-3.6016,-3.6016,-3.6016,-3.6016,-3.5996,-3.584,-3.5762,-3.5723,-3.5566,-3.5605,-3.5723,-3.5684,-3.5762,-3.5566,-3.4334,-3.2806,-3.1488,-3.1016,-3.0799,-3.0771,-3.0734,-3.0724,-3.0734,-3.0653,-3.0662,-3.0908,-3.1303,-3.1342,-3.097,-3.1245,-3.1107,-3.0562,-3.0356,-3.0312,-3.0312,-3.024,-3.0204,-3.0204,-3.0204,-3.0204,-2.4643,-2.5325,-2.5513,-2.6411,-2.7756,-2.788,-2.8402,-2.9192,-2.9109,-2.87,-2.8133,-2.8765,-2.8765,-2.8319,-2.8932,-2.9295,-2.9388,-2.9388,-2.9388,-2.9388,-2.9388,-2.9388,-2.9388,-2.9388,-2.9388,-2.9434,-3.0103,-3.0065,-2.9545,-3.0103,-3.0113,-2.9489,-2.9388,-3.0158,-3.1526,-3.1811,-3.2223,-3.2862,-3.1676,-3.0982,-3.0886,-3.105,-3.0798,-3.014,-3.0095,-3.0075,-3.0136,-3.0286,-3.0386,-3.0423,-3.1132,-3.1574,-3.1698,-3.2422,-3.2851,-3.2929,-3.3583,-3.4071,-3.4212,-3.4891,-3.5365,-3.5475,-3.5558,-3.5491,-3.5294,-3.5535,-3.5658,-3.5522,-3.5506,-3.5664,-3.5814,-3.5757,-3.57,-3.576,-3.5898,-3.5996,-3.5918,-3.5918,-3.5879,-3.5859,-3.5332,-3.4883,-3.4824,-3.4297,-3.418,-3.4707,-3.4883,-3.4902,-3.4802,-3.4058,-3.3059,-3.2075,-3.127,-3.0849,-3.073,-3.0715,-3.0694,-3.063,-3.0576,-3.0741,-3.1349,-3.112,-3.0984,-3.1382,-3.108,-3.0683,-3.0423,-3.0356,-3.0318,-3.0305,-3.0259,-3.0211,-3.0204,-3.0204,-3.0204,-2.5508,-2.5696,-2.6982,-2.7754,-2.8186,-2.9516,-3.0326,-3.0697,-3.0697,-2.9991,-2.8839,-2.8728,-2.8728,-2.8839,-2.9221,-2.9388,-2.9425,-2.9842,-2.9805,-2.9434,-2.9853,-3.0065,-3.001,-2.963,-2.9861,-3.0641,-3.0604,-3.0623,-3.0734,-3.1087,-3.1069,-3.0753,-3.1125,-3.1767,-3.2569,-3.2691,-3.3236,-3.411,-3.2608,-3.1623,-3.1264,-3.1367,-3.1037,-3.0273,-3.0273,-3.0491,-3.0932,-3.1053,-3.1314,-3.1737,-3.2115,-3.255,-3.3038,-3.3435,-3.3846,-3.427,-3.4674,-3.4899,-3.4891,-3.5276,-3.5515,-3.5559,-3.563,-3.5676,-3.5749,-3.5837,-3.5904,-3.5953,-3.5971,-3.6021,-3.5987,-3.558,-3.5289,-3.5292,-3.4882,-3.459,-3.457,-3.459,-3.459,-3.457,-3.4258,-3.4004,-3.3984,-3.3652,-3.3516,-3.3945,-3.4004,-3.414,-3.4566,-3.3549,-3.2589,-3.2151,-3.1758,-3.1297,-3.0834,-3.0661,-3.0633,-3.0616,-3.0519,-3.0626,-3.1071,-3.0926,-3.1095,-3.1019,-3.0981,-3.0904,-3.0538,-3.0356,-3.0318,-3.0305,-3.0259,-3.0211,-3.0204,-3.0204,-3.0204,-2.6972,-2.6814,-2.8704,-2.9286,-2.9136,-3.1162,-3.2072,-3.2072,-3.2054,-3.1366,-3.0196,-2.9304,-2.9304,-2.9898,-2.9935,-2.9954,-3.0028,-3.0586,-3.0559,-3.0047,-3.0586,-3.0864,-3.0827,-3.0233,-3.0604,-3.1663,-3.1329,-3.1385,-3.1775,-3.1979,-3.1961,-3.1905,-3.265,-3.3134,-3.3298,-3.3381,-3.3942,-3.4802,-3.3536,-3.2526,-3.1988,-3.1814,-3.15,-3.1013,-3.0962,-3.1288,-3.1929,-3.1962,-3.2256,-3.2852,-3.3083,-3.3506,-3.4135,-3.4391,-3.4796,-3.5445,-3.549,-3.5509,-3.5528,-3.5528,-3.5558,-3.5616,-3.5659,-3.5768,-3.5872,-3.5897,-3.5936,-3.5991,-3.6001,-3.5927,-3.5656,-3.5151,-3.4626,-3.4413,-3.3827,-3.3496,-3.3398,-3.3379,-3.3379,-3.3379,-3.3242,-3.3125,-3.3105,-3.2949,-3.2891,-3.3047,-3.3261,-3.3747,-3.4311,-3.3331,-3.2486,-3.2306,-3.2086,-3.1462,-3.0796,-3.0636,-3.0583,-3.0564,-3.0472,-3.0472,-3.0614,-3.1058,-3.1127,-3.0635,-3.0923,-3.0981,-3.0533,-3.0336,-3.0299,-3.0305,-3.024,-3.0211,-3.0204,-3.0204,-3.0204,-2.9326,-2.995,-3.0316,-3.0872,-3.1533,-3.25,-3.289,-3.2908,-3.2908,-3.2823,-3.2518,-3.1801,-3.1459,-3.1589,-3.1533,-3.1496,-3.1515,-3.1663,-3.1645,-3.1571,-3.1645,-3.1701,-3.1794,-3.1626,-3.1645,-3.1979,-3.2481,-3.2462,-3.2072,-3.2604,-3.2537,-3.2002,-3.2796,-3.3314,-3.3368,-3.3682,-3.429,-3.5147,-3.4422,-3.3911,-3.3666,-3.3081,-3.2724,-3.2679,-3.2641,-3.2699,-3.2795,-3.2776,-3.2833,-3.2968,-3.366,-3.4122,-3.4269,-3.495,-3.5425,-3.5553,-3.5528,-3.5534,-3.5599,-3.5591,-3.563,-3.5698,-3.57,-3.5755,-3.5899,-3.5895,-3.5927,-3.5978,-3.6004,-3.5695,-3.4958,-3.4764,-3.4433,-3.3828,-3.3515,-3.3379,-3.3379,-3.3379,-3.3379,-3.3379,-3.2871,-3.2324,-3.2363,-3.1855,-3.1621,-3.2363,-3.2889,-3.3492,-3.4115,-3.354,-3.2887,-3.2786,-3.195,-3.093,-3.062,-3.0556,-3.0501,-3.0444,-3.0408,-3.0396,-3.0485,-3.0485,-3.0462,-3.0519,-3.0462,-3.0538,-3.0463,-3.0356,-3.0312,-3.0273,-3.0233,-3.0204,-3.0204,-3.0204,-3.0204,-3.0485,-3.0501,-3.1536,-3.2446,-3.3213,-3.3577,-3.3707,-3.3696,-3.3714,-3.3696,-3.3677,-3.3343,-3.2704,-3.1819,-3.1801,-3.1801,-3.1868,-3.2767,-3.2964,-3.263,-3.3503,-3.3986,-3.3949,-3.3417,-3.3689,-3.4544,-3.4048,-3.3819,-3.3954,-3.3978,-3.3777,-3.3537,-3.4001,-3.4301,-3.4423,-3.4581,-3.4894,-3.535,-3.5107,-3.4915,-3.4777,-3.4069,-3.3436,-3.2949,-3.2891,-3.316,-3.3603,-3.3667,-3.391,-3.4385,-3.4783,-3.5002,-3.5033,-3.5366,-3.5571,-3.5583,-3.5585,-3.5596,-3.5635,-3.5652,-3.5709,-3.5794,-3.5827,-3.5867,-3.5936,-3.596,-3.5983,-3.6007,-3.6008,-3.5814,-3.5446,-3.4998,-3.455,-3.418,-3.373,-3.3379,-3.3379,-3.3379,-3.3379,-3.3359,-3.3125,-3.2695,-3.2285,-3.1914,-3.1816,-3.2129,-3.2478,-3.2866,-3.3098,-3.2395,-3.1868,-3.1703,-3.1059,-3.069,-3.0579,-3.0543,-3.0482,-3.0425,-3.0404,-3.0404,-3.0404,-3.0404,-3.0404,-3.0404,-3.0404,-3.0379,-3.0361,-3.0324,-3.0305,-3.026,-3.0226,-3.0204,-3.0204,-3.0204,-3.0204,-3.1899,-3.1633,-3.2765,-3.3622,-3.4197,-3.4216,-3.4216,-3.4216,-3.4216,-3.4216,-3.4216,-3.4216,-3.3596,-3.2611,-3.2704,-3.2834,-3.2964,-3.4042,-3.4376,-3.4135,-3.5083,-3.5491,-3.5436,-3.5126,-3.5386,-3.6049,-3.5126,-3.4754,-3.5089,-3.4828,-3.4612,-3.4645,-3.4841,-3.5044,-3.5193,-3.5242,-3.5354,-3.5467,-3.55,-3.5615,-3.5712,-3.5218,-3.4564,-3.4007,-3.3949,-3.4353,-3.518,-3.5007,-3.5187,-3.5809,-3.5643,-3.5528,-3.559,-3.5623,-3.5648,-3.5659,-3.565,-3.5659,-3.5732,-3.5761,-3.5788,-3.5907,-3.5935,-3.5963,-3.5992,-3.6014,-3.6013,-3.6012,-3.6012,-3.5934,-3.5582,-3.5076,-3.4648,-3.4355,-3.373,-3.3398,-3.3379,-3.3379,-3.3379,-3.3379,-3.3359,-3.3223,-3.2676,-3.2519,-3.248,-3.2186,-3.2126,-3.2103,-3.1979,-3.1409,-3.0808,-3.0959,-3.0777,-3.0522,-3.0564,-3.0495,-3.046,-3.0431,-3.0404,-3.0404,-3.0404,-3.0404,-3.0404,-3.0404,-3.0404,-3.0373,-3.0336,-3.0318,-3.0292,-3.0233,-3.0218,-3.0204,-3.0204,-3.0204,-3.0204,-3.3969,-3.3926,-3.408,-3.4141,-3.4216,-3.4216,-3.4216,-3.4216,-3.4216,-3.4216,-3.4216,-3.4216,-3.416,-3.4067,-3.4785,-3.5287,-3.5287,-3.5361,-3.5739,-3.6203,-3.5844,-3.5529,-3.5535,-3.6216,-3.6235,-3.5789,-3.5491,-3.5027,-3.4438,-3.4532,-3.4612,-3.4645,-3.5086,-3.5239,-3.5318,-3.553,-3.5505,-3.5692,-3.5692,-3.5904,-3.6558,-3.6596,-3.6519,-3.6469,-3.6481,-3.6796,-3.7507,-3.6988,-3.661,-3.6709,-3.5933,-3.554,-3.5587,-3.5664,-3.5717,-3.5785,-3.5749,-3.5762,-3.5869,-3.5926,-3.5961,-3.5996,-3.5996,-3.5996,-3.5996,-3.6015,-3.6014,-3.6014,-3.6014,-3.5702,-3.5096,-3.4961,-3.4531,-3.3848,-3.3594,-3.3535,-3.3516,-3.3672,-3.3418,-3.3516,-3.3574,-3.3574,-3.3418,-3.3359,-3.2928,-3.236,-3.2102,-3.2094,-3.1852,-3.1202,-3.1072,-3.134,-3.1064,-3.0496,-3.0496,-3.0462,-3.0425,-3.0404,-3.0404,-3.0404,-3.0404,-3.0404,-3.0404,-3.0385,-3.0379,-3.0348,-3.0329,-3.0292,-3.026,-3.0239,-3.0218,-3.0204,-3.0204,-3.0204,-3.019,-3.4624,-3.4191,-3.4166,-3.4216,-3.4216,-3.4216,-3.4216,-3.4216,-3.4216,-3.4216,-3.4216,-3.4216,-3.4216,-3.4253,-3.5646,-3.5993,-3.5584,-3.6012,-3.6439,-3.6705,-3.6922,-3.6773,-3.6346,-3.6569,-3.6588,-3.6253,-3.5751,-3.5423,-3.5241,-3.5076,-3.5267,-3.574,-3.6023,-3.617,-3.6254,-3.6805,-3.7103,-3.7103,-3.7103,-3.7257,-3.7507,-3.7526,-3.7765,-3.8286,-3.7803,-3.768,-3.7988,-3.7194,-3.6773,-3.6806,-3.6003,-3.5599,-3.5669,-3.5733,-3.5797,-3.5903,-3.6367,-3.6464,-3.6105,-3.65,-3.6541,-3.6055,-3.6016,-3.6016,-3.6016,-3.6015,-3.6015,-3.6016,-3.6016,-3.5801,-3.5644,-3.5527,-3.541,-3.5137,-3.5039,-3.5,-3.5059,-3.5059,-3.5059,-3.498,-3.4629,-3.4434,-3.4726,-3.4589,-3.3668,-3.2406,-3.2511,-3.2317,-3.1378,-3.0792,-3.0727,-3.0898,-3.0728,-3.0433,-3.0433,-3.0425,-3.0404,-3.0404,-3.0404,-3.0404,-3.0404,-3.0398,-3.0398,-3.0373,-3.0373,-3.0323,-3.0299,-3.0254,-3.0219,-3.0225,-3.0204,-3.0204,-3.0204,-3.0204,-3.0154,-3.4958,-3.4271,-3.4216,-3.4216,-3.4216,-3.4216,-3.4216,-3.4216,-3.4216,-3.4216,-3.4216,-3.4216,-3.4216,-3.4364,-3.5398,-3.5807,-3.5603,-3.6315,-3.6848,-3.7052,-3.7113,-3.6829,-3.6439,-3.6569,-3.6556,-3.6285,-3.5839,-3.5813,-3.6184,-3.5559,-3.5774,-3.6774,-3.6761,-3.6853,-3.718,-3.7719,-3.8007,-3.8007,-3.8007,-3.8104,-3.8373,-3.8407,-3.8845,-3.9502,-3.9129,-3.884,-3.8821,-3.8071,-3.7488,-3.7237,-3.6745,-3.6513,-3.6591,-3.6615,-3.6684,-3.682,-3.7032,-3.698,-3.6523,-3.6719,-3.6621,-3.6074,-3.6016,-3.6016,-3.6016,-3.6016,-3.6016,-3.6016,-3.6016,-3.6016,-3.6016,-3.5996,-3.6016,-3.6016,-3.6016,-3.6016,-3.6016,-3.5976,-3.5957,-3.584,-3.5449,-3.5449,-3.5801,-3.543,-3.4484,-3.301,-3.3171,-3.2613,-3.1407,-3.0679,-3.0477,-3.0492,-3.0499,-3.0408,-3.0402,-3.0396,-3.0404,-3.0404,-3.0404,-3.0404,-3.0398,-3.0398,-3.0373,-3.0367,-3.0349,-3.0292,-3.0254,-3.0226,-3.0225,-3.0211,-3.0204,-3.0204,-3.0204,-3.0204,-3.0106,-3.4971,-3.4253,-3.4216,-3.4216,-3.4216,-3.4216,-3.4216,-3.4309,-3.4234,-3.4253,-3.4364,-3.4253,-3.4216,-3.4253,-3.4624,-3.4878,-3.5547,-3.6328,-3.6978,-3.7405,-3.6278,-3.564,-3.5529,-3.6123,-3.6099,-3.556,-3.5682,-3.6314,-3.7042,-3.5952,-3.6007,-3.7275,-3.7076,-3.7276,-3.8007,-3.8161,-3.8161,-3.8219,-3.8277,-3.8565,-3.9188,-3.9295,-3.9682,-4.0422,-4.0432,-4.0402,-4.0467,-3.9733,-3.8949,-3.8304,-3.8218,-3.8353,-3.8252,-3.8231,-3.8342,-3.8219,-3.7707,-3.7316,-3.7168,-3.6582,-3.6269,-3.6016,-3.6016,-3.6016,-3.6016,-3.6016,-3.6016,-3.6016,-3.6016,-3.6016,-3.6016,-3.6016,-3.6016,-3.6016,-3.6016,-3.6016,-3.6016,-3.6035,-3.6094,-3.623,-3.6152,-3.6035,-3.6055,-3.5912,-3.5309,-3.4439,-3.369,-3.2986,-3.1946,-3.1085,-3.0554,-3.0569,-3.0502,-3.041,-3.0404,-3.0404,-3.0404,-3.0404,-3.0404,-3.0404,-3.0379,-3.0373,-3.0342,-3.0336,-3.0292,-3.026,-3.0246,-3.0206,-3.0218,-3.0204,-3.0204,-3.0204,-3.0204,-3.0183,-3.0034,-3.4439,-3.4216,-3.4216,-3.4216,-3.4216,-3.4216,-3.4513,-3.5008,-3.4488,-3.4525,-3.4903,-3.4457,-3.4216,-3.4513,-3.5361,-3.5751,-3.5584,-3.6309,-3.6551,-3.6216,-3.5714,-3.5175,-3.4754,-3.4897,-3.4963,-3.4929,-3.5238,-3.5845,-3.6438,-3.5833,-3.6262,-3.7544,-3.7697,-3.8065,-3.888,-3.9431,-3.9727,-3.9719,-3.9708,-3.9908,-4.018,-4.0195,-4.0359,-4.0621,-4.0661,-4.0694,-4.0782,-4.0481,-3.9908,-3.9129,-3.9151,-3.8983,-3.8615,-3.8523,-3.8551,-3.8574,-3.8359,-3.785,-3.7344,-3.7031,-3.6562,-3.6172,-3.6016,-3.6016,-3.6016,-3.6016,-3.6016,-3.6016,-3.6016,-3.6016,-3.6016,-3.6016,-3.6035,-3.6016,-3.6016,-3.6016,-3.6074,-3.6504,-3.7422,-3.8253,-3.7567,-3.7151,-3.7226,-3.6816,-3.5538,-3.4659,-3.3736,-3.2956,-3.2501,-3.13,-3.0794,-3.1143,-3.0814,-3.0398,-3.0379,-3.0373,-3.0373,-3.0373,-3.0392,-3.0404,-3.0379,-3.0355,-3.0329,-3.0279,-3.026,-3.0227,-3.0213,-3.0218,-3.0211,-3.0204,-3.0204,-3.0204,-3.0197,-3.0087,-2.9953,-3.4494,-3.4216,-3.4216,-3.4216,-3.4216,-3.4216,-3.4494,-3.4915,-3.4439,-3.4525,-3.4804,-3.4439,-3.4216,-3.4494,-3.5646,-3.5751,-3.5157,-3.5863,-3.5826,-3.512,-3.5027,-3.4692,-3.4258,-3.4305,-3.4719,-3.5152,-3.5214,-3.5835,-3.6883,-3.6065,-3.65,-3.8161,-3.8161,-3.8604,-3.9592,-3.9938,-4.015,-4.0439,-4.0477,-4.055,-4.0657,-4.0904,-4.111,-4.1215,-4.122,-4.1454,-4.1807,-4.2058,-4.1383,-3.9967,-3.9625,-3.958,-3.9462,-3.957,-3.9414,-3.9082,-3.873,-3.8203,-3.7402,-3.6934,-3.6621,-3.6113,-3.6016,-3.6016,-3.6016,-3.6016,-3.6016,-3.6016,-3.5996,-3.5973,-3.5996,-3.6289,-3.6305,-3.5976,-3.5996,-3.5996,-3.6092,-3.6735,-3.7527,-3.8073,-3.7437,-3.7284,-3.7333,-3.6816,-3.5616,-3.4859,-3.3829,-3.3037,-3.2607,-3.1435,-3.125,-3.1058,-3.068,-3.0405,-3.0367,-3.0367,-3.0361,-3.0361,-3.0367,-3.0392,-3.0379,-3.0343,-3.0299,-3.0254,-3.0233,-3.0219,-3.0211,-3.0211,-3.0204,-3.0204,-3.0197,-3.0142,-3.0113,-3.0019,-2.9864,-3.4952,-3.4309,-3.4216,-3.4253,-3.4327,-3.4265,-3.4309,-3.4346,-3.4216,-3.429,-3.4364,-3.4284,-3.4271,-3.4476,-3.5436,-3.5417,-3.4692,-3.5529,-3.546,-3.4748,-3.4512,-3.4474,-3.4311,-3.4531,-3.5134,-3.584,-3.5504,-3.6098,-3.7267,-3.6281,-3.6769,-3.8719,-3.8469,-3.8873,-4.0015,-3.9746,-3.9861,-4.0419,-4.0496,-4.0558,-4.0769,-4.1437,-4.1983,-4.214,-4.2194,-4.2525,-4.3218,-4.3796,-4.2994,-4.0446,-4.0192,-4.0436,-4.0976,-4.1172,-4.0664,-3.9844,-3.9062,-3.8301,-3.7422,-3.6621,-3.6191,-3.6211,-3.6094,-3.5996,-3.5996,-3.5996,-3.6055,-3.6172,-3.6138,-3.6105,-3.6321,-3.6653,-3.6693,-3.6052,-3.595,-3.5972,-3.6073,-3.6752,-3.734,-3.7261,-3.6543,-3.6189,-3.7066,-3.6354,-3.5799,-3.5306,-3.4211,-3.3467,-3.3043,-3.2166,-3.0885,-3.0648,-3.0834,-3.0424,-3.0373,-3.0373,-3.0386,-3.0386,-3.0367,-3.0373,-3.0373,-3.033,-3.0279,-3.024,-3.0206,-3.0211,-3.0204,-3.0204,-3.0204,-3.0204,-3.0176,-3.0098,-2.9996,-2.988,-2.9698,-3.4773,-3.507,-3.4488,-3.4562,-3.5008,-3.4494,-3.4587,-3.5027,-3.442,-3.4544,-3.4897,-3.4488,-3.4569,-3.5213,-3.6012,-3.6253,-3.6179,-3.6811,-3.6458,-3.5349,-3.5313,-3.5008,-3.4677,-3.486,-3.5204,-3.5493,-3.5538,-3.5676,-3.6154,-3.6346,-3.7077,-3.8315,-3.8796,-3.9411,-4.0304,-4.0246,-4.0285,-4.0485,-4.0565,-4.0942,-4.1509,-4.1886,-4.2394,-4.302,-4.3101,-4.3289,-4.3576,-4.3833,-4.3695,-4.2717,-4.2002,-4.1483,-4.125,-4.1191,-4.0801,-3.9961,-3.9141,-3.8535,-3.8027,-3.6875,-3.6387,-3.6816,-3.6387,-3.5996,-3.5946,-3.5945,-3.6226,-3.6616,-3.6806,-3.7032,-3.7481,-3.7347,-3.6765,-3.6031,-3.6004,-3.6166,-3.6588,-3.6965,-3.7317,-3.7762,-3.7102,-3.6817,-3.6706,-3.6251,-3.5653,-3.5422,-3.4714,-3.398,-3.3731,-3.2609,-3.1173,-3.1462,-3.1519,-3.0802,-3.0398,-3.0398,-3.0398,-3.0398,-3.0392,-3.0367,-3.0355,-3.0318,-3.0266,-3.0213,-3.0218,-3.0211,-3.0204,-3.0204,-3.0204,-3.0204,-3.0091,-2.998,-2.9828,-2.9716,-2.9475,-3.4506,-3.4952,-3.4804,-3.4822,-3.4952,-3.481,-3.4829,-3.4841,-3.4457,-3.4439,-3.4841,-3.486,-3.5014,-3.5572,-3.6681,-3.6983,-3.6835,-3.7541,-3.7192,-3.6388,-3.6457,-3.5949,-3.5268,-3.5391,-3.5567,-3.5396,-3.5804,-3.5801,-3.5827,-3.6654,-3.7507,-3.8104,-3.8873,-3.9708,-4.04,-4.015,-4.0208,-4.0519,-4.0921,-4.1473,-4.1912,-4.2795,-4.3439,-4.395,-4.4083,-4.4222,-4.462,-4.4452,-4.4081,-4.3569,-4.2832,-4.2031,-4.1308,-4.1191,-4.0781,-3.9961,-3.9394,-3.9023,-3.8516,-3.7578,-3.7187,-3.7207,-3.6758,-3.6348,-3.6117,-3.6186,-3.6737,-3.6988,-3.7381,-3.7847,-3.8073,-3.7571,-3.7088,-3.6923,-3.6562,-3.6412,-3.6576,-3.6807,-3.7199,-3.7394,-3.7022,-3.6615,-3.682,-3.6122,-3.5712,-3.5391,-3.4763,-3.4558,-3.4424,-3.2884,-3.1795,-3.1948,-3.1654,-3.0815,-3.0482,-3.0482,-3.0418,-3.0399,-3.0373,-3.0367,-3.0336,-3.0305,-3.026,-3.0213,-3.0218,-3.0204,-3.0204,-3.0204,-3.0204,-3.0169,-3.0003,-2.9864,-2.9725,-2.9514,-2.9275,-3.4265,-3.4401,-3.5064,-3.4971,-3.455,-3.5052,-3.4847,-3.4309,-3.4234,-3.4216,-3.442,-3.5126,-3.551,-3.5733,-3.7145,-3.7541,-3.7089,-3.7856,-3.7686,-3.7427,-3.7442,-3.7045,-3.5935,-3.6332,-3.6362,-3.6126,-3.6558,-3.6442,-3.65,-3.7488,-3.8065,-3.8469,-3.9084,-3.9758,-4.0285,-3.99,-3.9927,-4.0771,-4.1493,-4.2108,-4.2668,-4.3778,-4.4562,-4.4909,-4.4779,-4.5225,-4.5586,-4.5273,-4.4414,-4.3711,-4.2871,-4.2051,-4.1348,-4.1191,-4.0762,-4.0098,-3.9785,-3.9492,-3.8887,-3.8594,-3.8301,-3.7812,-3.7598,-3.7007,-3.6492,-3.6805,-3.7308,-3.7341,-3.7957,-3.8408,-3.8437,-3.7782,-3.765,-3.783,-3.7441,-3.6777,-3.6209,-3.6524,-3.6958,-3.6867,-3.6212,-3.6176,-3.6294,-3.6161,-3.5583,-3.5532,-3.4982,-3.4886,-3.4494,-3.3269,-3.2391,-3.2083,-3.1513,-3.0687,-3.0572,-3.0572,-3.0483,-3.0413,-3.038,-3.0336,-3.0318,-3.0286,-3.0253,-3.0239,-3.0218,-3.0204,-3.0204,-3.0204,-3.0204,-3.0113,-2.998,-2.9822,-2.9635,-2.9357,-2.9101,-3.4587,-3.5194,-3.468,-3.4773,-3.5083,-3.4711,-3.4383,-3.4216,-3.4216,-3.4216,-3.4401,-3.5138,-3.5863,-3.6458,-3.7466,-3.8111,-3.8427,-3.8691,-3.8608,-3.8369,-3.8547,-3.8254,-3.7521,-3.764,-3.7547,-3.743,-3.7584,-3.7603,-3.7738,-3.8315,-3.9008,-3.9084,-3.9765,-4.0323,-4.0466,-4.0546,-4.0728,-4.1545,-4.1959,-4.2806,-4.3786,-4.4496,-4.5238,-4.5718,-4.5325,-4.5469,-4.5762,-4.4785,-4.3906,-4.3535,-4.2832,-4.1933,-4.1367,-4.1191,-4.082,-4.0234,-3.9961,-3.9844,-3.957,-3.9121,-3.8827,-3.9051,-3.8521,-3.7831,-3.6952,-3.7564,-3.7968,-3.8117,-3.8714,-3.9204,-3.9107,-3.9057,-3.8695,-3.8371,-3.8095,-3.7624,-3.6922,-3.6811,-3.6917,-3.6701,-3.6187,-3.5762,-3.5963,-3.5865,-3.5577,-3.5532,-3.5399,-3.5232,-3.4424,-3.3474,-3.2917,-3.2365,-3.1743,-3.1135,-3.1377,-3.1314,-3.1084,-3.0829,-3.0662,-3.0362,-3.035,-3.0279,-3.0246,-3.0239,-3.0211,-3.0204,-3.0204,-3.0204,-3.0185,-3.0072,-2.9929,-2.9725,-2.9513,-2.922,-2.8996,-3.4469,-3.4866,-3.481,-3.4829,-3.4866,-3.4841,-3.4599,-3.4271,-3.4216,-3.4216,-3.4494,-3.5479,-3.6309,-3.6798,-3.7875,-3.8729,-3.9053,-3.9351,-3.9399,-3.9383,-3.959,-3.9514,-3.9273,-3.9046,-3.8873,-3.8257,-3.845,-3.843,-3.8411,-3.913,-3.9669,-3.9457,-4.0477,-4.1108,-4.1314,-4.1521,-4.1809,-4.2177,-4.2931,-4.3697,-4.4147,-4.515,-4.5697,-4.6126,-4.5801,-4.5723,-4.5527,-4.4453,-4.3594,-4.3027,-4.2305,-4.168,-4.1308,-4.1191,-4.0937,-4.0644,-4.0508,-4.0508,-4.0351,-4.0117,-3.9822,-3.978,-3.933,-3.8614,-3.8101,-3.8412,-3.8811,-3.9007,-3.9501,-4.0004,-3.9559,-3.9468,-3.9191,-3.8992,-3.8798,-3.8586,-3.8102,-3.7425,-3.6709,-3.6419,-3.5936,-3.5731,-3.5676,-3.5633,-3.5585,-3.5528,-3.5502,-3.5257,-3.437,-3.3506,-3.3109,-3.2596,-3.2044,-3.1805,-3.2183,-3.2158,-3.1851,-3.1538,-3.1168,-3.074,-3.0395,-3.033,-3.0246,-3.0232,-3.0204,-3.0204,-3.0204,-3.0185,-3.013,-2.9977,-2.983,-2.9617,-2.9395,-2.9141,-2.8927,-3.4216,-3.4253,-3.4996,-3.4847,-3.4383,-3.4934,-3.4822,-3.4253,-3.4216,-3.4216,-3.4531,-3.5974,-3.6625,-3.7039,-3.8339,-3.9059,-3.9266,-3.9559,-3.9777,-4.0043,-4.0219,-4.0281,-4.0246,-4.0131,-3.9727,-3.8565,-3.913,-3.9073,-3.9065,-3.9669,-4.0073,-3.9861,-4.1016,-4.1687,-4.2093,-4.275,-4.2879,-4.2687,-4.3585,-4.4061,-4.3977,-4.513,-4.5878,-4.5918,-4.5625,-4.5273,-4.4687,-4.3769,-4.2988,-4.2422,-4.1641,-4.1269,-4.1191,-4.1191,-4.1191,-4.1152,-4.1094,-4.1035,-4.1016,-4.0976,-4.0716,-4.0024,-3.9973,-3.948,-3.892,-3.919,-3.9503,-3.9729,-4.0062,-4.0448,-3.9791,-3.981,-3.9791,-3.9694,-3.9694,-3.9578,-3.9094,-3.7928,-3.7019,-3.6187,-3.5897,-3.5718,-3.5662,-3.5614,-3.556,-3.5521,-3.5475,-3.514,-3.4234,-3.3529,-3.3102,-3.291,-3.2429,-3.2638,-3.3035,-3.3062,-3.2774,-3.1999,-3.1628,-3.1085,-3.0548,-3.0305,-3.0233,-3.0225,-3.0204,-3.0204,-3.0204,-3.0204,-3.0113,-2.9913,-2.9742,-2.958,-2.9334,-2.9071,-2.8899,-3.4216,-3.4216,-3.4346,-3.4309,-3.4234,-3.4364,-3.4364,-3.4234,-3.4216,-3.4216,-3.4439,-3.5919,-3.6643,-3.7089,-3.8358,-3.9163,-3.9402,-3.972,-3.9973,-4.0233,-4.0397,-4.0489,-4.0496,-4.0496,-4.0246,-4.0227,-4.0208,-4.0035,-3.9996,-4.0342,-4.0439,-4.0539,-4.1451,-4.2041,-4.2427,-4.287,-4.3441,-4.3211,-4.3721,-4.3769,-4.3854,-4.4547,-4.5214,-4.5156,-4.4726,-4.4238,-4.3691,-4.2539,-4.1836,-4.2246,-4.1601,-4.1269,-4.1191,-4.1191,-4.1191,-4.1191,-4.1191,-4.117,-4.1142,-4.1116,-4.1001,-4.0785,-4.0638,-4.0246,-3.9774,-3.9981,-4.0111,-3.9983,-4.0274,-4.0719,-4.0623,-4.0468,-4.0545,-4.0565,-4.041,-3.9965,-3.8876,-3.8218,-3.7574,-3.669,-3.6168,-3.5704,-3.5662,-3.562,-3.5572,-3.5509,-3.5435,-3.4903,-3.3998,-3.3415,-3.2987,-3.2904,-3.2864,-3.3357,-3.3927,-3.387,-3.3615,-3.246,-3.1865,-3.1354,-3.0829,-3.0387,-3.0207,-3.0218,-3.0204,-3.0204,-3.0204,-3.0197,-3.0049,-2.9845,-2.9698,-2.9532,-2.9262,-2.9014,-2.8899,-3.4216,-3.4216,-3.4216,-3.4216,-3.4216,-3.4216,-3.4216,-3.4216,-3.4216,-3.4216,-3.4569,-3.5491,-3.6067,-3.6513,-3.7745,-3.8857,-3.9561,-3.9891,-4.0129,-4.0347,-4.0457,-4.0496,-4.0496,-4.0496,-4.0496,-4.0477,-4.0496,-4.0496,-4.0496,-4.0477,-4.0735,-4.1343,-4.2142,-4.2847,-4.3355,-4.3898,-4.387,-4.377,-4.3617,-4.3417,-4.316,-4.3887,-4.4277,-4.418,-4.3926,-4.3496,-4.291,-4.2441,-4.1797,-4.1719,-4.1387,-4.123,-4.1191,-4.1191,-4.1191,-4.1191,-4.1169,-4.1142,-4.1087,-4.1072,-4.0994,-4.092,-4.0883,-4.0703,-4.0388,-4.0487,-4.0565,-4.041,-4.039,-4.0797,-4.0777,-4.0797,-4.0797,-4.0797,-4.0797,-4.0172,-3.9282,-3.894,-3.8121,-3.7135,-3.6303,-3.582,-3.5673,-3.5645,-3.5598,-3.5522,-3.5429,-3.4716,-3.3832,-3.3415,-3.307,-3.3295,-3.3467,-3.4197,-3.4658,-3.4596,-3.4282,-3.3179,-3.2205,-3.1674,-3.1053,-3.0584,-3.0308,-3.0211,-3.0204,-3.0176,-3.015,-3.0121,-2.9953,-2.9777,-2.9589,-2.9375,-2.9174,-2.8991,-2.8875,-3.4216,-3.4216,-3.4216,-3.4216,-3.4216,-3.4216,-3.4216,-3.4216,-3.4216,-3.4216,-3.4327,-3.5083,-3.5547,-3.595,-3.7205,-3.8639,-3.977,-4.0062,-4.0267,-4.0449,-4.0508,-4.0496,-4.0496,-4.0496,-4.0496,-4.0496,-4.0496,-4.0496,-4.0531,-4.0542,-4.105,-4.1798,-4.277,-4.3613,-4.4195,-4.4487,-4.4236,-4.3677,-4.3423,-4.3038,-4.2768,-4.3047,-4.3437,-4.3437,-4.3437,-4.3008,-4.2246,-4.2031,-4.1719,-4.1426,-4.123,-4.1191,-4.1191,-4.1191,-4.1191,-4.117,-4.1139,-4.1106,-4.1054,-4.1006,-4.0933,-4.0868,-4.0873,-4.0821,-4.0794,-4.0719,-4.0777,-4.0797,-4.0797,-4.0797,-4.0797,-4.0797,-4.0797,-4.0797,-4.0758,-4.0468,-3.9752,-3.9133,-3.8398,-3.7425,-3.6439,-3.595,-3.5828,-3.5637,-3.559,-3.5541,-3.543,-3.4838,-3.4024,-3.3637,-3.3447,-3.3795,-3.4235,-3.5037,-3.5365,-3.5257,-3.4776,-3.3884,-3.2885,-3.2159,-3.144,-3.0748,-3.0484,-3.0185,-3.0106,-3.0057,-3.0049,-3.0003,-2.982,-2.9626,-2.9416,-2.9241,-2.9093,-2.898,-2.8887,-3.4216,-3.4216,-3.4216,-3.4216,-3.4216,-3.4234,-3.4216,-3.4216,-3.4216,-3.4216,-3.4253,-3.5045,-3.5436,-3.6013,-3.7454,-3.8787,-3.964,-4.0082,-4.033,-4.0481,-4.0496,-4.0496,-4.0496,-4.0496,-4.0496,-4.0496,-4.0496,-4.0496,-4.0542,-4.0615,-4.1222,-4.2157,-4.2961,-4.3681,-4.4047,-4.4343,-4.4106,-4.2863,-4.2575,-4.2485,-4.2397,-4.2461,-4.2539,-4.2539,-4.25,-4.2246,-4.1601,-4.1504,-4.1328,-4.1269,-4.1191,-4.1191,-4.1191,-4.1191,-4.1152,-4.1122,-4.1085,-4.1037,-4.0968,-4.092,-4.0893,-4.0843,-4.0814,-4.0815,-4.0803,-4.0797,-4.0797,-4.0797,-4.0797,-4.0797,-4.0797,-4.0797,-4.0797,-4.0797,-4.0797,-4.039,-3.981,-3.9791,-3.8998,-3.816,-3.7303,-3.6491,-3.6027,-3.5786,-3.5583,-3.5528,-3.5361,-3.4788,-3.4262,-3.3869,-3.3696,-3.4007,-3.4563,-3.5365,-3.5596,-3.5566,-3.5232,-3.4462,-3.3408,-3.2505,-3.1759,-3.0986,-3.0346,-3.009,-3.0029,-3.0029,-3.0084,-2.9988,-2.9738,-2.9513,-2.9314,-2.9181,-2.9044,-2.8964,-2.8905,-3.4655,-3.4234,-3.4748,-3.4655,-3.429,-3.4711,-3.4655,-3.4271,-3.4216,-3.4216,-3.4265,-3.4569,-3.5317,-3.6444,-3.7883,-3.902,-3.989,-4.025,-4.0397,-4.0481,-4.0496,-4.0496,-4.0496,-4.0496,-4.0496,-4.0496,-4.0512,-4.0571,-4.0621,-4.0868,-4.1474,-4.3078,-4.3071,-4.3445,-4.3793,-4.3702,-4.3172,-4.2456,-4.1995,-4.1671,-4.1677,-4.1699,-4.1738,-4.1719,-4.1758,-4.1523,-4.1308,-4.1191,-4.1191,-4.1191,-4.1191,-4.1191,-4.1191,-4.1152,-4.1115,-4.1035,-4.0997,-4.0968,-4.0921,-4.0877,-4.0837,-4.0821,-4.0797,-4.0797,-4.0797,-4.0797,-4.0797,-4.0797,-4.0797,-4.0797,-4.0797,-4.0797,-4.0797,-4.0797,-4.0797,-4.0642,-4.0294,-4.0255,-3.9881,-3.9024,-3.8187,-3.7388,-3.6551,-3.5993,-3.5757,-3.5566,-3.5419,-3.5007,-3.4545,-3.4129,-3.4058,-3.4148,-3.4802,-3.5565,-3.5578,-3.556,-3.5509,-3.4751,-3.3386,-3.2562,-3.1946,-3.1265,-3.0608,-3.0163,-3.0063,-3.0076,-3.0143,-2.9851,-2.9512,-2.9334,-2.9206,-2.9093,-2.9017,-2.8952,-2.8881,-3.5231,-3.4866,-3.5089,-3.4915,-3.4599,-3.5231,-3.5157,-3.4587,-3.455,-3.442,-3.4309,-3.4525,-3.5508,-3.6938,-3.8102,-3.9134,-4.0186,-4.0397,-4.0481,-4.0496,-4.0496,-4.0496,-4.0496,-4.0496,-4.0496,-4.0496,-4.0564,-4.0775,-4.0933,-4.1056,-4.1842,-4.3843,-4.284,-4.3025,-4.3485,-4.3177,-4.2396,-4.1971,-4.1454,-4.1206,-4.1189,-4.123,-4.125,-4.123,-4.1211,-4.1191,-4.1191,-4.1191,-4.1191,-4.1191,-4.1191,-4.1191,-4.1169,-4.1121,-4.1066,-4.0987,-4.0941,-4.0912,-4.0877,-4.0837,-4.0803,-4.0797,-4.0797,-4.0797,-4.0797,-4.0797,-4.0797,-4.0797,-4.0797,-4.0797,-4.0797,-4.0797,-4.0797,-4.0797,-4.0797,-4.0797,-4.0777,-4.0623,-4.0268,-3.945,-3.8742,-3.8356,-3.748,-3.6483,-3.5963,-3.5669,-3.5419,-3.5174,-3.4866,-3.4494,-3.4559,-3.4642,-3.4956,-3.5566,-3.5541,-3.5515,-3.5476,-3.5002,-3.3646,-3.2664,-3.2075,-3.1495,-3.0885,-3.0508,-3.0281,-3.0288,-3.047,-2.9876,-2.9291,-2.9174,-2.9093,-2.9055,-2.8975,-2.8929,-2.8858,-3.5919,-3.6402,-3.4952,-3.481,-3.5417,-3.5454,-3.5491,-3.5306,-3.538,-3.4971,-3.4476,-3.507,-3.6023,-3.7111,-3.825,-3.9308,-4.0233,-4.0406,-4.0481,-4.0496,-4.0496,-4.0496,-4.0496,-4.0504,-4.0519,-4.0523,-4.048,-4.092,-4.1412,-4.0876,-4.1533,-4.226,-4.2242,-4.242,-4.2604,-4.2469,-4.1893,-4.1507,-4.1144,-4.1109,-4.1131,-4.1152,-4.1191,-4.1191,-4.1191,-4.1191,-4.1191,-4.1191,-4.1191,-4.1191,-4.1191,-4.1172,-4.1122,-4.1088,-4.1022,-4.0953,-4.0907,-4.0872,-4.0825,-4.0821,-4.0803,-4.0797,-4.0797,-4.0797,-4.0797,-4.0797,-4.0797,-4.0797,-4.0797,-4.0797,-4.0797,-4.0797,-4.0797,-4.0797,-4.0797,-4.0797,-4.0797,-4.0797,-4.0384,-3.9746,-3.9296,-3.9,-3.8318,-3.7308,-3.6433,-3.6087,-3.5598,-3.5342,-3.5328,-3.5085,-3.52,-3.5284,-3.5297,-3.5502,-3.5455,-3.5393,-3.53,-3.4877,-3.3881,-3.2987,-3.2286,-3.1696,-3.1086,-3.1137,-3.0979,-3.088,-3.0672,-3.0117,-2.9614,-2.9195,-2.8987,-2.8975,-2.8952,-2.8905,-2.8834,-3.6569,-3.5943,-3.577,-3.5925,-3.6235,-3.6253,-3.5956,-3.564,-3.6012,-3.5789,-3.5039,-3.5973,-3.6708,-3.7553,-3.8907,-3.9842,-4.0345,-4.043,-4.0489,-4.0496,-4.0496,-4.0496,-4.0519,-4.0586,-4.0641,-4.0514,-4.0297,-4.0481,-4.1151,-4.0643,-4.0878,-4.1317,-4.1667,-4.2002,-4.2103,-4.1911,-4.1447,-4.1276,-4.1107,-4.1111,-4.1112,-4.1152,-4.1191,-4.1191,-4.1191,-4.1191,-4.1191,-4.1191,-4.1191,-4.1191,-4.1191,-4.1152,-4.1085,-4.1044,-4.0984,-4.0912,-4.0858,-4.0831,-4.0796,-4.0797,-4.0797,-4.0797,-4.0797,-4.0797,-4.0797,-4.0797,-4.0797,-4.0797,-4.0797,-4.0797,-4.0797,-4.0797,-4.0797,-4.0797,-4.0784,-4.0778,-4.0778,-4.0765,-4.0713,-4.0146,-3.9973,-3.9817,-3.9006,-3.8125,-3.7276,-3.6524,-3.5978,-3.5541,-3.5469,-3.5442,-3.5455,-3.5427,-3.5415,-3.5352,-3.5312,-3.5226,-3.5107,-3.4613,-3.4054,-3.3308,-3.2548,-3.1857,-3.1409,-3.1528,-3.1701,-3.1622,-3.1248,-3.0498,-2.9936,-2.9432,-2.9122,-2.8964,-2.8929,-2.8888,-2.8718,-3.7243,-3.6253,-3.6296,-3.6495,-3.6705,-3.6959,-3.6593,-3.6049,-3.6439,-3.624,-3.5591,-3.6529,-3.7305,-3.8105,-3.9376,-4.0266,-4.0422,-4.0489,-4.0489,-4.0496,-4.0496,-4.0519,-4.0593,-4.0578,-4.0526,-4.0314,-4.0005,-4.0069,-4.0526,-3.9976,-4.0415,-4.0924,-4.1129,-4.1537,-4.1636,-4.1486,-4.11,-4.1105,-4.1108,-4.1132,-4.1132,-4.1172,-4.1191,-4.1191,-4.1191,-4.1191,-4.1191,-4.1191,-4.1172,-4.1172,-4.1172,-4.1113,-4.1061,-4.1007,-4.0941,-4.0878,-4.0837,-4.0797,-4.0797,-4.0797,-4.0797,-4.0797,-4.0797,-4.0797,-4.0797,-4.0797,-4.0797,-4.0797,-4.0797,-4.0797,-4.0797,-4.0797,-4.0739,-4.0707,-4.0626,-4.0612,-4.0653,-4.066,-4.0726,-4.0604,-4.0435,-4.0142,-3.9438,-3.8473,-3.7175,-3.6407,-3.5869,-3.5476,-3.5367,-3.5364,-3.5398,-3.5361,-3.5312,-3.5223,-3.5141,-3.4973,-3.4821,-3.4695,-3.4132,-3.3568,-3.2846,-3.2249,-3.1955,-3.2146,-3.2287,-3.2309,-3.1978,-3.1464,-3.0539,-2.9622,-2.9342,-2.9032,-2.8791,-2.8706,-2.8513,-3.7838,-3.7652,-3.6235,-3.6086,-3.6723,-3.7503,-3.7299,-3.6569,-3.6551,-3.6247,-3.5826,-3.6714,-3.7659,-3.8619,-3.9747,-4.03,-4.0465,-4.0496,-4.0496,-4.0496,-4.0496,-4.0559,-4.0514,-4.0461,-4.0123,-3.9684,-3.9353,-3.9318,-3.9736,-3.9618,-4.0146,-4.0794,-4.1012,-4.1148,-4.1168,-4.1134,-4.1104,-4.111,-4.1111,-4.1152,-4.1172,-4.1191,-4.1191,-4.1191,-4.1191,-4.1191,-4.1191,-4.1191,-4.1172,-4.1141,-4.1138,-4.1066,-4.0957,-4.0928,-4.0883,-4.0814,-4.0809,-4.0797,-4.0797,-4.0797,-4.0797,-4.0797,-4.0797,-4.0797,-4.0797,-4.0797,-4.0797,-4.0797,-4.0797,-4.0797,-4.0797,-4.0784,-4.0694,-4.0633,-4.0557,-4.0512,-4.0542,-4.0527,-4.0579,-4.0605,-4.0434,-4.0175,-3.9593,-3.8742,-3.7172,-3.6226,-3.5707,-3.5416,-3.5258,-3.5239,-3.5246,-3.5226,-3.5168,-3.5054,-3.4917,-3.4691,-3.4531,-3.4465,-3.4236,-3.3713,-3.3506,-3.3235,-3.303,-3.2919,-3.2923,-3.3012,-3.2816,-3.2504,-3.1427,-3.0381,-2.9508,-2.9101,-2.8797,-2.8495,-2.8295,-3.7578,-3.7113,-3.7089,-3.6941,-3.6718,-3.6383,-3.6408,-3.6556,-3.621,-3.6093,-3.6672,-3.7607,-3.8314,-3.9071,-3.9759,-4.0318,-4.0442,-4.0496,-4.0496,-4.0477,-4.0389,-4.0162,-4.0011,-3.9799,-3.9504,-3.8831,-3.8502,-3.8586,-3.8963,-3.8977,-3.9467,-4.0112,-4.0855,-4.109,-4.1112,-4.1099,-4.1107,-4.1109,-4.1131,-4.1172,-4.1191,-4.1191,-4.1191,-4.1191,-4.1191,-4.1191,-4.1191,-4.1191,-4.1172,-4.1114,-4.1108,-4.102,-4.0924,-4.0903,-4.0872,-4.0821,-4.0797,-4.0797,-4.0797,-4.0797,-4.0797,-4.0797,-4.0797,-4.0797,-4.0797,-4.0797,-4.0797,-4.0797,-4.0797,-4.0797,-4.0797,-4.0765,-4.0687,-4.0666,-4.0598,-4.0519,-4.0504,-4.0403,-4.0394,-4.0351,-4.0247,-3.9729,-3.9184,-3.8461,-3.7109,-3.6171,-3.5646,-3.5253,-3.5041,-3.5034,-3.5025,-3.5009,-3.4973,-3.487,-3.473,-3.4487,-3.4333,-3.4286,-3.4203,-3.3969,-3.3863,-3.3837,-3.3725,-3.3416,-3.3566,-3.3697,-3.3348,-3.2908,-3.2118,-3.1207,-3.0386,-2.9598,-2.9241,-2.8694,-2.8075,-3.7535,-3.6458,-3.7448,-3.7429,-3.6742,-3.642,-3.6402,-3.621,-3.5559,-3.5864,-3.6923,-3.7627,-3.8261,-3.8884,-3.9391,-3.9938,-3.9996,-3.9727,-3.9977,-3.9965,-3.974,-3.9387,-3.9132,-3.9034,-3.8675,-3.8054,-3.7673,-3.769,-3.8118,-3.8141,-3.8824,-3.9819,-4.0639,-4.1013,-4.1115,-4.1102,-4.1129,-4.1131,-4.1172,-4.1191,-4.1191,-4.1191,-4.1191,-4.1191,-4.1191,-4.1191,-4.1191,-4.1191,-4.117,-4.1116,-4.1068,-4.1009,-4.0932,-4.0863,-4.0859,-4.0815,-4.0797,-4.0797,-4.0797,-4.0797,-4.0797,-4.0797,-4.0797,-4.0797,-4.0797,-4.0797,-4.0797,-4.0797,-4.079,-4.0726,-4.0673,-4.0626,-4.0542,-4.05,-4.0362,-4.0276,-4.0302,-4.0212,-4.0138,-4.011,-3.9937,-3.9372,-3.8799,-3.7885,-3.6963,-3.6259,-3.5599,-3.5192,-3.4823,-3.4841,-3.4793,-3.4743,-3.4742,-3.466,-3.452,-3.4291,-3.4191,-3.413,-3.4055,-3.4011,-3.3979,-3.3924,-3.3928,-3.3895,-3.3829,-3.3752,-3.3678,-3.3238,-3.2716,-3.209,-3.1374,-3.0595,-2.9832,-2.8907,-2.7996,-3.7689,-3.5937,-3.7243,-3.7429,-3.6885,-3.7312,-3.6872,-3.5535,-3.4997,-3.5627,-3.6953,-3.6749,-3.7606,-3.8559,-3.8343,-3.8584,-3.9053,-3.8507,-3.8757,-3.8922,-3.8747,-3.8429,-3.8316,-3.8264,-3.784,-3.7459,-3.7147,-3.703,-3.7282,-3.777,-3.857,-3.9663,-4.0659,-4.0995,-4.11,-4.1105,-4.113,-4.1151,-4.1191,-4.1191,-4.1191,-4.1191,-4.1191,-4.1191,-4.1191,-4.1191,-4.1191,-4.1191,-4.1152,-4.1111,-4.105,-4.0963,-4.0893,-4.0843,-4.0815,-4.0797,-4.0797,-4.0797,-4.0797,-4.0797,-4.0797,-4.0797,-4.0797,-4.0797,-4.0797,-4.079,-4.079,-4.0771,-4.0733,-4.0571,-4.0469,-4.0362,-4.0248,-4.0091,-3.9912,-3.9931,-4.0012,-3.9992,-3.9913,-3.9821,-3.9687,-3.9293,-3.8871,-3.8016,-3.6857,-3.6321,-3.5627,-3.487,-3.4591,-3.4674,-3.4591,-3.4424,-3.4431,-3.4443,-3.4298,-3.4166,-3.4105,-3.4068,-3.4049,-3.3998,-3.3998,-3.3985,-3.3947,-3.3913,-3.3847,-3.377,-3.3715,-3.3688,-3.3561,-3.2871,-3.1935,-3.0995,-3.0069,-2.8803,-2.7879,-3.7517,-3.6495,-3.748,-3.7429,-3.6811,-3.6978,-3.6439,-3.5603,-3.6005,-3.6448,-3.6412,-3.7661,-3.7972,-3.8247,-3.8101,-3.8154,-3.818,-3.818,-3.818,-3.814,-3.7964,-3.7719,-3.754,-3.7354,-3.6954,-3.6629,-3.6431,-3.6505,-3.6755,-3.734,-3.859,-3.978,-4.0639,-4.0998,-4.1102,-4.1107,-4.113,-4.1151,-4.1191,-4.1191,-4.1191,-4.1191,-4.1191,-4.1191,-4.1191,-4.1191,-4.1191,-4.1191,-4.1152,-4.1109,-4.1044,-4.0979,-4.0893,-4.0848,-4.0797,-4.0797,-4.0797,-4.0797,-4.0797,-4.0797,-4.0797,-4.0797,-4.0797,-4.0797,-4.0797,-4.079,-4.0759,-4.0694,-4.0612,-4.0454,-4.0238,-4.0082,-3.9984,-3.9848,-3.9713,-3.9713,-3.9799,-3.9747,-3.9664,-3.959,-3.9439,-3.9301,-3.8872,-3.7761,-3.6702,-3.6242,-3.5634,-3.4801,-3.4374,-3.4458,-3.4469,-3.4281,-3.4233,-3.4305,-3.4245,-3.4105,-3.4055,-3.4036,-3.4011,-3.3985,-3.3972,-3.3959,-3.3934,-3.3908,-3.3855,-3.3834,-3.3807,-3.3726,-3.355,-3.3041,-3.2163,-3.1219,-3.0216,-2.9088,-2.8009,-3.6742,-3.598,-3.7318,-3.7795,-3.7615,-3.7318,-3.6918,-3.6677,-3.6656,-3.6448,-3.6348,-3.7069,-3.7525,-3.7428,-3.7135,-3.7103,-3.743,-3.7046,-3.7046,-3.7413,-3.7289,-3.6832,-3.6565,-3.657,-3.6419,-3.6096,-3.6003,-3.6117,-3.6463,-3.7633,-3.8942,-3.9312,-4.0426,-4.0981,-4.1104,-4.1108,-4.111,-4.1151,-4.1172,-4.1191,-4.1191,-4.1191,-4.1191,-4.1191,-4.1191,-4.1191,-4.1191,-4.1191,-4.1172,-4.1109,-4.1044,-4.0979,-4.0912,-4.0848,-4.0797,-4.0797,-4.0797,-4.0797,-4.0797,-4.0797,-4.0797,-4.0797,-4.079,-4.0784,-4.0784,-4.0778,-4.0687,-4.0598,-4.0462,-4.0292,-4.0053,-3.9851,-3.9742,-3.9648,-3.9597,-3.9556,-3.952,-3.9483,-3.9421,-3.9363,-3.9272,-3.9205,-3.8547,-3.7405,-3.6575,-3.6209,-3.5522,-3.4581,-3.4233,-3.4281,-3.4316,-3.4233,-3.4197,-3.4209,-3.4136,-3.4074,-3.4036,-3.4011,-3.4011,-3.3985,-3.3959,-3.3959,-3.3972,-3.3947,-3.3881,-3.3788,-3.3652,-3.348,-3.3252,-3.2768,-3.2359,-3.1631,-3.0728,-2.9716,-2.8692,-3.5696,-3.4439,-3.6736,-3.7986,-3.8729,-3.8061,-3.7803,-3.7878,-3.6596,-3.6226,-3.6298,-3.6005,-3.6332,-3.6538,-3.6135,-3.6173,-3.6346,-3.6135,-3.6199,-3.6598,-3.6262,-3.5946,-3.5966,-3.5896,-3.6072,-3.6041,-3.6043,-3.6139,-3.662,-3.7711,-3.8708,-3.8786,-4.0289,-4.1077,-4.1106,-4.1107,-4.1113,-4.1172,-4.1191,-4.1191,-4.1191,-4.1191,-4.1191,-4.1191,-4.1191,-4.1191,-4.1191,-4.1191,-4.1169,-4.1108,-4.1037,-4.0961,-4.0898,-4.084,-4.0808,-4.0809,-4.0796,-4.0803,-4.0797,-4.0797,-4.0797,-4.0797,-4.079,-4.0778,-4.0771,-4.068,-4.0583,-4.0394,-4.0257,-4.0023,-3.9765,-3.9571,-3.9458,-3.9402,-3.937,-3.9357,-3.9357,-3.9305,-3.9272,-3.9205,-3.9178,-3.9091,-3.8771,-3.7705,-3.6658,-3.6237,-3.5347,-3.4309,-3.4136,-3.4148,-3.4161,-3.4191,-3.4173,-3.4148,-3.4099,-3.4049,-3.4011,-3.3998,-3.3998,-3.3998,-3.3985,-3.3998,-3.4036,-3.385,-3.3643,-3.3532,-3.339,-3.3166,-3.2954,-3.2713,-3.2326,-3.1932,-3.1184,-3.03,-2.9437,-3.5175,-3.4309,-3.5547,-3.6532,-3.7312,-3.7726,-3.7043,-3.5785,-3.6033,-3.6254,-3.6468,-3.6945,-3.6692,-3.5846,-3.5654,-3.5692,-3.5673,-3.5699,-3.5654,-3.5843,-3.5669,-3.5706,-3.571,-3.5857,-3.5962,-3.5991,-3.6088,-3.6433,-3.7148,-3.8102,-3.8982,-3.9546,-4.0641,-4.1097,-4.1107,-4.1107,-4.1133,-4.1191,-4.1191,-4.1191,-4.1191,-4.1191,-4.1191,-4.1191,-4.1191,-4.1191,-4.1191,-4.1166,-4.1139,-4.1101,-4.097,-4.0902,-4.0828,-4.0821,-4.0809,-4.0804,-4.0804,-4.08,-4.0796,-4.0803,-4.0797,-4.0797,-4.079,-4.0771,-4.0687,-4.0557,-4.0394,-4.0193,-3.9984,-3.972,-3.9513,-3.9338,-3.9213,-3.9173,-3.9151,-3.9178,-3.9205,-3.9165,-3.9124,-3.911,-3.9082,-3.8906,-3.866,-3.7933,-3.6956,-3.5911,-3.4862,-3.4086,-3.4074,-3.4068,-3.4086,-3.4099,-3.4124,-3.4099,-3.4049,-3.4023,-3.3985,-3.3998,-3.4011,-3.4011,-3.3998,-3.3934,-3.3855,-3.3574,-3.3375,-3.3288,-3.3075,-3.2682,-3.2486,-3.2386,-3.2214,-3.1829,-3.1686,-3.1004,-3.0175,-3.3577,-3.3305,-3.4432,-3.5621,-3.6675,-3.7267,-3.6873,-3.6205,-3.6549,-3.6677,-3.65,-3.6714,-3.6346,-3.5538,-3.55,-3.55,-3.5488,-3.5508,-3.5566,-3.5575,-3.5636,-3.5728,-3.5799,-3.5884,-3.5944,-3.6031,-3.6515,-3.7054,-3.7869,-3.8687,-3.9507,-3.9956,-4.0641,-4.1116,-4.1106,-4.1108,-4.113,-4.1191,-4.1191,-4.1191,-4.1191,-4.1191,-4.1191,-4.1191,-4.1191,-4.1191,-4.1172,-4.1142,-4.1083,-4.1028,-4.0921,-4.0849,-4.0828,-4.0833,-4.0863,-4.0839,-4.0823,-4.0796,-4.08,-4.0796,-4.0797,-4.0797,-4.0797,-4.0778,-4.06,-4.045,-4.0165,-3.9984,-3.9778,-3.9555,-3.937,-3.9178,-3.9151,-3.9124,-3.911,-3.9124,-3.9137,-3.9124,-3.9096,-3.9096,-3.8994,-3.8734,-3.8303,-3.7466,-3.6513,-3.566,-3.4544,-3.412,-3.409,-3.4122,-3.4103,-3.4023,-3.4049,-3.4023,-3.3972,-3.3972,-3.3985,-3.3998,-3.4023,-3.3985,-3.3947,-3.3807,-3.3643,-3.3437,-3.3243,-3.3078,-3.2813,-3.2453,-3.2197,-3.2109,-3.193,-3.1693,-3.1598,-3.1523,-3.083,-3.1849,-3.2147,-3.3343,-3.4903,-3.6422,-3.6625,-3.6715,-3.687,-3.7137,-3.6947,-3.6433,-3.5839,-3.5538,-3.55,-3.55,-3.55,-3.5488,-3.5489,-3.552,-3.5591,-3.5722,-3.5774,-3.5853,-3.5948,-3.6108,-3.6537,-3.7116,-3.7892,-3.8747,-3.9351,-3.9761,-4.0073,-4.0564,-4.1116,-4.1104,-4.1108,-4.1133,-4.1191,-4.1191,-4.1191,-4.1191,-4.1191,-4.1191,-4.1191,-4.1191,-4.1191,-4.1191,-4.1138,-4.1064,-4.0981,-4.0887,-4.0849,-4.0839,-4.0859,-4.0883,-4.0883,-4.0869,-4.0839,-4.0801,-4.08,-4.0796,-4.0803,-4.0797,-4.07,-4.0537,-4.027,-4.0005,-3.9757,-3.9571,-3.9377,-3.92,-3.9115,-3.9115,-3.9101,-3.9101,-3.9101,-3.9101,-3.9082,-3.9064,-3.905,-3.886,-3.86,-3.7822,-3.6985,-3.6297,-3.5408,-3.4842,-3.4437,-3.4197,-3.4289,-3.4326,-3.4131,-3.3972,-3.3947,-3.3908,-3.3934,-3.3959,-3.3972,-3.3985,-3.3947,-3.3868,-3.3652,-3.3502,-3.3415,-3.322,-3.2878,-3.262,-3.2301,-3.2073,-3.184,-3.1764,-3.1653,-3.1559,-3.1447,-3.1276,-3.1608,-3.273,-3.2444,-3.3596,-3.5467,-3.527,-3.5162,-3.5382,-3.563,-3.5661,-3.576,-3.5654,-3.55,-3.55,-3.55,-3.55,-3.5488,-3.5489,-3.5532,-3.5596,-3.571,-3.5791,-3.5962,-3.6166,-3.6481,-3.7122,-3.7935,-3.8772,-3.9412,-3.9743,-4.0151,-4.068,-4.0777,-4.1058,-4.1066,-4.1069,-4.1113,-4.1172,-4.1191,-4.1191,-4.1191,-4.1191,-4.1191,-4.1191,-4.1191,-4.1191,-4.1172,-4.1094,-4.1039,-4.0976,-4.0883,-4.0853,-4.0873,-4.0912,-4.093,-4.0952,-4.0939,-4.0883,-4.0868,-4.0821,-4.0792,-4.0809,-4.0765,-4.0647,-4.0423,-4.0127,-3.9855,-3.9559,-3.9352,-3.9178,-3.9059,-3.9096,-3.9101,-3.9101,-3.9101,-3.9101,-3.9087,-3.9013,-3.8925,-3.8883,-3.8789,-3.8251,-3.7464,-3.6924,-3.6675,-3.5947,-3.5459,-3.5037,-3.4494,-3.4499,-3.4472,-3.4204,-3.3905,-3.3926,-3.3908,-3.3934,-3.3941,-3.3959,-3.3895,-3.3775,-3.3625,-3.3426,-3.3298,-3.3223,-3.288,-3.247,-3.2231,-3.2179,-3.188,-3.1681,-3.1657,-3.1596,-3.1487,-3.1312,-3.1064]},{"header":{"parameterUnit":"m.s-1","parameterCategory":1,"la1":31.0,"la2":29.5877,"lo1":-88.7671,"lo2":-86.6584,"dy":0.0162,"dx":0.0185,"nx":115,"ny":88,"refTime":"2023-08-26T18:00:00:Z","depth":0,"parameterNumber":3,"parameterNumberName":"V-component_of_WINDS"},"data":[0.0,0.0,0.0,0.0,0.0,0.0,0.0,0.0,0.0,0.0,0.0,0.0,0.0,0.0,0.0,0.0,0.0,0.0,0.0,0.0,0.0,0.0,0.0,0.0,0.0,0.0,0.0,0.0,0.0,0.0,0.0,0.0,0.0,0.0,0.0,0.0,0.0,0.0,0.0,0.0,0.0,0.0,0.0,0.0,0.0,0.0,0.0,0.0,0.0,0.0,0.0,0.0,0.0,0.0,0.0,0.0,0.0,0.0,0.0,0.0,0.0,0.0,0.0,0.0,0.0,0.0,0.0,0.0,0.0,0.0,0.0,0.0,0.0,0.0,0.0,0.0,0.0,0.0,0.0,0.0,0.0,0.0,0.0,0.0,0.0,0.0,0.0,0.0,0.0,0.0,0.0,0.0,0.0,0.0,0.0,0.0,0.0,0.0,0.0,0.0,0.0,0.0,0.0,0.0,0.0,0.0,0.0,0.0,0.0,0.0,0.0,0.0,0.0,0.0,0.0,0.0,0.0,0.0,0.0,0.0,0.0,0.0,0.0,0.0,0.0,0.0,0.0,0.0,0.0,0.0,0.0,0.0,0.0,0.0,0.0,0.0,0.0,0.0,0.0,0.0,0.0,0.0,0.0,0.0,0.0,0.0,0.0,0.0,0.0,0.0,0.0,0.0,0.0,0.0,0.0,0.0,0.0,0.0,0.0,0.0,0.0,0.0,0.0,0.0,0.0,0.0,0.0,0.0,0.0,0.0,0.0,0.0,0.0,0.0,0.0,0.0,0.0,0.0,0.0,0.0,0.0,0.0,0.0,0.0,0.0,0.0,0.0,0.0,0.0,0.0,0.0,0.0,0.0,0.0,0.0,0.0,0.0,0.0,0.0,0.0,0.0,0.0,0.0,0.0,0.0,0.0,0.0,0.0,0.0,0.0,0.0,0.0,0.0,0.0,0.0,0.0,0.0,0.0,0.0,0.0,0.0,0.0,0.0,0.0,0.0,0.0,0.0,0.0,0.0,0.0,0.0,0.0,0.0,0.0,0.0,0.0,0.0,0.0,0.0,0.0,0.0,0.0,0.0,0.0,0.0,0.0,0.0,0.0,0.0,0.0,0.0,0.0,0.0,0.0,0.0,0.0,0.0,0.0,0.0,0.0,0.0,0.0,0.0,0.0,0.0,0.0,0.0,0.0,0.0,0.0,0.0,0.0,0.0,0.0,0.0,0.0,0.0,0.0,0.0,0.0,0.0,0.0,0.0,0.0,0.0,0.0,0.0,0.0,0.0,0.0,0.0,0.0,0.0,0.0,0.0,0.0,0.0,0.0,0.0,0.0,0.0,0.0,0.0,0.0,0.0,0.0,0.0,0.0,0.0,0.0,0.0,0.0,0.0,0.0,0.0,0.0,0.0,0.0,0.0,0.0,0.0,0.0,0.0,0.0,0.0,0.0,0.0,0.0,0.0,0.0,0.0,0.0,0.0,0.0,0.0,0.0,0.0,0.0,0.0,0.0,0.0,0.0,0.0,0.0,0.0,0.0,0.0,0.0,0.0,0.0,0.0,0.0,0.0,0.0,0.0,0.0,0.0,0.0,0.0,0.0,0.0,0.0,0.0,0.0,0.0,0.0,0.0,0.0,0.0,0.0,0.0,0.0,0.0,0.0,0.0,0.0,0.0,0.0,0.0,0.0,0.0,0.0,0.0,0.0,0.0,0.0,0.0,0.0,0.0,0.0,0.0,0.0,0.0,0.0,0.0,0.0,0.0,0.0,0.0,0.0,0.0,0.0,0.0,0.0,0.0,0.0,0.0,0.0,0.0,0.0,0.0,0.0,0.0,0.0,0.0,0.0,0.0,0.0,0.0,0.0,0.0,0.0,0.0,0.0,0.0,0.0,0.0,0.0,0.0,0.0,0.0,0.0,0.0,0.0,0.0,0.0,0.0,0.0,0.0,0.0,0.0,0.0,0.0,0.0,0.0,0.0,0.0,0.0,0.0,0.0,0.0,0.0,0.0,0.0,0.0,0.0,0.0,0.0,0.0,0.0,0.0,0.0,0.0,0.0,0.0,0.0,0.0,0.0,0.0,0.0,0.0,0.0,0.0,0.0,0.0,0.0,0.0,0.0,0.0,0.0,0.0,0.0,0.0,0.0,0.0,0.0,0.0,0.0,0.0,0.0,0.0,0.0,0.0,0.0,0.0,0.0,0.0,0.0,0.0,0.0,0.0,0.0,0.0,0.0,0.0,0.0,0.0,0.0,0.0,0.0,0.0,0.0,0.0,0.0,0.0,0.0,0.0,0.0,0.0,0.0,0.0,0.0,0.0,0.0,0.0,0.0,0.0,0.0,0.0,0.0,0.0,0.0,0.0,0.0,0.0,0.0,0.0,0.0,0.0,0.0,0.0,0.0,0.0,0.0,0.0,0.0,0.0,0.0,0.0,0.0,0.0,0.0,0.0,0.0,0.0,0.0,0.0,0.0,0.0,0.0,0.0,0.0,0.0,0.0,0.0,0.0,0.0,0.0,0.0,0.0,0.0,0.0,0.0,0.0,0.0,0.0,0.0,0.0,0.0,0.0,0.0,0.0,0.0,0.0,0.0,0.0,0.0,0.0,0.0,0.0,0.0,0.0,0.0,0.0,0.0,0.0,0.0,0.0,0.0,0.0,0.0,0.0,0.0,0.0,0.0,0.0,0.0,0.0,0.0,0.0,0.0,0.0,0.0,0.0,0.0,0.0,0.0,0.0,0.0,0.0,0.0,0.0,0.0,0.0,0.0,0.0,0.0,0.0,0.0,0.0,0.0,0.0,0.0,0.0,0.0,0.0,0.0,0.0,0.0,0.0,0.0,0.0,0.0,0.0,0.0,0.0,0.0,0.0,0.0,0.0,0.0,0.0,0.0,0.0,0.0,0.0,0.0,0.0,0.0,0.0,0.0,0.0,0.0,0.0,0.0,0.0,0.0,0.0,0.0,0.0,0.0,0.0,0.0,0.0,0.0,0.0,0.0,0.0,0.0,0.0,0.0,0.0,0.0,0.0,0.0,0.0,0.0,0.0,0.0,0.0,0.0,0.0,0.0,0.0,0.0,0.0,0.0,0.0,0.0,0.0,0.0,0.0,0.0,0.0,0.0,0.0,0.0,0.0,0.0,0.0,0.0,0.0,0.0,0.0,0.0,0.0,0.0,0.0,0.0,0.0,0.0,0.0,0.0,0.0,0.0,0.0,0.0,0.0,0.0,0.0,0.0,0.0,0.0,0.0,0.0,0.0,0.0,0.0,0.0,0.0,0.0,0.0,0.0,0.0,0.0,0.0,0.0,0.0,0.0,0.0,0.0,0.0,0.0,0.0,0.0,0.0,0.0,0.0,0.0,0.0,0.0,0.0,0.0,0.0,0.0,0.0,0.0,0.0,0.0,0.0,0.0,0.0,0.0,0.0,0.0,0.0,0.0,0.0,0.0,0.0,0.0,0.0,0.0,0.0,0.0,0.0,0.0,0.0,0.0,0.0,0.0,0.0,0.0,0.0,0.0,0.0,0.0,0.0,0.0,0.0,0.0,0.0,0.0,0.0,0.0,0.0,0.0,0.0,0.0,0.0,0.0,0.0,0.0,0.0,0.0,0.0,0.0,0.0,0.0,0.0,0.0,0.0,0.0,0.0,0.0,0.0,0.0,0.0,0.0,0.0,0.0,0.0,0.0,0.0,0.0,0.0,0.0,0.0,0.0,0.0,0.0,0.0,0.0,0.0,0.0,0.0,0.0,0.0,0.0,0.0,0.0,0.0,0.0,0.0,0.0,0.0,0.0,0.0,0.0,0.0,0.0,0.0,0.0,0.0,0.0,0.0,0.0,0.0,0.0,0.0,0.0,0.0,0.0,0.0,0.0,0.0,0.0,0.0,0.0,0.0,0.0,0.0,0.0,0.0,0.0,0.0,0.0,0.0,0.0,0.0,0.0,0.0,0.0,0.0,0.0,0.0,0.0,0.0,0.0,0.0,0.0,0.0,0.0,0.0,0.0,0.0,0.0,0.0,0.0,0.0,0.0,0.0,0.0,0.0,0.0,0.0,0.0,0.0,0.0,0.0,0.0,0.0,0.0,0.0,0.0,0.0,0.0,0.0,0.0,0.0,0.0,0.0,0.0,0.0,0.0,0.0,0.0,0.0,0.0,0.0,0.0,0.0,0.0,0.0,0.0,0.0,0.0,0.0,0.0,0.0,0.0,0.0,0.0,0.0,0.0,0.0,0.0,0.0,0.0,0.0,0.0,0.0,-0.0385,0.0,0.0,0.0,0.0835,0.0,0.0,0.0,0.0,0.0,0.0,0.0,0.0,0.0,0.0,0.0,0.0,0.0,0.0,0.0,0.0,0.0,0.0,0.0,0.0,0.0,0.0,0.0,0.0,0.0,0.0,0.0,0.0,0.0,0.0,0.0,0.0,0.0,0.0,0.0,0.0,0.0,0.0,0.0,0.0,0.0,0.0,0.0,0.0,0.0,0.0,0.0,0.0,0.0,0.0,0.0,0.0,0.0,0.0,0.0,0.0,0.0,0.0,0.0,0.0,0.0,0.0,0.0,0.0,0.0,0.0,0.0,0.0,0.0,0.0,0.0,0.0,0.0,0.0,0.0,0.0,0.0,0.0,0.0,0.0,0.0,0.0,0.0,0.0,0.0,0.0,0.0,0.0,0.0,0.0,0.0,0.0,0.0,0.0,0.0,0.0,0.0,0.0,0.0,0.0,0.0,0.0,0.0,0.0,0.0,0.0,0.0,0.0,0.0,0.0,-0.024,0.0382,0.0584,0.0742,0.0785,0.0,0.0,0.0,0.0,0.0,0.0,0.0,0.0,0.0,0.0,0.0,0.0,0.0,0.0,0.0,0.0,0.0,0.0,0.0,0.0,0.0,0.0,0.0,0.0,0.0,0.0,0.0,0.0,0.0,0.0,0.0,0.0,0.0,0.0,0.0,0.0,0.0,0.0,0.0,0.0,0.0,0.0,0.0,0.0,0.0,0.0,0.0,0.0,0.0,0.0,0.0,0.0,0.0,0.0,0.0,0.0,0.0,0.0,0.0,0.0,0.0,0.0,0.0,0.0,0.0,0.0,0.0,0.0,0.0,0.0,0.0,0.0,0.0,0.0,0.0,0.0,0.0,0.0,0.0,0.0,0.0,0.0,0.0,0.0,0.0,0.0,0.0,0.0,0.0,0.0,0.0,0.0,0.0,0.0,0.0,0.0,0.0,0.0,0.0,0.0,0.0,0.0,0.0,0.0,0.0,0.0,0.0,0.0,0.0,0.0,0.0,0.0,0.0539,0.0629,0.0652,0.0,0.0,0.0,0.0,0.0,0.0,0.0,0.0,0.0,0.0,0.0,0.0,0.0,0.0,0.0,0.0,0.0,0.0,0.0,0.0,0.0,0.0,0.0,0.0,0.0,0.0,0.0,0.0,0.0,0.0,0.0,0.0,0.0,0.0,0.0,0.0,0.0,0.0,0.0,0.0,0.0,0.0,0.0,0.0,0.0,0.0,0.0,0.0,0.0,0.0,0.0,0.0,0.0,0.0,0.0,0.0,0.0,0.0,0.0,0.0,0.0,0.0,0.0,0.0,0.0,0.0,0.0,0.0,0.0,0.0,0.0,0.0,0.0,0.0,0.0,0.0,0.0,0.0,0.0,0.0,0.0,0.0,0.0,0.0,0.0,0.0,0.0,0.0,0.0,0.0,0.0,0.0,0.0,0.0,0.0,0.0,0.0,0.0,0.0,0.0,0.0,0.0,0.0,0.0,0.0,0.0,0.0,0.0,0.0,0.0,-0.0446,0.0022,0.0292,0.0,0.0494,0.0,0.0,0.0,0.0,0.0,0.0,0.0,0.0,0.0,0.0,0.0,0.0,0.0,0.0,0.0,0.0,0.0,0.0,0.0,0.0,0.0,0.0,0.0,0.0,0.0,0.0,0.0,0.0,0.0,0.0,0.0,0.0,0.0,0.0,0.0,0.0,0.0,0.0,0.0,0.0,0.0,0.0,0.0,0.0,0.0,0.0,0.0,0.0,0.0,0.0,0.0,0.0,0.0,0.0,0.0,0.0,0.0,0.0,0.0,0.0,0.0,0.0,0.0,0.0,0.0,0.0,0.0,0.0,0.0,0.0,0.0,0.0,0.0,0.0,0.0,0.0,0.0,0.0,0.0,0.0,0.0,0.0,0.0,0.0,0.0,0.0,0.0,0.0,0.0,0.0,0.0,0.0,0.0,0.0,0.0,0.0,0.0,0.0,0.0,0.0,0.0,0.0,0.0,0.0,0.0,0.0,0.0,0.0,0.0,0.0,-0.0807,-0.0313,-0.0493,-0.0426,0.0,0.0,0.0,0.0,0.0,0.0,0.0,0.0,0.0,0.0,0.0,0.0,0.0,0.0,0.0,0.0,0.0,0.0,0.0,0.0,0.0,0.0,0.0,0.0,0.0,0.0,0.0,0.0,0.0,0.0,0.0,0.0,0.0,0.0,0.0,0.0,0.0,0.0,0.0,0.0,0.0,0.0,0.0,0.0,0.0,0.0,0.0,0.0,0.0,0.0,0.0,0.0,0.0,0.0,0.0,0.0,0.0,0.0,0.0,0.0,0.0,0.0,0.0,0.0,0.0,0.0,0.0,0.0,0.0,0.0,0.0,0.0,0.0,0.0,0.0,0.0,0.0,0.0,0.0,0.0,0.0,0.0,0.0,0.0,0.0,0.0,0.0,0.0,0.0,0.0,0.0,0.0,0.0,0.0,0.0,0.0,0.0,0.0,0.0,0.0,0.0,0.0,0.0,0.0,0.0,0.0,0.0,0.0,0.0,0.0,-0.152,-0.1169,-0.058,-0.103,-0.103,-0.0514,0.0,0.0,0.0,0.0,0.0,0.0,0.0,0.0,0.0,0.0,0.0,0.0,0.0,0.0,0.0,0.0,0.0,0.0,0.0,0.0,0.0,0.0,0.0,0.0,0.0,0.0,0.0,0.0,0.0,0.0,0.0,0.0,0.0,0.0,0.0,0.0,0.0,0.0,0.0,0.0,0.0,0.0,0.0,0.0,0.0,0.0,0.0,0.0,0.0,0.0,0.0,0.0,0.0,0.0,0.0,0.0,0.0,0.0,0.0,0.0,0.0,0.0,0.0,0.0,0.0,0.0,0.0,0.0,0.0,0.0,0.0,0.0,0.0,0.0,0.0,0.0,0.0,0.0,0.0,0.0,0.0,0.0,0.0,0.0,0.0,0.0,0.0,0.0,0.0,0.0,0.0,0.0,0.0,0.0,0.0,0.0,0.0,0.0,0.0,0.0,0.0,0.0,0.0,0.0,0.0,0.0,0.0,0.0,-0.1986,-0.196,-0.1492,-0.0559,-0.103,-0.1119,0.0,0.0,0.0,0.0,0.0,0.0,0.0,0.0,0.0,0.0,0.0,0.0,0.0,0.0,0.0,0.0,0.0,0.0,0.0,0.0,0.0,0.0,0.0,0.0,0.0,0.0,0.0,0.0,0.0,0.0,0.0,0.0,0.0,0.0,0.0,0.0,0.0,0.0,0.0,0.0,0.0,0.0,0.0,0.0,0.0,0.0,0.0,0.0,0.0,0.0,0.0,0.0,0.0,0.0,0.0,0.0,0.0,0.0,0.0,0.0,0.0,0.0,0.0,0.0,0.0,0.0,0.0,0.0,0.0,0.0,0.0,0.0,0.0,0.0,0.0,0.0,0.0,0.0,0.0,0.0,0.0,0.0,0.0,0.0,0.0,0.0,0.0,0.0,0.0,0.0,0.0,0.0,0.0,0.0,0.0,0.0,0.0,0.0,0.0,0.0,0.0,0.0,0.0,0.0,0.0,0.0,0.0,0.0,0.0,-0.2029,-0.161,-0.1266,-0.0923,-0.1566,-0.1826,0.0,0.0,0.0,0.0,0.0,0.0,0.0,0.0,0.0,0.0,0.0,0.0,0.0,0.0,0.0,0.0,0.0,0.0,0.0,0.0,0.0,0.0,0.0,0.0,0.0,0.0,0.0,0.0,0.0,0.0,0.0,0.0,0.0,0.0,0.0,0.0,0.0,0.0,0.0,0.0,0.0,0.0,0.0,0.0,0.0,0.0,0.0,0.0,0.0,0.0,0.0,0.0,0.0,0.0,0.0,0.0,0.0,0.0,0.0,0.0,0.0,0.0,0.0,0.0,0.0,0.0,0.0,0.0,0.0,0.0,0.0,0.0,0.0,0.0,0.0,0.0,0.0,0.0,0.0,0.0,0.0,0.0,0.0,0.0,0.0,0.0,0.0,0.0,0.0,0.0,0.0,0.0,0.0,0.0,0.0,0.0,0.0,0.0,0.0,0.0,0.0,0.0,0.0,0.0,0.0,0.0,0.0,0.0,0.0,-0.2164,0.0,-0.1245,-0.1134,-0.1926,-0.2234,0.0,0.0,0.0,0.0,0.0,0.0,0.0,0.0,0.0,0.0,0.0,0.0,0.0,0.0,0.0,0.0,0.0,0.0,0.0,0.0,0.0,0.0,0.0,0.0,0.0,0.0,0.0,0.0,0.0,0.0,0.0,0.0,0.0,0.0,0.0,0.0,0.0,0.0,0.0,0.0,0.0,0.0,0.0,0.0,0.0,0.0,0.0,0.0,0.0,0.0,0.0,0.0,0.0,0.0,0.0,0.0,0.0,0.0,0.0,0.0,0.0,0.0,0.0,0.0,0.0,0.0,0.0,0.0,0.0,0.0,0.0,0.0,0.0,0.0,0.0,0.0,0.0,0.0,0.0,0.0,0.0,0.0,0.0,0.0,0.0,0.0,0.0,0.0,0.0,0.0,0.0,0.0,0.0,0.0,0.0,0.0,0.0,0.0,0.0,0.0,0.0,0.0,0.0,0.0,0.0,0.0,0.0,0.0,-0.2749,-0.2499,-0.1994,-0.1542,-0.1162,-0.2049,-0.2319,0.0,0.0,0.0,0.0,0.0,0.0,0.0,0.0,0.0,0.0,0.0,0.0,0.0,0.0,0.0,0.0,0.0,0.0,0.0,0.0,0.0,0.0,0.0,0.0,0.0,0.0,0.0,0.0,0.0,0.0,0.0,0.0,0.0,0.0,0.0,0.0,0.0,0.0,0.0,0.0,0.0,0.0,0.0,0.0,0.0,0.0,0.0,0.0,0.0,0.0,0.0,0.0,0.0,0.0,0.0,0.0,0.0,0.0,0.0,0.0,0.0,0.0,0.0,0.0,0.0,0.0,0.0,0.0,0.0,0.0,0.0,0.0,0.0,0.0,0.0,0.0,0.0,0.0,0.0,0.0,0.0,0.0,0.0,0.0,0.0,0.0,0.0,0.0,0.0,0.0,0.0,0.0,0.0,0.0,0.0,0.0,0.0,0.0,0.0,0.0,0.0,0.0,0.0,0.0,0.0,0.0,0.0,0.0,0.0,-0.2567,-0.2466,-0.2265,-0.2049,-0.2818,-0.3156,0.0,0.0,0.0,0.0,0.0,0.0,0.0,0.0,0.0,0.0,0.0,0.0,0.0,0.0,0.0,0.0,0.0,0.0,0.0,0.0,0.0,0.0,0.0,0.0,0.0,0.0,0.0,0.0,0.0,0.0,0.0,0.0,0.0,0.0,0.0,0.0,0.0,0.0,0.0,0.0,0.0,0.0,0.0,0.0,0.0,0.0,0.0,0.0,0.0,0.0,0.0,0.0,0.0,0.0,0.0,0.0,0.0,0.0,0.0,0.0,0.0,0.0,0.0,0.0,0.0,0.0,0.0,0.0,0.0,0.0,0.0,0.0,0.0,0.0,0.0,0.0,0.0,0.0,0.0,0.0,0.0,0.0,0.0,0.0,0.0,0.0,0.0,0.0,0.0,0.0,0.0,0.0,0.0,0.0,0.0,0.0,0.0,0.0,0.0,0.0,0.0,0.0,0.0,0.0,0.0,0.0,0.0,0.0,0.0,-0.3137,-0.2997,-0.2924,-0.2956,-0.3691,-0.4006,-0.3748,0.0,0.0,0.0,0.0,0.0,0.0,0.0,0.0,0.0,0.0,0.0,0.0,0.0,0.0,0.0,0.0,0.0,0.0,0.0,0.0,0.0,0.0,0.0,0.0,0.0,0.0,0.0,0.0,0.0,0.0,0.0,0.0,0.0,0.0,0.0,0.0,0.0,0.0,0.0,0.0,0.0,0.0,0.0,0.0,0.0,0.0,0.0,0.0,0.0,0.0,0.0,0.0,0.0,0.0,0.0,0.0,0.0,0.0,0.0,0.0,0.0,0.0,0.0,0.0,0.0,0.0,0.0,0.0,0.0,0.0,0.0,0.0,0.0,0.0,0.0,0.0,0.0,0.0,0.0,0.0,0.0,0.0,0.0,0.0,0.0,0.0,0.0,0.0,0.0,0.0,0.0,0.0,0.0,0.0,0.0,0.0,0.0,0.0,0.0,0.0,0.0,0.0,0.0,0.0,0.0,0.0,0.0,0.0,-0.4147,-0.3727,-0.3656,-0.3999,-0.4694,-0.486,0.0,0.0,0.0,0.0,0.0,0.0,0.0,0.0,0.0,0.0,0.0,0.0,0.0,0.0,0.0,0.0,0.0,0.0,0.0,0.0,0.0,0.0,0.0,0.0,0.0,0.0,0.0,0.0,0.0,0.0,0.0,0.0,0.0,0.0,0.0,0.0,0.0,0.0,0.0,0.0,0.0,0.0,0.0,0.0,0.0,0.0,0.0,0.0,0.0,0.0,0.0,0.0,0.0,0.0,0.0,0.0,0.0,0.0,0.0,0.0,0.0,0.0,0.0,0.0,0.0,0.0,0.0,0.0,0.0,0.0,0.0,0.0,0.0,0.0,0.0,0.0,0.0,0.0,0.0,0.0,0.0,0.0,0.0,0.0,0.0,0.0,0.0,0.0,0.0,0.0,0.0,0.0,0.0,0.0,0.0,0.0,0.0,0.0,0.0,0.0,0.0,0.0,0.0,0.0,0.0,0.0,0.0,0.0,0.0,-0.5037,-0.5536,-0.5591,-0.5186,-0.5637,-0.5637,0.0,0.0,0.0,0.0,0.0,0.0,0.0,0.0,0.0,0.0,0.0,0.0,0.0,0.0,0.0,0.0,0.0,0.0,0.0,0.0,0.0,0.0,0.0,0.0,0.0,0.0,0.0,0.0,0.0,0.0,0.0,0.0,0.0,0.0,0.0,0.0,0.0,0.0,0.0,0.0,0.0,0.0,0.0,0.0,0.0,0.0,0.0,0.0,0.0,0.0,0.0,0.0,0.0,0.0,0.0,0.0,0.0,0.0,0.0,0.0,0.0,0.0,0.0,0.0,0.0,0.0,0.0,0.0,0.0,0.0,0.0,0.0,0.0,0.0,0.0,0.0,0.0,0.0,0.0,0.0,0.0,0.0,0.0,0.0,0.0,0.0,0.0,0.0,0.0,0.0,0.0,0.0,0.0,0.0,0.0,0.0,0.0,0.0,0.0,0.0,0.0,0.0,0.0,0.0,0.0,0.0,0.0,0.0,-0.5048,-0.5843,-0.6324,-0.6571,-0.6581,-0.6669,-0.6513,0.0,0.0,0.0,0.0,0.0,0.0,0.0,0.0,0.0,0.0,0.0,0.0,0.0,0.0,0.0,0.0,0.0,0.0,0.0,0.0,0.0,0.0,0.0,0.0,0.0,0.0,0.0,0.0,0.0,0.0,0.0,0.0,0.0,0.0,0.0,0.0,0.0,0.0,0.0,0.0,0.0,0.0,0.0,0.0,0.0,0.0,0.0,0.0,0.0,0.0,0.0,0.0,0.0,0.0,0.0,0.0,0.0,0.0,0.0,0.0,0.0,0.0,0.0,0.0,0.0,0.0,0.0,0.0,0.0,0.0,0.0,0.0,0.0,0.0,0.0,0.0,0.0,0.0,0.0,0.0,0.0,0.0,0.0,0.0,0.0,0.0,0.0,0.0,0.0,0.0,0.0,0.0,0.0,0.0,0.0,0.0,0.0,0.0,0.0,0.0,0.0,0.0,0.0,0.0,0.0,0.0,0.0,0.0,-0.5293,-0.6498,-0.654,-0.6993,-0.7848,-0.7628,-0.7333,0.0,0.0,0.0,0.0,0.0,0.0,0.0,0.0,0.0,0.0,0.0,0.0,0.0,0.0,0.0,0.0,0.0,0.0,0.0,0.0,0.0,0.0,0.0,0.0,0.0,0.0,0.0,0.0,0.0,0.0,0.0,0.0,0.0,0.0,0.0,0.0,0.0,0.0,0.0,0.0,0.0,0.0,0.0,0.0,0.0,0.0,0.0,0.0,0.0,0.0,0.0,0.0,0.0,0.0,0.0,0.0,0.0,0.0,0.0,0.0,0.0,0.0,0.0,0.0,0.0,0.0,0.0,0.0,0.0,0.0,0.0,0.0,0.0,0.0,0.0,0.0,0.0,0.0,0.0,0.0,0.0,0.0,0.0,0.0,0.0,0.0,0.0,0.0,0.0,0.0,0.0,0.0,0.0,0.0,0.0,0.0,0.0,0.0,0.0,0.0,0.0,0.0,0.0,0.0,0.0,0.0,0.0,0.0,-0.6217,-0.6669,-0.7244,-0.7681,-0.7901,-0.7628,-0.7305,0.0,0.0,0.0,0.0,0.0,0.0,0.0,0.0,0.0,0.0,0.0,0.0,0.0,0.0,0.0,0.0,0.0,0.0,0.0,0.0,0.0,0.0,0.0,0.0,0.0,0.0,0.0,0.0,0.0,0.0,0.0,0.0,0.0,0.0,0.0,0.0,0.0,0.0,0.0,0.0,0.0,0.0,0.0,0.0,0.0,0.0,0.0,0.0,-0.0295,0.0,0.0,0.0,0.0,0.0,0.0,0.0,0.0,0.0,0.0,0.0,0.0,0.0,0.0,0.0,0.0,0.0,0.0,0.0,0.0,0.0,0.0,0.0,0.0,0.0,0.0,0.0,0.0,0.0,0.0,0.0,0.0,0.0,0.0,0.0,0.0,0.0,0.0,0.0,0.0,0.0,0.0,0.0,0.0,0.0,0.0,0.0,0.0,0.0,0.0,0.0,0.0,0.0,0.0,0.0,0.0,0.0,0.0,0.0,-0.6801,-0.7285,-0.7705,-0.7981,-0.8109,-0.7735,-0.7357,0.0,0.0,0.0,0.0,0.0,0.0,0.0,0.0,0.0,0.0,0.0,0.0,0.0,0.0,0.0,0.0,0.0,0.0,0.0,0.0,0.0,0.0,0.0,0.0,0.0,0.0,0.0,0.0,0.0,0.0,0.0,0.0,0.0,0.0,0.0,0.0,0.0,0.0,0.0,0.0,0.0,0.0,0.0,0.0,0.0,0.0,0.0,0.0,0.0,0.0,0.0,0.0,0.0,0.0,0.0,0.0,0.0,0.0,0.0,0.0,0.0,0.0,0.0,0.0,0.0,0.0,0.0,0.0,0.0,0.0,0.0,0.0,0.0,0.0,0.0,0.0,0.0,0.0,0.0,0.0,0.0,0.0,0.0,0.0,0.0,0.0,0.0,0.0,0.0,0.0,0.0,0.0,0.0,0.0,0.0,0.0,0.0,0.0,0.0,0.0,0.0,0.0,0.0,0.0,0.0,0.0,0.0,-0.6566,-0.7175,-0.7999,-0.7998,-0.8082,-0.8348,-0.78,-0.7393,-0.7198,0.0,0.0,0.0,0.0,0.0,0.0,0.0,0.0,0.0,0.0,0.0,0.0,0.0,0.0,0.0,0.0,0.0,0.0,0.0,0.0,0.0,0.0,0.0,0.0,0.0,0.0,0.0,0.0,0.0,0.0,0.0,0.0,0.0,0.0,0.0,0.0,0.0,0.0,-0.1005,-0.0904,0.0,0.0,0.0,0.0,0.0,0.0,0.0,0.0,-0.0345,0.0,0.0,0.0,0.0,0.0,0.0,0.0,0.0,0.0,0.0,0.0,0.0,0.0,0.0,0.0,0.0,0.0,0.0,0.0,0.0,0.0,0.0,0.0,0.0,0.0,0.0,0.0,0.0,0.0,0.0,0.0,0.0,0.0,0.0,0.0,0.0,0.0,0.0,0.0,0.0,0.0,0.0,0.0,0.0,0.0,0.0,0.0,0.0,0.0,0.0,0.0,0.0,0.0,0.0,0.0,0.0,-0.705,-0.6672,-0.7069,-0.8292,-0.8217,-0.8195,-0.8209,-0.7711,-0.7343,-0.7223,0.0,0.0,0.0,0.0,0.0,0.0,0.0,0.0,0.0,0.0,0.0,0.0,0.0,0.0,0.0,0.0,0.0,0.0,0.0,0.0,0.0,0.0,0.0,0.0,0.0,0.0,0.0,0.0,0.0,0.0,0.0,0.0,0.0,0.0,0.0,0.0,0.0,0.0,0.0,-0.0836,-0.0783,0.0,0.0,0.0,0.0,0.0,0.0,0.0,0.0,-0.0375,0.0,0.0,0.0,0.0,0.0,0.0,0.0,0.0,0.0,0.0,0.0,0.0,0.0,0.0,0.0,0.0,0.0,0.0,0.0,0.0,0.0,0.0,0.0,0.0,0.0,0.0,0.0,0.0,0.0,0.0,0.0,0.0,0.0,0.0,0.0,0.0,0.0,0.0,0.0,0.0,0.0,0.0,0.0,0.0,0.0,0.0,0.0,0.0,0.0,0.0,0.0,0.0,0.0,0.0,0.0,-0.733,-0.7252,-0.7536,-0.8256,-0.8248,-0.8201,-0.8195,-0.7592,-0.7392,0.0,0.0,0.0,0.0,0.0,0.0,0.0,0.0,0.0,0.0,0.0,0.0,0.0,0.0,0.0,0.0,0.0,0.0,0.0,0.0,0.0,0.0,0.0,0.0,0.0,0.0,0.0,0.0,0.0,0.0,0.0,0.0,0.0,0.0,0.0,0.0,0.0,0.0,0.0,0.0,-0.1143,-0.1096,-0.1265,0.0,0.0,0.0,0.0,0.0,0.0,-0.0629,-0.0314,0.0,0.0,0.0,0.0,0.0,0.0,0.0,0.0,0.0,0.0,0.0,0.0,0.0,0.0,0.0,0.0,0.0,0.0,0.0,0.0,0.0,0.0,0.0,0.0,0.0,0.0,0.0,0.0,0.0,0.0,0.0,0.0,0.0,0.0,0.0,0.0,0.0,0.0,0.0,0.0,0.0,0.0,0.0,0.0,0.0,0.0,0.0,0.0,0.0,0.0,0.0,0.0,0.0,0.0,0.0,-0.7679,-0.7757,-0.7907,-0.8209,-0.8215,-0.8201,-0.8195,-0.7518,-0.7372,0.0,0.0,0.0,0.0,0.0,0.0,0.0,0.0,0.0,0.0,0.0,0.0,0.0,0.0,0.0,0.0,0.0,0.0,0.0,0.0,0.0,0.0,0.0,0.0,0.0,0.0,0.0,0.0,0.0,0.0,0.0,0.0,0.0,0.0,0.0,0.0,0.0,0.0,0.0,0.0,0.0,-0.1458,-0.1671,-0.167,0.0,0.0,0.0,0.0,-0.0879,-0.0513,0.0,0.0,0.0,0.0,0.0,0.0,0.0,0.0,0.0,0.0,0.0,0.0,0.0,0.0,0.0,0.0,0.0,0.0,0.0,0.0,0.0,0.0,0.0,0.0,0.0,0.0,0.0,0.0,0.0,0.0,0.0,0.0,0.0,0.0,0.0,0.0,0.0,0.0,0.0,0.0,0.0,0.0,0.0,0.0,0.0,0.0,0.0,0.0,0.0,0.0,0.0,0.0,0.0,0.0,0.0,0.0,-0.8203,-0.7694,-0.772,-0.8315,-0.8275,-0.8201,-0.8189,-0.7447,-0.7191,0.0,0.0,0.0,0.0,0.0,0.0,0.0,0.0,0.0,0.0,0.0,0.0,0.0,0.0,0.0,0.0,0.0,0.0,0.0,0.0,0.0,0.0,0.0,0.0,0.0,0.0,0.0,0.0,0.0,0.0,0.0,0.0,0.0,0.0,0.0,0.0,0.0,0.0,0.0,0.0,0.0,-0.1663,-0.1698,-0.1661,-0.1542,0.0,0.0,-0.113,-0.0939,-0.0513,0.0,0.0,0.0,0.0,0.0,0.0,0.0,0.0,0.0,0.0,0.0,0.0,0.0,0.0,0.0,0.0,0.0,0.0,0.0,0.0,0.0,0.0,0.0,0.0,0.0,0.0,0.0,0.0,0.0,0.0,0.0,0.0,0.0,0.0,0.0,0.0,0.0,0.0,0.0,0.0,0.0,0.0,0.0,0.0,0.0,0.0,0.0,0.0,0.0,0.0,0.0,0.0,0.0,0.0,0.0,-0.745,-0.8235,-0.7863,-0.7783,-0.8109,-0.8062,-0.8035,-0.8029,-0.7286,-0.7132,0.0,0.0,0.0,0.0,0.0,0.0,0.0,0.0,0.0,0.0,0.0,0.0,0.0,0.0,0.0,0.0,0.0,0.0,0.0,0.0,0.0,0.0,0.0,0.0,0.0,0.0,0.0,0.0,0.0,0.0,0.0,0.0,0.0,0.0,0.0,0.0,0.0,0.0,0.0,0.0,0.0,0.0,-0.2099,-0.2127,0.0,0.0,0.0,-0.1488,-0.0926,0.0,0.0,0.0,0.0,0.0,0.0,0.0,0.0,0.0,0.0,0.0,0.0,0.0,0.0,0.0,0.0,0.0,0.0,0.0,0.0,0.0,0.0,0.0,0.0,0.0,0.0,0.0,0.0,0.0,0.0,0.0,0.0,0.0,0.0,0.0,0.0,0.0,0.0,0.0,0.0,0.0,0.0,0.0,0.0,0.0,0.0,0.0,0.0,0.0,0.0,0.0,0.0,0.0,0.0,0.0,0.0,0.0,-0.8121,-0.7955,-0.7875,-0.7901,-0.7901,-0.7901,-0.7895,-0.732,0.0,0.0,0.0,0.0,0.0,0.0,0.0,0.0,0.0,0.0,0.0,0.0,0.0,0.0,0.0,0.0,0.0,0.0,0.0,0.0,0.0,0.0,0.0,0.0,0.0,0.0,0.0,-0.1206,0.0,0.0,0.0,0.0,0.0,0.0,0.0,0.0,0.0,0.0,0.0,0.0,0.0,0.0,-0.2395,-0.2562,-0.2592,-0.2456,0.0,0.0,-0.1585,-0.0728,-0.0292,0.0161,0.0,0.0,0.0,0.0,0.0,0.0,0.0,0.0,0.0,0.0,0.0,0.0,0.0,0.0,0.0,0.0,0.0,0.0,0.0,0.0,0.0,0.0,0.0,0.0,0.0,0.0,0.0,0.0,0.0,0.0,0.0,0.0,0.0,0.0,0.0,0.0,0.0,0.0,0.0,0.0,0.0,0.0,0.0,0.0,0.0,0.0,0.0,0.0,0.0,0.0,0.0,0.0,0.0,0.0,-0.7655,-0.7901,-0.7783,-0.7783,-0.7901,-0.7901,-0.7901,-0.7901,-0.7671,-0.7544,0.0,0.0,0.0,0.0,0.0,0.0,0.0,0.0,0.0,0.0,0.0,0.0,0.0,0.0,0.0,0.0,0.0,0.0,0.0,0.0,0.0,0.0,0.0,0.0,0.0,0.0,0.0,0.0,0.0,0.0,0.0,0.0,0.0,0.0,0.0,0.0,0.0,0.0,0.0,0.0,0.0,-0.2811,-0.3027,-0.2794,-0.2314,0.0,-0.1304,-0.0995,-0.0194,0.0334,0.0602,0.0537,0.0,0.0,0.0,0.0,0.0,0.0,0.0,0.0,0.0,0.0,0.0,0.0,0.0,0.0,0.0,0.0,0.0,0.0,0.0,0.0,0.0,0.0,0.0,0.0,0.0,0.0,0.0,0.0,0.0,0.0,0.0,0.0,0.0,0.0,0.0,0.0,0.0,0.0,0.0,0.0,0.0,0.0,0.0,0.0,0.0,0.0,0.0,0.0,0.0,0.0,0.0,0.0,0.0,-0.7708,-0.7901,-0.7842,-0.7842,-0.7901,-0.7901,-0.7901,-0.7901,-0.7618,-0.7548,0.0,0.0,0.0,0.0,0.0,0.0,0.0,0.0,0.0,0.0,0.0,0.0,0.0,0.0,0.0,0.0,0.0,0.0,0.0,0.0,0.0,0.0,0.0,0.0,0.0,0.0,0.0,0.0,-0.2054,-0.2124,-0.2094,0.0,0.0,0.0,0.0,0.0,0.0,0.0,0.0,0.0,0.0,-0.3045,-0.2985,-0.2794,0.0,0.0,-0.1604,-0.1158,-0.0167,0.0138,0.0434,0.0918,0.1124,0.0,0.0,0.0,0.0,0.0,0.0,0.0,0.0,0.0,0.0,0.0,0.0,0.0,0.0,0.0,0.0,0.0,0.0,0.0,0.0,0.0,0.0,0.0,0.0,0.0,0.0,0.0,-0.2323,0.0,0.0,0.0,0.0,0.0,0.0,0.0,0.0,0.0,0.0,0.0,0.0,0.0,0.0,0.0,0.0,0.0,0.0,0.0,0.0,0.0,0.0,0.0,0.0,-0.7756,-0.7901,-0.7848,-0.7848,-0.7901,-0.7901,-0.7901,-0.7901,-0.7669,-0.7631,0.0,0.0,0.0,0.0,0.0,0.0,0.0,0.0,0.0,0.0,0.0,0.0,0.0,0.0,0.0,0.0,0.0,0.0,0.0,0.0,0.0,0.0,0.0,0.0,0.0,0.0,0.0,0.0,-0.2428,-0.2519,-0.2598,0.0,0.0,0.0,0.0,0.0,0.0,0.0,0.0,0.0,0.0,-0.2981,-0.2886,-0.2504,-0.2047,-0.1534,-0.1297,-0.0871,0.0112,0.0249,0.0467,0.1077,0.0,0.0,0.0,0.0,0.0,0.0,0.0,0.0,0.0,0.0,0.0,0.0,0.0,0.0,0.0,0.0,0.0,0.0,0.0,0.0,0.0,0.0,0.0,0.0,0.0,0.0,0.0,-0.3487,0.0,0.0,-0.3597,0.0,0.0,0.0,0.0,0.0,0.0,0.0,0.0,0.0,0.0,0.0,0.0,0.0,0.0,0.0,0.0,0.0,0.0,0.0,0.0,0.0,0.0,-0.7783,-0.7901,-0.7783,-0.7783,-0.7901,-0.7901,-0.7901,-0.7901,-0.7895,-0.7836,-0.7723,0.0,0.0,0.0,0.0,0.0,0.0,0.0,0.0,0.0,0.0,0.0,0.0,0.0,0.0,0.0,0.0,0.0,0.0,0.0,0.0,0.0,0.0,0.0,0.0,0.0,0.0,-0.254,-0.2689,-0.2855,0.0,0.0,0.0,0.0,0.0,0.0,0.0,0.0,0.0,-0.3842,-0.3145,-0.2665,-0.2753,-0.1861,-0.0969,-0.0353,-0.0172,0.0168,0.0757,0.0863,0.0863,0.0,0.0,0.0,0.0,0.0,0.0,0.0,0.0,0.0,0.0,0.0,0.0,0.0,0.0,0.0,0.0,0.0,0.0,0.0,0.0,0.0,0.0,0.0,0.0,0.0,0.0,0.0,-0.5801,-0.5444,0.0,0.0,0.0,0.0,0.0,0.0,0.0,0.0,0.0,0.0,0.0,-0.546,-0.5846,0.0,0.0,0.0,0.0,0.0,0.0,0.0,0.0,0.0,0.0,0.0,0.0,-0.7842,-0.7901,-0.7848,-0.7842,-0.7901,-0.7901,-0.7901,-0.7901,-0.7901,-0.7815,-0.7696,0.0,0.0,0.0,0.0,0.0,0.0,0.0,0.0,0.0,0.0,0.0,0.0,0.0,0.0,0.0,0.0,0.0,0.0,0.0,0.0,0.0,0.0,0.0,0.0,0.0,-0.2456,0.0,0.0,0.0,0.0,0.0,0.0,0.0,0.0,0.0,0.0,-0.3518,-0.3554,-0.3206,-0.301,-0.2663,-0.2164,-0.1678,-0.1171,0.0,0.0,0.0,0.0,0.0,0.0,0.0,0.0,0.0,0.0,0.0,0.0,0.0,0.2064,0.2871,0.466,0.5111,0.543,0.6217,0.0,0.0,0.0,0.0,0.0,0.0,0.0,0.0,0.0,0.0,0.0,0.0,0.0,0.0,-0.7139,-0.6772,-0.6745,0.0,0.0,0.0,0.0,0.0,0.0,0.0,0.0,-0.6691,-0.6696,-0.6276,-0.6772,-0.6999,-0.7025,-0.6696,-0.6534,0.0,0.0,0.0,0.0,0.0,0.0,0.0,0.0,-0.8039,-0.8039,-0.8033,-0.8039,-0.8033,-0.7949,-0.7901,-0.7901,-0.7901,-0.7875,-0.7756,-0.7756,-0.7649,0.0,0.0,0.0,0.0,0.0,0.0,0.0,0.0,0.0,0.0,0.0,0.0,0.0,0.0,0.0,0.0,0.0,0.0,0.0,0.0,0.0,0.0,0.0,-0.2458,0.0,0.0,0.0,0.0,0.0,0.0,0.0,0.0,0.0,-0.2824,-0.3216,-0.3289,-0.2635,-0.2422,-0.2135,-0.1574,0.0,0.0,0.0,0.0,0.0,0.0,0.0,0.0978,0.1107,0.1028,0.0977,0.111,0.1112,0.1174,0.1297,0.0,0.0,0.4051,0.4452,0.4831,0.5952,0.6074,0.6075,0.6314,0.6943,0.7726,0.0,0.0,0.0,0.0,-0.7744,0.0,0.0,0.0,-0.7568,-0.7521,0.0,-0.7622,0.0,0.0,0.0,0.0,-0.7643,-0.6966,0.0,0.0,-0.7494,-0.7601,-0.767,-0.7696,-0.7756,-0.7901,-0.7875,-0.7848,-0.7866,-0.7241,-0.7208,0.0,0.0,0.0,0.0,0.0,-0.8291,-0.8303,-0.8297,-0.8331,-0.8319,-0.8051,-0.7913,-0.7901,-0.7901,-0.7901,-0.7901,-0.7901,-0.7768,-0.7521,-0.7532,0.0,0.0,0.0,0.0,0.0,0.0,0.0,0.0,0.0,0.0,0.0,0.0,0.0,0.0,0.0,0.0,0.0,0.0,0.0,0.0,-0.254,0.0,0.0,0.0,0.0,0.0,0.0,0.0,0.0,0.0,-0.252,-0.1747,-0.254,-0.2882,-0.2178,0.0,0.0,0.0,0.0,0.0194,0.0194,0.0473,0.068,0.0709,0.0854,0.1022,0.0994,0.0,0.0,0.0997,0.0992,0.1057,0.1179,0.1216,0.1782,0.3582,0.3824,0.4264,0.5774,0.5998,0.5939,0.5973,0.6402,0.704,-0.8215,0.0,0.0,0.0,0.0,-0.8335,-0.8282,-0.8182,-0.7922,-0.7735,-0.7643,-0.7696,0.0,0.0,0.0,0.0,0.0,0.0,-0.7628,-0.7788,-0.7794,-0.7788,-0.7842,-0.7842,-0.7875,-0.7901,-0.7901,-0.7991,-0.8165,-0.7823,-0.7708,-0.7842,0.0,0.0,0.0,0.0,-0.8381,-0.8584,-0.8596,-0.8596,-0.8596,-0.8337,-0.8087,-0.7907,-0.7901,-0.7901,-0.7901,-0.7901,-0.7815,-0.7649,-0.7741,0.0,0.0,0.0,0.0,0.0,0.0,0.0,0.0,0.0,0.0,0.0,0.0,0.0,0.0,0.0,0.0,0.0,0.0,0.0,-0.1795,-0.2086,-0.2347,0.0,0.0,0.0,0.0,0.0,0.0,0.0,0.0,0.0,-0.0617,-0.1589,-0.2114,0.0,0.0,-0.0908,-0.037,0.0033,0.0265,0.0259,0.0577,0.0,0.0775,0.0887,0.0998,0.1022,0.1045,0.1061,0.1052,0.1068,0.1083,0.1116,0.1253,0.1864,0.3421,0.3756,0.4085,0.4993,0.5692,0.6116,0.6265,0.6486,0.7044,-0.8639,-0.856,-0.856,-0.858,-0.86,-0.86,-0.8521,-0.8368,-0.8135,-0.7922,-0.7788,-0.7783,-0.7788,-0.7788,-0.7875,0.0,0.0,0.0,-0.7901,-0.7907,-0.8003,-0.8003,-0.7913,-0.8009,-0.7997,-0.7907,-0.8003,-0.8135,-0.8291,-0.8265,-0.8207,-0.8201,0.0,-0.8183,-0.8441,-0.8572,-0.8704,-0.8854,-0.886,-0.8831,-0.886,-0.8608,-0.8315,-0.8069,-0.8057,-0.8009,-0.7907,-0.8003,-0.7949,-0.7735,-0.7986,-0.788,0.0,0.0,0.0,0.0,0.0,0.0,0.0,0.0,0.0,0.0,0.0,-0.3095,-0.3123,0.0,0.0,0.0,-0.304,-0.2567,-0.1941,-0.2311,0.0,0.0,0.0,0.0,0.0,0.0,0.0,-0.1275,-0.1184,-0.0825,-0.0141,-0.0697,-0.1067,-0.0709,-0.068,-0.0513,-0.0069,0.0,0.0306,0.0301,0.0596,0.0784,0.0803,0.0941,0.105,0.105,0.1074,0.1093,0.1094,0.1119,0.1138,0.1173,0.1446,0.2064,0.3109,0.3716,0.4405,0.526,0.5864,0.6294,0.64,0.6519,0.6999,-0.8692,-0.8778,-0.8778,-0.8718,-0.8626,-0.8626,-0.8553,-0.8401,-0.8268,-0.8088,-0.7901,-0.7901,-0.7913,-0.7937,-0.7931,0.0,-0.7931,-0.7937,-0.7937,-0.7943,-0.8177,-0.8165,-0.7949,-0.8195,-0.8183,-0.7943,-0.8195,-0.8333,-0.8397,-0.8602,-0.8728,-0.8758,-0.8477,-0.8499,-0.874,-0.8975,-0.9107,-0.9131,-0.9131,-0.9119,-0.9095,-0.8866,-0.8614,-0.8355,-0.8321,-0.8207,-0.7985,-0.8195,-0.8146,-0.7817,-0.8212,-0.7891,-0.6755,0.0,0.0,0.0,0.0,0.0,0.0,0.0,0.0,0.0,0.0,0.0,0.0,0.0,0.0,-0.3704,-0.3727,0.0,-0.2791,-0.2751,0.0,0.0,0.0,-0.174,-0.1226,-0.1613,-0.1454,-0.0218,0.0,0.0,0.0,0.0,0.0,0.0,0.0,0.0,0.0,0.0174,0.0314,0.0313,0.0581,0.0809,0.0838,0.0973,0.1106,0.1107,0.1099,0.1113,0.1116,0.1139,0.1196,0.1195,0.1743,0.2308,0.2553,0.3811,0.5147,0.6141,0.6346,0.6416,0.642,0.642,0.6839,-0.8778,-0.8778,-0.8685,-0.8685,-0.8752,-0.8752,-0.8613,-0.8395,-0.8374,-0.8195,-0.7901,-0.7901,-0.8009,-0.8195,-0.8195,-0.8201,-0.8223,-0.8195,-0.8195,-0.8195,-0.8261,-0.8255,-0.8207,-0.8493,-0.8475,-0.8253,-0.8487,-0.8716,-0.8896,-0.8776,-0.8921,-0.9287,-0.9047,-0.8945,-0.9005,-0.9065,-0.9203,-0.9414,-0.942,-0.9312,-0.9107,-0.9035,-0.8878,-0.862,-0.8614,-0.8584,-0.8524,-0.8555,-0.8555,-0.8443,-0.8143,-0.7823,-0.7527,-0.6533,0.0,0.0,0.0,0.0,0.0,0.0,0.0,0.0,0.0,-0.348,-0.3628,0.0,-0.3567,0.0,-0.336,-0.2645,-0.1473,-0.1474,0.0,0.0,-0.0938,-0.0859,-0.1764,-0.1046,-0.0583,-0.0822,-0.049,-0.0188,0.0,0.0,0.0,0.0,0.0,0.0,0.0,0.0272,0.0477,0.0477,0.0779,0.1009,0.1009,0.1076,0.1109,0.1109,0.1082,0.1087,0.1087,0.1111,0.1132,0.1167,0.1864,0.2589,0.318,0.4233,0.5259,0.605,0.6317,0.642,0.642,0.642,0.6679,-0.8778,-0.8778,-0.8718,-0.8692,-0.8692,-0.8639,-0.8605,-0.858,-0.8505,-0.841,-0.8243,-0.8157,-0.8219,-0.8475,-0.8339,-0.8379,-0.8487,-0.8459,-0.8487,-0.8465,-0.8585,-0.8608,-0.8477,-0.8752,-0.8746,-0.8499,-0.8758,-0.8957,-0.9089,-0.9046,-0.9221,-0.9478,-0.936,-0.9281,-0.9281,-0.9287,-0.936,-0.9478,-0.9478,-0.9438,-0.9293,-0.9281,-0.9032,-0.847,-0.8729,-0.8521,-0.7849,-0.8216,-0.8252,-0.783,-0.7644,-0.7334,-0.6872,-0.6246,-0.564,0.0,0.0,0.0,0.0,0.0,0.0,0.0,0.0,0.0,0.0,0.0,-0.3714,-0.315,-0.3081,-0.2521,-0.1106,-0.1296,-0.1518,-0.1538,-0.0924,-0.0805,-0.1552,-0.0666,-0.015,-0.0536,-0.0231,0.0,0.0,0.0,0.0,0.0,0.0,0.0035,0.014,0.0349,0.0559,0.0663,0.0923,0.1109,0.1109,0.1109,0.1109,0.111,0.1087,0.1095,0.1097,0.1121,0.1212,0.1567,0.2256,0.3109,0.3867,0.4775,0.5624,0.605,0.6317,0.6387,0.642,0.642,0.6613,-0.8778,-0.8778,-0.8752,-0.8712,-0.8632,-0.8452,-0.8532,-0.8781,-0.8648,-0.8616,-0.8615,-0.8451,-0.8493,-0.8692,-0.8471,-0.8542,-0.8752,-0.8758,-0.8758,-0.877,-0.8993,-0.8975,-0.877,-0.9023,-0.9017,-0.8776,-0.9023,-0.9149,-0.9155,-0.9396,-0.9478,-0.9478,-0.9478,-0.9478,-0.9484,-0.9546,-0.952,-0.9484,-0.9417,-0.9385,-0.9388,-0.9385,-0.9018,-0.823,-0.8711,-0.8357,-0.7038,-0.7639,-0.7654,-0.6871,-0.6962,-0.6683,-0.5843,-0.5799,-0.5514,0.0,-0.4882,0.0,0.0,0.0,0.0,0.0,0.0,0.0,0.0,-0.4548,-0.3871,-0.2517,-0.2787,-0.254,-0.1248,-0.1542,-0.1815,-0.1859,-0.1337,-0.0965,-0.0909,-0.038,0.0,0.0,0.0,0.0,0.0,0.0,0.0,0.0,0.0,0.0,0.0293,0.0399,0.0576,0.0834,0.1008,0.1109,0.1109,0.1109,0.1109,0.1112,0.123,0.122,0.1292,0.1455,0.1693,0.2269,0.2965,0.368,0.4436,0.5265,0.5892,0.6119,0.6284,0.6387,0.642,0.642,0.6613,-0.8778,-0.8778,-0.856,-0.8643,-0.8883,-0.8497,-0.8438,-0.8648,-0.8599,-0.8518,-0.8403,-0.856,-0.8633,-0.8716,-0.8878,-0.8975,-0.9023,-0.9023,-0.9017,-0.9023,-0.9071,-0.9065,-0.9041,-0.9306,-0.9293,-0.9053,-0.93,-0.9438,-0.9406,-0.9454,-0.9478,-0.9478,-0.9478,-0.9478,-0.949,0.0,0.0,0.0,-0.9091,-0.8788,-0.87,-0.8783,-0.87,-0.8436,-0.8516,0.0,-0.8164,-0.7757,-0.744,-0.7274,-0.6657,0.0,0.0,0.0,0.0,0.0,0.0,0.0,0.0,0.0,0.0,0.0,-0.5195,-0.514,-0.5147,-0.4412,-0.378,-0.3429,-0.2471,-0.1741,-0.1456,-0.0913,-0.0647,-0.0615,-0.0377,-0.0194,-0.0195,0.0,0.0,0.0,0.0,0.0,0.0,0.0,0.0,0.0,0.0,0.0,0.0264,0.04,0.0495,0.0563,0.0892,0.1076,0.1109,0.1109,0.1142,0.1144,0.1582,0.1944,0.2085,0.2512,0.2859,0.3151,0.368,0.4126,0.4356,0.5203,0.5925,0.5954,0.6218,0.642,0.642,0.642,0.6449,-0.8752,-0.8699,-0.8716,-0.8749,0.0,-0.8685,-0.8728,-0.8838,-0.871,-0.8664,-0.8698,-0.8704,-0.8825,-0.9107,-0.9101,-0.9173,-0.93,-0.9306,-0.9306,-0.9306,-0.9306,-0.9306,-0.9306,-0.945,-0.9444,-0.9312,-0.9418,-0.9478,-0.9478,-0.9478,-0.9478,-0.9478,-0.9478,-0.9576,-0.9715,-0.9835,-0.9835,-0.9709,-0.9431,-0.9031,-0.8538,-0.8581,-0.8247,-0.7512,-0.7772,0.0,0.0,0.0,0.0,0.0,0.0,0.0,0.0,-0.5498,-0.5259,-0.5431,-0.5615,-0.5619,-0.5431,-0.5584,-0.5715,-0.5702,-0.535,-0.5035,-0.4801,-0.3993,-0.3271,-0.2767,-0.2097,-0.1548,-0.107,-0.0585,-0.0297,-0.0298,-0.0115,0.0,0.0,0.0,0.0,0.0,0.0,0.0,0.0,0.0,0.0,0.0,0.0,0.0039,0.0154,0.0369,0.0568,0.0759,0.0951,0.1109,0.1143,0.1411,0.1444,0.1311,0.198,0.2429,0.2289,0.2841,0.3389,0.3769,0.4167,0.4464,0.4837,0.5425,0.5892,0.5925,0.6152,0.6387,0.642,0.642,0.642,-0.8718,-0.8678,-0.8864,-0.8858,-0.8767,-0.8949,-0.9083,-0.9155,-0.8945,0.0,0.0,-0.8921,-0.9071,-0.9426,-0.9251,-0.9262,-0.9504,-0.9478,-0.9478,-0.9478,-0.9478,-0.9478,-0.9478,-0.9478,-0.9478,-0.9484,-0.9532,-0.9558,-0.9484,-0.9526,-0.9532,-0.9484,-0.9478,-0.9672,-0.9955,-0.9839,-0.9789,-0.9824,-0.9641,-0.9152,-0.8397,-0.8223,-0.7615,-0.6429,-0.6957,-0.6699,-0.5624,-0.5976,-0.598,-0.5425,-0.5213,-0.5285,-0.5579,-0.5436,-0.5463,-0.5754,-0.5827,-0.5782,-0.5753,-0.5942,-0.6046,-0.5973,-0.5354,-0.4803,-0.4352,-0.3566,-0.2714,-0.1846,-0.1844,-0.1526,-0.0684,-0.0457,-0.0343,-0.0305,-0.0116,0.0,0.0,0.0,0.0,0.0,0.0,0.0,0.0,0.0,0.0,0.0,0.0,0.0039,0.0116,0.0337,0.0644,0.0996,0.1083,0.1143,0.1344,0.1712,0.1879,0.1712,0.2581,0.3121,0.2806,0.3187,0.3883,0.4456,0.46,0.4857,0.5286,0.566,0.5892,0.5892,0.6152,0.642,0.642,0.642,0.642,-0.8757,-0.8937,-0.8754,-0.8901,-0.9253,-0.9126,-0.9228,-0.945,-0.9388,-0.9256,-0.9107,-0.9312,-0.9312,-0.9167,-0.9366,-0.9448,-0.9478,-0.9478,-0.9478,-0.9478,-0.9478,-0.9478,-0.9478,-0.9478,-0.9478,-0.9528,-0.9745,-0.9733,-0.9564,-0.9745,-0.9712,-0.9546,-0.9478,-0.9763,-1.0167,-0.965,-0.943,-0.954,-0.8562,-0.7976,-0.788,-0.7204,-0.6722,-0.6441,-0.6465,-0.6461,-0.6268,-0.5818,-0.5495,-0.5399,-0.5314,-0.539,-0.5589,-0.5535,-0.5571,-0.5806,-0.5922,-0.5969,-0.5956,-0.6152,-0.6276,-0.6215,-0.5473,-0.4988,-0.4843,-0.3461,-0.2454,-0.2134,-0.1705,-0.1168,-0.0664,-0.0585,-0.0467,-0.0312,-0.0117,0.0,0.0,0.0,0.0,0.0,0.0,0.0,0.0,0.0,0.0,0.0,0.0,0.0114,0.0418,0.052,0.0685,0.098,0.1092,0.1347,0.1779,0.2013,0.2315,0.2848,0.3551,0.4115,0.3988,0.4512,0.5011,0.5357,0.5271,0.5272,0.5399,0.566,0.5859,0.5925,0.6156,0.6387,0.642,0.642,0.642,-0.9064,-0.8942,-0.9225,-0.932,-0.926,-0.959,-0.9817,-0.9937,-0.9937,-0.9709,-0.9336,-0.93,-0.93,-0.9336,-0.9424,-0.9478,-0.949,-0.966,-0.9648,-0.9528,-0.9628,-0.9733,-0.9715,-0.9556,-0.9666,-0.9919,-0.9907,-0.9913,-0.9949,-1.0063,-1.0057,-0.9955,-1.0075,-1.0054,-0.9841,-0.9567,-0.9295,-0.906,-0.8319,-0.7665,-0.7146,-0.6775,-0.635,-0.5885,-0.5885,-0.5892,-0.5977,-0.565,-0.5521,-0.5596,-0.559,-0.5593,-0.564,-0.5633,-0.5664,-0.585,-0.5919,-0.5997,-0.6152,-0.622,-0.6103,-0.5592,-0.4691,-0.3986,-0.3679,-0.2938,-0.2275,-0.1766,-0.1335,-0.1022,-0.0785,-0.066,-0.05,-0.0308,-0.019,-0.0113,0.0,0.0,0.0,0.0,0.0,0.0,0.0,0.0,0.0,0.0,0.0074,0.0261,0.0566,0.0622,0.0747,0.1053,0.1109,0.1401,0.1987,0.248,0.2815,0.3184,0.4154,0.4645,0.4574,0.5002,0.5413,0.5504,0.5498,0.5484,0.5419,0.566,0.5859,0.5925,0.6156,0.6387,0.642,0.642,0.642,-0.9551,-0.9233,-0.9744,-0.9728,-0.9432,-1.0088,-1.0382,-1.0382,-1.0376,-1.0154,-0.9775,-0.9486,-0.9486,-0.9678,-0.969,-0.9697,-0.9721,-0.9901,-0.9856,-0.9727,-0.9901,-0.9991,-0.9979,-0.9787,-0.9907,-1.025,-1.0142,-1.016,-1.0286,-1.0352,-1.0346,-1.0328,-1.0373,-1.013,-0.9509,-0.914,-0.8778,-0.8395,-0.7897,-0.7323,-0.6763,-0.6545,-0.6123,-0.5538,-0.5494,-0.5552,-0.563,-0.5672,-0.5688,-0.5793,-0.5833,-0.5795,-0.5712,-0.5717,-0.5784,-0.5812,-0.5899,-0.5902,-0.5906,-0.5906,-0.5473,-0.4649,-0.3787,-0.3051,-0.2469,-0.2392,-0.208,-0.1335,-0.1021,-0.0862,-0.0739,-0.0614,-0.0453,-0.0263,-0.0221,-0.0146,0.0,0.0,0.0,0.0,0.0,0.0,0.0,0.0,0.0,0.0,0.0218,0.0442,0.0599,0.0764,0.0957,0.1093,0.1226,0.1614,0.2255,0.2984,0.3485,0.3651,0.4622,0.4997,0.4849,0.5163,0.5454,0.5436,0.5487,0.5498,0.5452,0.5657,0.5855,0.5925,0.6152,0.6387,0.642,0.642,0.642,-1.0098,-1.0203,-1.0033,-1.0031,-1.0208,-1.0521,-1.0647,-1.0653,-1.0653,-1.0665,-1.0527,-1.0333,-1.0184,-1.0226,-1.0208,-1.0196,-1.0202,-1.025,-1.0244,-1.022,-1.0244,-1.0262,-1.0292,-1.0238,-1.0244,-1.0352,-1.0515,-1.0509,-1.0382,-1.0515,-1.0533,-1.0282,-0.9832,-0.9592,-0.9332,-0.8125,-0.7484,-0.7591,-0.6652,-0.6515,-0.7041,-0.6281,-0.5844,-0.5762,-0.5755,-0.5766,-0.5783,-0.5779,-0.5789,-0.5813,-0.5935,-0.5902,-0.5735,-0.5809,-0.5809,-0.5631,-0.5786,-0.5628,-0.4924,-0.4686,-0.4217,-0.3398,-0.3163,-0.2735,-0.2038,-0.2117,-0.1883,-0.1139,-0.0904,-0.074,-0.0419,-0.0341,-0.0263,-0.0074,-0.0073,0.0,0.0,0.0,0.0,0.0,0.0,0.0,0.0,0.0,0.0,0.0,0.0323,0.0548,0.0633,0.0988,0.122,0.1324,0.1639,0.2299,0.2948,0.3718,0.4287,0.4924,0.5259,0.5326,0.5272,0.5272,0.5405,0.5416,0.5405,0.5419,0.5509,0.566,0.5892,0.5987,0.6185,0.642,0.642,0.642,0.642,-1.0571,-1.0465,-1.0513,-1.0621,-1.0791,-1.0869,-1.0912,-1.0948,-1.0954,-1.0948,-1.0942,-1.0834,-1.0587,-1.0339,-1.0333,-1.0333,-1.0316,-1.0647,-1.0671,-1.0563,-1.0845,-1.1002,-1.099,-1.0858,-1.0906,-1.1182,-1.1063,-1.0948,-1.091,-1.051,-1.0166,-1.0014,-0.9389,-0.8791,-0.8304,-0.7706,-0.7179,-0.6791,-0.6388,-0.6353,-0.6563,-0.6199,-0.5858,-0.581,-0.58,-0.5847,-0.5925,-0.5899,-0.5979,-0.6102,-0.5977,-0.5857,-0.5666,-0.5562,-0.5515,-0.5437,-0.516,-0.4647,-0.3824,-0.3669,-0.3281,-0.2464,-0.227,-0.1919,-0.1216,-0.1099,-0.0982,-0.0786,-0.0746,-0.0664,-0.0503,-0.0382,-0.0226,-0.0037,-0.011,-0.0146,0.0,0.0,0.0,0.0,0.0,0.0,0.0,0.0,0.0,0.014,0.039,0.0574,0.0722,0.1308,0.1705,0.187,0.2649,0.3226,0.3349,0.3818,0.4556,0.516,0.5395,0.5395,0.5395,0.5395,0.5395,0.5395,0.5395,0.5425,0.5524,0.5723,0.5925,0.6053,0.6218,0.642,0.642,0.642,0.642,-1.1023,-1.0776,-1.0963,-1.1046,-1.1111,-1.1117,-1.1117,-1.1117,-1.1117,-1.1117,-1.1117,-1.1117,-1.0875,-1.0557,-1.0587,-1.0629,-1.0671,-1.102,-1.1128,-1.105,-1.1357,-1.1489,-1.1471,-1.1413,-1.1498,-1.167,-1.1413,-1.1292,-1.1274,-1.0399,-0.9884,-0.9771,-0.8889,-0.805,-0.7561,-0.733,-0.6872,-0.6374,-0.63,-0.632,-0.6337,-0.621,-0.6095,-0.5996,-0.5986,-0.6057,-0.6203,-0.6173,-0.6165,-0.6234,-0.6045,-0.5786,-0.5518,-0.5165,-0.4851,-0.4616,-0.4377,-0.3787,-0.2773,-0.2657,-0.2267,-0.1489,-0.1255,-0.0981,-0.055,-0.0354,-0.0393,-0.0471,-0.0511,-0.051,-0.0505,-0.0344,-0.0151,-0.0037,-0.0147,-0.0146,0.0,0.0,0.0,0.0,0.0,0.0,0.0,0.0,0.0,0.0281,0.0456,0.063,0.0907,0.1509,0.2087,0.2165,0.3337,0.3984,0.3651,0.4184,0.4824,0.5126,0.5395,0.5395,0.5395,0.5395,0.5395,0.5395,0.5395,0.5458,0.5554,0.5756,0.5991,0.6185,0.6354,0.642,0.642,0.642,0.642,-1.1366,-1.131,-1.1156,-1.1093,-1.1117,-1.1117,-1.1117,-1.1117,-1.1117,-1.1117,-1.1117,-1.1117,-1.1099,-1.1069,-1.126,-1.1423,-1.1423,-1.1447,-1.1612,-1.1763,-1.1603,-1.1501,-1.1546,-1.1724,-1.173,-1.1585,-1.1489,-1.1339,-1.1065,-1.0229,-0.9884,-0.9771,-0.8302,-0.7531,-0.7346,-0.6786,-0.638,-0.6334,-0.6334,-0.6371,-0.6487,-0.6494,-0.648,-0.643,-0.6474,-0.6488,-0.6614,-0.6522,-0.6414,-0.6184,-0.5973,-0.5709,-0.5279,-0.4577,-0.3793,-0.3091,-0.3482,-0.3129,-0.188,-0.149,-0.1059,0.0,0.0,0.0,0.0,-0.0196,-0.0275,-0.0314,-0.0314,-0.0312,-0.0306,-0.0153,0.0,0.0,0.0,0.0,0.0,0.0,0.0,0.0,0.0,0.0,0.0,0.0182,0.0287,0.0424,0.0665,0.0981,0.1217,0.1738,0.2241,0.257,0.3402,0.432,0.432,0.4688,0.516,0.5395,0.5395,0.5395,0.5395,0.5395,0.5395,0.5392,0.5425,0.5488,0.5587,0.5785,0.6053,0.6255,0.6354,0.642,0.642,0.642,0.6486,-1.1501,-1.1192,-1.1143,-1.1117,-1.1117,-1.1117,-1.1117,-1.1117,-1.1117,-1.1117,-1.1117,-1.1117,-1.1117,-1.1129,-1.1582,-1.1651,-1.1519,-1.1657,-1.1796,-1.1926,-1.1952,-1.1904,-1.1766,-1.1838,-1.1844,-1.1736,-1.1573,-1.1126,-1.0313,-0.9071,-0.8385,-0.8334,-0.7411,-0.6867,-0.6842,-0.6655,-0.6542,-0.6542,-0.6542,-0.6569,-0.6614,-0.6617,-0.6616,-0.6579,-0.6623,-0.6644,-0.6698,-0.6475,-0.6277,-0.62,-0.5783,-0.5201,-0.4538,-0.3638,-0.2699,-0.196,-0.2065,-0.1712,-0.0748,-0.0518,-0.0359,0.0,0.0,0.0,0.0,-0.0079,-0.0118,0.0,0.0,-0.0117,0.0,-0.0039,0.0,0.0,0.0,0.0,0.0,0.0,0.0,0.0,0.0,0.0,0.0,0.0189,0.0514,0.1025,0.1348,0.1729,0.2332,0.2999,0.3433,0.3657,0.4353,0.499,0.499,0.516,0.5395,0.5395,0.5395,0.5395,0.5395,0.5428,0.5428,0.5458,0.5458,0.562,0.5752,0.5984,0.6251,0.6321,0.642,0.642,0.642,0.642,0.6651,-1.1485,-1.1135,-1.1117,-1.1117,-1.1117,-1.1117,-1.1117,-1.1117,-1.1117,-1.1117,-1.1117,-1.1117,-1.1117,-1.1166,-1.1459,-1.1591,-1.1525,-1.1799,-1.1928,-1.1994,-1.2059,-1.1922,-1.1796,-1.1838,-1.1878,-1.1702,-1.13,-1.0651,-0.9696,-0.825,-0.7645,-0.7733,-0.6896,-0.6498,-0.6556,-0.6651,-0.6702,-0.6702,-0.6702,-0.6719,-0.6766,-0.6686,-0.6675,-0.6655,-0.6636,-0.6587,-0.6583,-0.6328,-0.6147,-0.5981,-0.5328,-0.4402,-0.3282,-0.2761,-0.2003,-0.1085,-0.1172,-0.0928,0.0,0.0,0.0,0.0,0.0,0.0,0.0,0.0,0.0,0.0,0.0,0.0,0.0,0.0,0.0,0.0,0.0,0.0,0.0,0.0,0.0,0.0,0.0,0.0,0.0,0.0,0.0752,0.155,0.1847,0.2316,0.3128,0.3835,0.4317,0.4353,0.4831,0.5259,0.5292,0.5326,0.5395,0.5395,0.5395,0.5395,0.5428,0.5428,0.5458,0.5491,0.5591,0.5785,0.5984,0.6218,0.6321,0.6387,0.642,0.642,0.642,0.642,0.6778,-1.1321,-1.1129,-1.1117,-1.1117,-1.1117,-1.1117,-1.1117,-1.1148,-1.1123,-1.1129,-1.1166,-1.1129,-1.1117,-1.1129,-1.125,-1.1291,-1.1507,-1.176,-1.197,-1.2109,-1.1787,-1.1537,-1.1501,-1.1694,-1.1642,-1.134,-1.0612,-0.9815,-0.9021,-0.7929,-0.7489,-0.7626,-0.6913,-0.6573,-0.6702,-0.6729,-0.6729,-0.6739,-0.6749,-0.68,-0.6866,-0.6708,-0.6641,-0.6719,-0.6539,-0.6354,-0.6319,-0.6204,-0.6038,-0.5597,-0.4777,-0.3313,-0.1921,-0.1962,-0.1674,-0.05,-0.0782,-0.0774,0.0,0.0,0.0,0.0,0.0,0.0,0.0,0.0,0.0,0.0,0.0,0.0,0.0,0.0,0.0,0.0,0.0,0.0,0.0,0.0,0.0,0.0,0.0,0.0,0.0,0.0627,0.1272,0.1918,0.2319,0.2813,0.3604,0.4196,0.4328,0.45,0.4933,0.5362,0.5395,0.5395,0.5395,0.5395,0.5395,0.5395,0.5425,0.5458,0.5521,0.5554,0.5785,0.5951,0.6119,0.6317,0.6354,0.642,0.642,0.642,0.642,0.6519,0.7003,-1.119,-1.1117,-1.1117,-1.1117,-1.1117,-1.1117,-1.1214,-1.1333,-1.1164,-1.1176,-1.1341,-1.1196,-1.1117,-1.1214,-1.1447,-1.1573,-1.1519,-1.1754,-1.1832,-1.1724,-1.1561,-1.1387,-1.1292,-1.1297,-1.1024,-1.0264,-0.899,-0.8317,-0.7995,-0.7168,-0.6803,-0.6958,-0.6774,-0.6712,-0.6812,-0.6953,-0.696,-0.7004,-0.6957,-0.6947,-0.6859,-0.6771,-0.6618,-0.6343,-0.6213,-0.5855,-0.5053,-0.5689,-0.5697,-0.4891,-0.4374,-0.3282,-0.1686,-0.0967,-0.0547,-0.0126,-0.0209,-0.033,0.0,0.0,0.0,0.0,0.0,0.0,0.0,0.0,0.0,0.0,0.0,0.0,0.0,0.0,0.0,0.0,0.0,0.0,0.0,0.0,0.0,0.0835,0.0902,0.1135,0.1707,0.2091,0.2485,0.3185,0.3583,0.4046,0.4785,0.4888,0.5084,0.5247,0.5433,0.5428,0.5425,0.5458,0.5458,0.5458,0.5462,0.5395,0.5425,0.5557,0.5587,0.5749,0.5951,0.6115,0.6284,0.6354,0.6387,0.642,0.642,0.642,0.6453,0.6773,0.726,-1.1208,-1.1117,-1.1117,-1.1117,-1.1117,-1.1117,-1.1208,-1.1303,-1.119,-1.1176,-1.1266,-1.119,-1.1117,-1.1208,-1.1582,-1.1573,-1.1381,-1.1609,-1.1597,-1.1369,-1.1339,-1.123,-1.1049,-1.0775,-1.0079,-0.9091,-0.8009,-0.7454,-0.7295,-0.6684,-0.6477,-0.6729,-0.6729,-0.6807,-0.6937,-0.6997,-0.7034,-0.7085,-0.7092,-0.7013,-0.6849,-0.6799,-0.6373,-0.5655,-0.5472,-0.4861,-0.3934,-0.456,-0.4624,-0.3892,-0.3336,-0.2334,-0.0904,0.0,0.0,0.0,0.0,0.0,0.0,0.0,0.0,0.0,0.0,0.0,0.0,0.0,0.0,0.0,0.0,0.051,0.0,0.0,0.0475,0.0,0.0,0.0157,0.0354,0.0481,0.0942,0.1579,0.1798,0.2117,0.257,0.2938,0.3429,0.4087,0.4454,0.4901,0.5493,0.5508,0.5545,0.5511,0.5513,0.5498,0.5491,0.5491,0.5524,0.5524,0.5491,0.5462,0.5425,0.5624,0.5752,0.5984,0.6185,0.6251,0.6387,0.6387,0.642,0.642,0.6453,0.6613,0.6745,0.7068,0.7619,-1.1315,-1.1148,-1.1117,-1.1129,-1.1154,-1.1092,-1.1148,-1.116,-1.1117,-1.1141,-1.1166,-1.1098,-1.1135,-1.1202,-1.1471,-1.1465,-1.123,-1.1501,-1.1522,-1.1248,-1.1089,-1.0952,-1.0818,-1.0024,-0.9005,-0.7986,-0.7506,-0.7139,-0.6739,-0.6479,-0.6525,-0.6827,-0.6783,-0.6854,-0.7011,-0.6964,-0.6984,-0.7082,-0.7095,-0.6969,-0.6777,-0.6563,-0.5947,-0.4708,-0.4388,-0.3814,-0.2975,-0.2823,-0.2818,-0.2562,-0.1843,-0.1015,0.0,0.0,0.0,0.0,0.0,0.0,0.0,0.0,0.0,0.0,0.0,0.0,0.0,0.0,0.0,0.0,0.1025,0.1419,0.1387,0.14,0.1362,0.1259,0.0706,0.0589,0.122,0.1364,0.1794,0.2483,0.2676,0.2689,0.2999,0.3301,0.3763,0.4296,0.4694,0.5188,0.5492,0.5636,0.5481,0.5473,0.5541,0.5502,0.5458,0.5458,0.5495,0.5495,0.5491,0.5458,0.5458,0.569,0.5954,0.6152,0.6317,0.6387,0.642,0.642,0.642,0.642,0.6552,0.6811,0.7167,0.7554,0.8166,-1.1298,-1.1395,-1.1164,-1.1188,-1.1333,-1.1208,-1.1238,-1.1339,-1.1184,-1.1182,-1.1297,-1.1164,-1.1232,-1.1399,-1.1657,-1.1736,-1.1712,-1.1916,-1.1802,-1.1358,-1.0754,-1.0411,-0.9943,-0.8813,-0.7966,-0.7463,-0.6948,-0.6532,-0.6416,-0.645,-0.6579,-0.6756,-0.6841,-0.6949,-0.7061,-0.7051,-0.7058,-0.7048,-0.6925,-0.6805,-0.6482,-0.5654,-0.5065,-0.4569,-0.3723,-0.279,-0.1807,-0.1148,-0.1192,-0.1772,-0.0916,-0.0272,0.0,0.0,0.0,0.0,0.0,0.0,0.0,0.0,0.0,0.0,0.0,0.0,0.0902,0.0941,0.1305,0.1799,0.2251,0.2387,0.2416,0.2366,0.2289,0.2125,0.1493,0.1342,0.1958,0.222,0.2528,0.3345,0.3491,0.3788,0.4263,0.4612,0.4813,0.5057,0.5304,0.5572,0.5758,0.5713,0.5532,0.5583,0.5593,0.55,0.5428,0.5428,0.5428,0.5428,0.5462,0.5491,0.5557,0.5756,0.602,0.6284,0.6354,0.6387,0.642,0.642,0.642,0.642,0.6843,0.7232,0.7679,0.8102,0.8871,-1.117,-1.1315,-1.1266,-1.1273,-1.1315,-1.131,-1.1317,-1.1279,-1.1196,-1.119,-1.1279,-1.1285,-1.1377,-1.1558,-1.1874,-1.2017,-1.1968,-1.2198,-1.1816,-1.0908,-0.9811,-0.913,-0.8712,-0.7846,-0.7398,-0.6961,-0.6595,-0.6393,-0.6358,-0.6504,-0.6614,-0.6719,-0.6854,-0.6957,-0.7078,-0.7034,-0.7045,-0.6962,-0.6573,-0.6198,-0.603,-0.4829,-0.3896,-0.3411,-0.26,-0.1786,-0.0876,-0.0291,-0.0337,-0.0665,0.0,0.0,0.0,0.0,0.0,0.0,0.0,0.0,0.0,0.0,0.0,0.0,0.0,0.0,0.1064,0.1343,0.1724,0.2465,0.2983,0.327,0.3373,0.3287,0.3204,0.3068,0.2677,0.2586,0.2999,0.3058,0.35,0.4095,0.4423,0.4536,0.5216,0.5398,0.5497,0.5526,0.5623,0.5783,0.5876,0.5724,0.5606,0.5633,0.5617,0.5538,0.5512,0.5512,0.5535,0.5531,0.5458,0.5491,0.5657,0.5822,0.6053,0.6284,0.6354,0.642,0.642,0.642,0.642,0.6585,0.7134,0.7619,0.8069,0.8742,0.9512,-1.1092,-1.1178,-1.1351,-1.1321,-1.1226,-1.1389,-1.1323,-1.1148,-1.1123,-1.1117,-1.1184,-1.1413,-1.1495,-1.1567,-1.2024,-1.2198,-1.2006,-1.23,-1.1477,-1.0336,-0.8946,-0.7959,-0.7638,-0.7557,-0.7109,-0.6573,-0.6487,-0.6467,-0.6477,-0.661,-0.6712,-0.6783,-0.6892,-0.701,-0.7058,-0.6991,-0.695,-0.664,-0.5924,-0.531,-0.4909,-0.383,-0.2774,-0.2157,-0.1515,-0.0937,0.0,0.0,0.0,0.0,0.0,0.0,0.0,0.0,0.0,0.0,0.0,0.0,0.0,0.0,0.0,0.0,0.0,0.0606,0.1514,0.1929,0.2364,0.3226,0.378,0.4164,0.4252,0.4138,0.4082,0.406,0.4018,0.3987,0.3966,0.396,0.4293,0.5017,0.5049,0.5165,0.5303,0.5404,0.5437,0.5509,0.5736,0.5955,0.5927,0.5791,0.5711,0.5657,0.5628,0.5584,0.5563,0.5563,0.5615,0.5671,0.5528,0.5554,0.5756,0.5921,0.6086,0.6255,0.6354,0.642,0.642,0.642,0.642,0.6745,0.7232,0.7782,0.8393,0.9256,1.0091,-1.1238,-1.1393,-1.1268,-1.1298,-1.1357,-1.1236,-1.1172,-1.1117,-1.1117,-1.1117,-1.1178,-1.1375,-1.1609,-1.1802,-1.2174,-1.2337,-1.2439,-1.2385,-1.1666,-0.9834,-0.8678,-0.7609,-0.7081,-0.6976,-0.6832,-0.66,-0.6627,-0.663,-0.6654,-0.6756,-0.6878,-0.6892,-0.6967,-0.7065,-0.7044,-0.6922,-0.6542,-0.5839,-0.5245,-0.4546,-0.3735,-0.2575,-0.1777,-0.1497,-0.0791,0.0,0.0,0.0,0.0,0.0,0.0,0.0,0.0,0.0,0.0,0.0,0.0,0.0,0.0,0.0,0.0339,0.0937,0.1051,0.1734,0.3192,0.3369,0.3865,0.4638,0.5054,0.5074,0.5062,0.5142,0.5051,0.4967,0.4973,0.4953,0.4902,0.4846,0.4942,0.5076,0.5086,0.5026,0.5134,0.54,0.5476,0.5509,0.5726,0.6014,0.5992,0.5865,0.5767,0.5743,0.5561,0.5525,0.5497,0.5521,0.5586,0.5679,0.5614,0.5627,0.5796,0.5954,0.6119,0.6255,0.6387,0.642,0.642,0.642,0.6416,0.6839,0.7358,0.8069,0.8812,0.9741,1.0446,-1.1158,-1.1329,-1.131,-1.1317,-1.1329,-1.1279,-1.12,-1.1135,-1.1117,-1.1117,-1.1208,-1.1528,-1.1754,-1.1956,-1.2306,-1.2584,-1.2407,-1.1703,-1.0603,-0.9138,-0.81,-0.7368,-0.7058,-0.6885,-0.6854,-0.6746,-0.678,-0.6776,-0.6773,-0.6856,-0.695,-0.6913,-0.7092,-0.6879,-0.659,-0.653,-0.5922,-0.4899,-0.4087,-0.3391,-0.2845,-0.1527,-0.0748,-0.0805,0.0,0.0,0.0,0.0,0.0,0.0,0.0,0.0,0.0,0.0,0.0,0.0,0.0,0.0,0.0,0.0,0.0391,0.1389,0.1416,0.2446,0.3501,0.4122,0.4594,0.5222,0.5508,0.5578,0.5516,0.5459,0.5464,0.548,0.5453,0.5423,0.5355,0.526,0.5159,0.5118,0.505,0.5101,0.5212,0.5365,0.5676,0.5786,0.5941,0.6217,0.6293,0.6134,0.5913,0.5784,0.5542,0.5429,0.5422,0.5454,0.5509,0.5597,0.5671,0.5732,0.5874,0.5999,0.6119,0.6288,0.642,0.642,0.642,0.6416,0.6576,0.7162,0.7749,0.8458,0.9198,1.0034,1.0636,-1.1117,-1.1129,-1.1371,-1.1323,-1.1172,-1.1309,-1.1273,-1.1129,-1.1117,-1.1117,-1.122,-1.1645,-1.1856,-1.2035,-1.2457,-1.2644,-1.2052,-1.0832,-0.9595,-0.8603,-0.7636,-0.7193,-0.7051,-0.7031,-0.696,-0.68,-0.6856,-0.6846,-0.6888,-0.695,-0.7021,-0.6984,-0.6956,-0.6603,-0.6009,-0.5676,-0.5122,-0.3969,-0.3048,-0.2309,-0.2016,-0.0788,-0.025,0.0,0.0,0.0,0.0,0.0,0.0,0.0,0.0,0.0,0.0,0.0,0.0,0.0,0.0,0.0,0.0,0.0,0.0755,0.166,0.192,0.2674,0.3962,0.4552,0.4894,0.5275,0.5586,0.564,0.5548,0.5551,0.5548,0.5534,0.5534,0.5518,0.5451,0.533,0.5203,0.5086,0.5045,0.506,0.5171,0.5362,0.5712,0.6064,0.6215,0.6315,0.6384,0.6328,0.606,0.5803,0.5609,0.5425,0.5417,0.5496,0.5558,0.557,0.5648,0.5796,0.5903,0.6028,0.6185,0.6321,0.642,0.642,0.642,0.642,0.6745,0.7423,0.8004,0.8587,0.939,1.0295,1.0769,-1.1117,-1.1117,-1.116,-1.1148,-1.1123,-1.1166,-1.1166,-1.1123,-1.1117,-1.1117,-1.119,-1.1627,-1.1862,-1.2006,-1.2463,-1.2254,-1.1391,-1.0226,-0.9274,-0.8368,-0.7533,-0.7139,-0.7095,-0.7095,-0.7051,-0.7048,-0.7045,-0.7014,-0.7007,-0.7068,-0.7085,-0.6966,-0.6472,-0.5955,-0.5586,-0.5027,-0.4087,-0.3069,-0.2435,-0.1863,-0.1053,-0.0535,-0.0148,0.0,0.0,0.0,0.0,0.0,0.0,0.0,0.0,0.0,0.0,0.0,0.0,0.0,0.0,0.0404,0.0898,0.1166,0.2104,0.3299,0.3645,0.4053,0.4928,0.5308,0.537,0.5441,0.5615,0.5677,0.5664,0.5642,0.5653,0.5656,0.5634,0.5572,0.5464,0.5371,0.5322,0.5156,0.5083,0.5018,0.5171,0.5323,0.5634,0.6022,0.6328,0.6311,0.6263,0.6193,0.6039,0.5839,0.561,0.5507,0.5411,0.5516,0.5625,0.5541,0.5655,0.5847,0.5993,0.6113,0.6214,0.6354,0.642,0.642,0.642,0.6453,0.6937,0.7614,0.8166,0.8748,0.9614,1.0453,1.0769,-1.1117,-1.1117,-1.1117,-1.1117,-1.1117,-1.1117,-1.1117,-1.1117,-1.1117,-1.1117,-1.1232,-1.1489,-1.1676,-1.182,-1.2264,-1.1787,-1.06,-0.9623,-0.8667,-0.7797,-0.7316,-0.7095,-0.7095,-0.7095,-0.7095,-0.7092,-0.7095,-0.7095,-0.7095,-0.7092,-0.7091,-0.7011,-0.6345,-0.5688,-0.5083,-0.4227,-0.3164,-0.2246,-0.1761,-0.1327,-0.0612,0.0,0.0,0.0,0.0,0.0,0.0,0.0,0.0,0.0,0.0,0.0,0.0,0.0,0.0,0.0,0.0449,0.0898,0.148,0.1838,0.2867,0.3985,0.4342,0.4727,0.5362,0.5645,0.5656,0.5634,0.5632,0.5688,0.5686,0.5688,0.5688,0.5688,0.5688,0.5646,0.5521,0.5429,0.5358,0.5219,0.5102,0.5034,0.5093,0.5287,0.5598,0.5944,0.6367,0.6356,0.6194,0.6193,0.6129,0.5758,0.5563,0.5454,0.5412,0.5557,0.566,0.5627,0.5751,0.5942,0.6071,0.6222,0.6304,0.6387,0.642,0.6552,0.6581,0.6712,0.726,0.7874,0.8554,0.9262,0.9939,1.0516,1.0832,-1.1117,-1.1117,-1.1117,-1.1117,-1.1117,-1.1117,-1.1117,-1.1117,-1.1117,-1.1117,-1.1154,-1.1357,-1.1507,-1.1594,-1.1642,-1.1217,-0.987,-0.8973,-0.8101,-0.736,-0.7143,-0.7095,-0.7095,-0.7095,-0.7095,-0.7095,-0.7095,-0.7095,-0.701,-0.683,-0.6869,-0.6527,-0.5963,-0.5065,-0.4207,-0.3306,-0.2318,-0.1716,-0.1137,-0.0892,-0.0653,0.0,0.0,0.0,0.0,0.0,0.0,0.0,0.0,0.0,0.0,0.0,0.0,0.0,0.0,0.0359,0.1032,0.148,0.2196,0.2688,0.3626,0.4656,0.4612,0.5057,0.5416,0.5677,0.5686,0.5688,0.5688,0.5688,0.5688,0.5688,0.5688,0.5688,0.5683,0.5642,0.5543,0.5456,0.5354,0.526,0.5121,0.5092,0.5115,0.5207,0.5518,0.5828,0.6247,0.6339,0.6229,0.6386,0.6237,0.5731,0.5461,0.5393,0.5443,0.5624,0.5664,0.567,0.5946,0.6215,0.6325,0.6396,0.6514,0.6692,0.6778,0.6905,0.6937,0.7134,0.7712,0.8355,0.9064,0.9678,1.0231,1.0548,1.08,-1.1117,-1.1117,-1.1117,-1.1117,-1.1117,-1.1123,-1.1117,-1.1117,-1.1117,-1.1117,-1.1129,-1.1345,-1.1471,-1.1398,-1.1094,-1.062,-0.9746,-0.8794,-0.7885,-0.7183,-0.7095,-0.7095,-0.7095,-0.7095,-0.7095,-0.7095,-0.7095,-0.7095,-0.683,-0.6251,-0.6023,-0.5831,-0.4563,-0.3342,-0.3418,-0.2518,-0.1733,-0.1544,-0.1394,-0.1113,-0.0694,0.0,0.0,0.0,0.0,0.0,0.0,0.0,0.0,0.0,0.0,0.0,0.0,0.0,0.0,0.0942,0.1524,0.2151,0.3449,0.3985,0.4433,0.5196,0.5419,0.5555,0.5644,0.5688,0.5688,0.5688,0.5688,0.5688,0.5688,0.5688,0.5688,0.5688,0.5688,0.5632,0.5551,0.5548,0.5437,0.5363,0.5284,0.5169,0.5103,0.5268,0.5437,0.5786,0.6076,0.6173,0.6234,0.6316,0.6283,0.5767,0.5513,0.5443,0.5479,0.5673,0.5777,0.5767,0.623,0.6576,0.6714,0.6869,0.7041,0.7189,0.7279,0.7522,0.778,0.807,0.8317,0.8812,0.9454,0.9977,1.0428,1.0649,1.0807,-1.1218,-1.1123,-1.1248,-1.1218,-1.1141,-1.1236,-1.1218,-1.1135,-1.1117,-1.1117,-1.1092,-1.1232,-1.1135,-1.0925,-1.0372,-0.9729,-0.9026,-0.8189,-0.7533,-0.7183,-0.7095,-0.7095,-0.7095,-0.7095,-0.7095,-0.7095,-0.7007,-0.6653,-0.6343,-0.6017,-0.5783,-0.5576,-0.4052,-0.3086,-0.287,-0.2051,-0.1649,-0.1436,-0.1191,-0.0864,-0.05,0.0,0.0,0.0,0.0,0.0,0.0,0.0,0.0,0.0,0.0,0.0,0.0,0.0,0.1211,0.2195,0.2822,0.3449,0.4166,0.4748,0.524,0.551,0.5688,0.5688,0.5688,0.5688,0.5688,0.5688,0.5688,0.5688,0.5688,0.5688,0.5688,0.5688,0.5688,0.5667,0.5618,0.5613,0.5605,0.5528,0.5452,0.5379,0.53,0.5339,0.5464,0.5673,0.5967,0.6173,0.6091,0.5979,0.5929,0.5753,0.5629,0.5553,0.5595,0.5712,0.5902,0.6049,0.6755,0.707,0.7229,0.7398,0.7702,0.7941,0.8091,0.8341,0.8679,0.8842,0.8952,0.939,0.9843,1.0231,1.0561,1.0681,1.087,-1.1405,-1.1329,-1.1401,-1.1303,-1.12,-1.1405,-1.1381,-1.1238,-1.1226,-1.1184,-1.1148,-1.1176,-1.0983,-1.0418,-0.9854,-0.926,-0.8496,-0.7533,-0.7183,-0.7095,-0.7095,-0.7095,-0.7095,-0.7095,-0.7095,-0.7095,-0.6697,-0.6367,-0.5844,-0.5223,-0.4906,-0.5286,-0.3325,-0.2632,-0.2469,-0.198,-0.148,-0.1328,-0.095,-0.0629,-0.0404,-0.0135,0.0,0.0,0.0,0.0,0.0,0.0,0.0,0.0,0.0,0.0,0.0494,0.0987,0.1973,0.2956,0.3762,0.4255,0.4748,0.524,0.5644,0.5688,0.5688,0.5688,0.5688,0.5688,0.5688,0.5688,0.5688,0.5688,0.5688,0.5688,0.5688,0.5688,0.5688,0.5688,0.5686,0.5664,0.5659,0.5588,0.5574,0.5647,0.556,0.5493,0.5535,0.5649,0.5848,0.6123,0.6069,0.5927,0.5899,0.5875,0.5771,0.5792,0.5948,0.5983,0.6096,0.6527,0.7228,0.7766,0.8034,0.8329,0.8638,0.882,0.897,0.9152,0.9425,0.9492,0.9588,0.9939,1.0231,1.0396,1.0618,1.0744,1.0933,-1.1627,-1.1784,-1.1315,-1.131,-1.1465,-1.1477,-1.1489,-1.1429,-1.1453,-1.1321,-1.1202,-1.1268,-1.097,-1.0379,-0.967,-0.903,-0.8368,-0.7489,-0.7183,-0.7095,-0.7095,-0.7095,-0.7095,-0.7051,-0.6962,-0.6827,-0.6231,-0.5796,-0.536,-0.4026,-0.3497,-0.2955,-0.2306,-0.1852,-0.1674,-0.1622,-0.1326,-0.1178,-0.0808,-0.0583,-0.0359,0.0,0.0,0.0,0.0,0.0,0.0,0.0,0.0,0.0,0.0,0.0,0.0942,0.1435,0.2419,0.3628,0.43,0.4792,0.5329,0.551,0.5644,0.5688,0.5688,0.5688,0.5688,0.5688,0.5688,0.5688,0.5688,0.5688,0.5688,0.5688,0.5688,0.5688,0.5688,0.5688,0.5688,0.5688,0.5676,0.5586,0.5698,0.5829,0.5898,0.5784,0.5689,0.5756,0.5718,0.5954,0.615,0.6068,0.6088,0.6063,0.5986,0.606,0.6331,0.656,0.6942,0.7453,0.8134,0.8646,0.9068,0.9351,0.9615,0.978,0.9954,1.0071,1.0077,1.0077,1.0161,1.041,1.0586,1.0618,1.0681,1.0807,1.0996,-1.1838,-1.1679,-1.1579,-1.1673,-1.173,-1.1736,-1.1639,-1.1537,-1.1657,-1.1585,-1.13,-1.0998,-1.0439,-0.9712,-0.9117,-0.8423,-0.7705,-0.7356,-0.7139,-0.7095,-0.7095,-0.7095,-0.6962,-0.6564,-0.621,-0.601,-0.5305,-0.4433,-0.3826,-0.3109,-0.2545,-0.203,-0.1637,-0.1559,-0.147,-0.1372,-0.1221,-0.1036,-0.0718,-0.0448,-0.0359,0.0,0.0,0.0,0.0,0.0,0.0,0.0,0.0,0.0,0.0,0.0,0.1524,0.2016,0.3001,0.4255,0.4746,0.5285,0.5552,0.5688,0.5688,0.5688,0.5688,0.5688,0.5688,0.5688,0.5688,0.5688,0.5688,0.5688,0.5688,0.5688,0.5688,0.5688,0.5777,0.5822,0.5822,0.5911,0.5722,0.5687,0.5929,0.6173,0.6178,0.6124,0.5987,0.5867,0.5819,0.5828,0.6135,0.6289,0.6331,0.6486,0.6444,0.6672,0.6984,0.7407,0.7863,0.843,0.9045,0.9472,0.9912,1.0351,1.0585,1.0779,1.0877,1.0927,1.0874,1.0651,1.0601,1.0676,1.0672,1.0649,1.0744,1.0909,1.124,-1.2101,-1.1736,-1.1793,-1.1814,-1.1926,-1.1964,-1.189,-1.167,-1.1796,-1.1775,-1.1435,-1.0777,-1.004,-0.928,-0.8729,-0.8009,-0.7401,-0.7139,-0.7139,-0.7095,-0.7095,-0.6962,-0.652,-0.611,-0.565,-0.5173,-0.4293,-0.3418,-0.3101,-0.2576,-0.2074,-0.1653,-0.1391,-0.1451,-0.1408,-0.1222,-0.1031,-0.0807,-0.0628,-0.0314,-0.0269,0.0,0.0,0.0,0.0,0.0,0.0,0.0,0.0,0.0,0.0,0.0,0.2062,0.2957,0.3762,0.4567,0.524,0.5688,0.5688,0.5688,0.5688,0.5688,0.5688,0.5688,0.5688,0.5688,0.5688,0.5688,0.5688,0.5688,0.5688,0.5688,0.5952,0.6038,0.6435,0.6523,0.6393,0.6349,0.6041,0.5797,0.6269,0.6853,0.691,0.687,0.6471,0.6215,0.5882,0.6096,0.6595,0.6714,0.6641,0.6834,0.6984,0.7326,0.771,0.8356,0.8965,0.9216,0.9787,1.0183,1.0593,1.1026,1.1277,1.1265,1.1394,1.168,1.156,1.1258,1.1002,1.0782,1.0752,1.0746,1.1052,1.1272,1.1701,-1.2294,-1.2234,-1.173,-1.1682,-1.1932,-1.2186,-1.2119,-1.1838,-1.1832,-1.169,-1.1339,-1.0701,-1.0003,-0.9316,-0.8585,-0.7834,-0.7272,-0.7095,-0.7095,-0.7095,-0.7095,-0.6605,-0.601,-0.5551,-0.4971,-0.4171,-0.3313,-0.2749,-0.2648,-0.199,-0.1533,-0.1469,-0.1387,-0.1392,-0.1393,-0.1212,-0.0852,-0.0493,-0.0448,-0.0224,0.0,0.0,0.0,0.0,0.0,0.0,0.0,0.0,0.0,0.0943,0.1077,0.1973,0.3583,0.3896,0.4523,0.5419,0.5599,0.5688,0.5688,0.5688,0.5688,0.5688,0.5688,0.5688,0.5688,0.5688,0.5688,0.5688,0.5688,0.5688,0.5688,0.5777,0.6127,0.639,0.6741,0.7007,0.683,0.6918,0.6609,0.6567,0.7221,0.7764,0.7786,0.7662,0.7141,0.6673,0.6136,0.6325,0.7053,0.7249,0.7211,0.7407,0.7676,0.8093,0.8585,0.9458,1.0024,1.025,1.0467,1.0832,1.1089,1.1403,1.1575,1.1657,1.182,1.1975,1.1944,1.183,1.1477,1.1095,1.0923,1.0953,1.1307,1.1694,1.212,-1.221,-1.2059,-1.2006,-1.1958,-1.1886,-1.1778,-1.183,-1.1878,-1.1678,-1.1337,-1.0776,-1.0121,-0.9331,-0.8572,-0.7954,-0.7427,-0.7177,-0.7095,-0.7095,-0.7092,-0.7031,-0.6496,-0.5801,-0.4887,-0.4196,-0.3227,-0.2355,-0.1896,-0.1786,-0.1446,-0.1421,-0.1401,-0.1382,-0.139,-0.1301,-0.1076,-0.0718,-0.0583,-0.0359,0.0,0.0,0.0,0.0,0.0,0.0,0.0,0.0,0.0,0.0,0.1256,0.1436,0.2464,0.3941,0.4344,0.4792,0.551,0.5688,0.5688,0.5688,0.5688,0.5688,0.5688,0.5688,0.5688,0.5688,0.5688,0.5688,0.5688,0.5688,0.5688,0.5688,0.5911,0.6171,0.6305,0.6612,0.6962,0.7051,0.7397,0.7441,0.757,0.8006,0.8762,0.9046,0.8879,0.8397,0.7936,0.7496,0.7373,0.7889,0.8008,0.8046,0.8203,0.8437,0.8856,0.9387,1.0175,1.0619,1.0769,1.1031,1.1366,1.1619,1.1692,1.1777,1.1833,1.2051,1.2265,1.2138,1.1977,1.169,1.1397,1.1474,1.151,1.1777,1.218,1.2573,-1.2151,-1.1802,-1.2168,-1.2161,-1.1938,-1.179,-1.1784,-1.1678,-1.1212,-1.0751,-1.0326,-0.9425,-0.8702,-0.8044,-0.739,-0.6997,-0.7007,-0.696,-0.7004,-0.6957,-0.665,-0.5886,-0.5022,-0.4189,-0.3214,-0.2327,-0.1768,-0.1357,-0.1414,-0.1332,-0.1356,-0.1391,-0.1419,-0.1343,-0.1211,-0.0942,-0.0583,-0.0404,0.0,0.0,0.0,0.0,0.0,0.0,0.0,0.0,0.0,0.0,0.0404,0.1166,0.1928,0.2643,0.3851,0.4701,0.5062,0.5555,0.5688,0.5688,0.5688,0.5688,0.5688,0.5688,0.5688,0.5688,0.5688,0.5688,0.5688,0.5688,0.5733,0.6041,0.626,0.6435,0.683,0.6959,0.7617,0.8057,0.7925,0.8273,0.844,0.8571,0.9083,0.9771,1.0351,1.0063,0.9732,0.9335,0.8917,0.8856,0.8723,0.8727,0.8917,0.9188,0.9268,0.9571,1.0062,1.0689,1.1068,1.1254,1.1477,1.1669,1.17,1.1681,1.1848,1.2003,1.2187,1.2285,1.2258,1.2098,1.1989,1.2158,1.2438,1.2439,1.2395,1.272,1.3166,-1.2246,-1.1633,-1.2101,-1.2161,-1.194,-1.2079,-1.198,-1.1418,-1.045,-1.0174,-1.0291,-0.8569,-0.7951,-0.7976,-0.715,-0.6803,-0.6842,-0.679,-0.6834,-0.6688,-0.631,-0.5273,-0.4281,-0.3432,-0.2605,-0.1758,-0.1257,-0.1253,-0.1302,-0.1319,-0.1347,-0.1385,-0.142,-0.1297,-0.1031,-0.0807,-0.0494,-0.0269,0.0,0.0,0.0,0.0,0.0,0.0,0.0,0.0,0.0,0.0,0.0,0.1346,0.2286,0.3269,0.4253,0.5196,0.5555,0.5688,0.5688,0.5688,0.5688,0.5688,0.5688,0.5688,0.5688,0.5688,0.5688,0.5733,0.5733,0.5866,0.5997,0.6653,0.7136,0.7617,0.8097,0.875,0.9536,0.954,0.9192,0.9279,0.9444,0.9744,1.0356,1.0989,1.1606,1.1532,1.0699,1.0586,1.0174,0.9834,0.9674,0.9372,0.9674,1.0319,1.0363,1.0325,1.0732,1.1143,1.1329,1.144,1.1558,1.1706,1.1706,1.1744,1.1855,1.2009,1.2194,1.2291,1.2271,1.2345,1.2464,1.2741,1.3187,1.3157,1.3036,1.3469,1.39,-1.2145,-1.1814,-1.2133,-1.2161,-1.1916,-1.197,-1.1796,-1.1397,-1.0622,-1.0065,-0.929,-0.8522,-0.7725,-0.7132,-0.6847,-0.677,-0.6732,-0.6732,-0.6732,-0.6511,-0.614,-0.5133,-0.4194,-0.3309,-0.2382,-0.1519,-0.1034,-0.1155,-0.1284,-0.1304,-0.1348,-0.1389,-0.1419,-0.1208,-0.0942,-0.0718,-0.0494,-0.0269,-0.009,0.0,0.0,0.0,0.0,0.0,0.0,0.0,0.0,0.0,0.0,0.1391,0.2376,0.3315,0.4253,0.5151,0.5688,0.5688,0.5688,0.5688,0.5688,0.5688,0.5688,0.5688,0.5688,0.5688,0.5688,0.5733,0.5819,0.6127,0.6523,0.7224,0.8049,0.8703,0.9139,0.9797,1.0409,1.0409,1.0154,1.0279,1.0443,1.0794,1.1402,1.1735,1.2396,1.2087,1.1352,1.1514,1.1364,1.0889,1.055,1.0207,1.0169,1.085,1.0999,1.0775,1.0962,1.1329,1.1477,1.1595,1.1669,1.1744,1.1781,1.1818,1.1892,1.1966,1.2114,1.2231,1.2305,1.2526,1.2879,1.3475,1.3902,1.3818,1.381,1.4187,1.4464,-1.1938,-1.1691,-1.2125,-1.2235,-1.2222,-1.2125,-1.1773,-1.1169,-1.0338,-0.9384,-0.8392,-0.7753,-0.7167,-0.6726,-0.659,-0.6542,-0.66,-0.6532,-0.6532,-0.6471,-0.5906,-0.4686,-0.3762,-0.2838,-0.1829,-0.1103,-0.0943,-0.1064,-0.1234,-0.1314,-0.1317,-0.1373,-0.1368,-0.1118,-0.0852,-0.0673,-0.0493,-0.0269,0.0,0.0,0.0,0.0,0.0,0.0,0.0,0.0,0.0,0.0,0.0,0.1391,0.2376,0.3315,0.4255,0.5151,0.5688,0.5688,0.5688,0.5688,0.5688,0.5688,0.5688,0.5688,0.5733,0.5777,0.5777,0.5822,0.6171,0.6612,0.718,0.7878,0.8834,0.9705,1.0139,1.0577,1.0842,1.1063,1.1192,1.1322,1.1537,1.18,1.21,1.2314,1.2385,1.2109,1.1884,1.1809,1.1585,1.1194,1.0999,1.085,1.0738,1.0999,1.1111,1.1074,1.1298,1.1484,1.1595,1.1669,1.1669,1.1744,1.1818,1.1818,1.1781,1.1855,1.204,1.2298,1.2666,1.3062,1.3477,1.4078,1.4619,1.4708,1.4698,1.4856,1.5056,-1.1555,-1.119,-1.1892,-1.2343,-1.2584,-1.2367,-1.1693,-1.0683,-0.9592,-0.8572,-0.7715,-0.6795,-0.6529,-0.6484,-0.6412,-0.6419,-0.645,-0.6412,-0.6383,-0.6371,-0.4975,-0.3857,-0.3028,-0.1724,-0.126,-0.0983,-0.0904,-0.0986,-0.1239,-0.1317,-0.1309,-0.1312,-0.1363,-0.1165,-0.0762,-0.0718,0.0,0.0,0.0,0.0,0.0,0.0,0.0,0.0,0.0,0.0,0.0,0.0,0.0494,0.1436,0.251,0.3539,0.4389,0.506,0.5463,0.5599,0.5552,0.5644,0.5688,0.5688,0.5688,0.5688,0.5733,0.5822,0.5866,0.6216,0.67,0.7441,0.8053,0.9056,1.0053,1.0788,1.1268,1.1531,1.1709,1.1752,1.1752,1.1923,1.21,1.2314,1.24,1.2607,1.2644,1.2388,1.2132,1.2037,1.1741,1.1396,1.1298,1.126,1.1223,1.1192,1.1186,1.126,1.1409,1.1558,1.1669,1.1706,1.1706,1.1706,1.1744,1.1706,1.1595,1.207,1.2579,1.2872,1.3237,1.3738,1.4286,1.4736,1.5203,1.5574,1.5675,1.5731,1.5611,-1.1387,-1.1148,-1.1507,-1.1826,-1.2079,-1.2258,-1.1105,-0.9296,-0.9193,-0.8537,-0.7668,-0.6973,-0.6511,-0.6361,-0.6327,-0.6334,-0.633,-0.6295,-0.6327,-0.5918,-0.4696,-0.3517,-0.3046,-0.1722,-0.102,-0.0628,-0.063,-0.0954,-0.1216,-0.1331,-0.1319,-0.1381,-0.1375,-0.1166,-0.0718,-0.0718,0.0,0.0,0.0,0.0,0.0,0.0,0.0,0.0,0.0,0.0,0.0,0.0719,0.1032,0.1615,0.3179,0.4164,0.4832,0.5057,0.5146,0.5191,0.5191,0.5371,0.5552,0.5644,0.5688,0.5688,0.5733,0.5866,0.6171,0.6741,0.7441,0.8269,0.9139,1.0226,1.1144,1.1746,1.2223,1.2351,1.2485,1.24,1.2314,1.2443,1.2571,1.2613,1.2699,1.2735,1.2795,1.2692,1.241,1.2147,1.1834,1.1571,1.1484,1.144,1.1446,1.1409,1.1335,1.1409,1.1558,1.1632,1.1744,1.1706,1.1669,1.1669,1.1706,1.1892,1.2114,1.2762,1.3273,1.3491,1.3954,1.4851,1.5321,1.5578,1.5886,1.6261,1.6538,1.6616,1.6384,-1.0869,-1.0822,-1.1146,-1.1531,-1.1828,-1.1706,-1.0573,-0.9153,-0.8733,-0.8089,-0.7219,-0.6722,-0.645,-0.6306,-0.63,-0.63,-0.6257,-0.6141,-0.5792,-0.5356,-0.4494,-0.3283,-0.2386,-0.1567,-0.098,-0.0511,-0.0797,-0.1092,-0.1281,-0.1351,-0.138,-0.1395,-0.1375,-0.1166,-0.0762,-0.0673,-0.0494,0.0,0.0,0.0,0.0,0.0,0.0,0.0,0.0,0.0,0.0,0.0898,0.1569,0.233,0.376,0.4474,0.4832,0.4788,0.4701,0.4743,0.4877,0.5099,0.5371,0.5552,0.5688,0.5688,0.5688,0.5822,0.6476,0.7132,0.8309,0.9139,0.9918,1.0923,1.1709,1.24,1.2485,1.2571,1.2613,1.2571,1.2528,1.2571,1.2656,1.2656,1.2717,1.282,1.2816,1.2672,1.2439,1.2279,1.1979,1.1832,1.1738,1.1707,1.1701,1.1632,1.1558,1.1632,1.1781,1.1781,1.1744,1.1706,1.1632,1.1744,1.1855,1.2305,1.2746,1.3171,1.36,1.3998,1.4609,1.5436,1.6009,1.6228,1.6577,1.6985,1.7201,1.7339,1.7178,-1.031,-1.0406,-1.0834,-1.1341,-1.1659,-1.0936,-1.0053,-0.915,-0.8361,-0.7475,-0.6629,-0.64,-0.6306,-0.63,-0.63,-0.63,-0.6257,-0.6138,-0.5586,-0.4686,-0.3558,-0.2737,-0.1801,-0.0824,-0.0591,-0.0678,-0.0972,-0.1158,-0.1311,-0.1374,-0.1388,-0.1399,-0.1328,-0.1166,-0.0852,-0.0673,0.0,0.0,0.0,0.0,0.0,0.0,0.0,0.0,0.0,0.0,0.0,0.1077,0.2017,0.3045,0.4117,0.4654,0.4743,0.4565,0.4342,0.4342,0.4476,0.4743,0.5055,0.5371,0.5552,0.5644,0.5688,0.6083,0.6738,0.7782,0.896,1.0005,1.0788,1.1477,1.2266,1.2662,1.2662,1.2705,1.2705,1.2705,1.2705,1.2699,1.2693,1.2735,1.2814,1.2915,1.2839,1.269,1.2587,1.2408,1.2253,1.211,1.2026,1.2058,1.2071,1.1919,1.1781,1.1855,1.1966,1.1892,1.1818,1.1781,1.1744,1.1855,1.2077,1.2666,1.3112,1.3331,1.376,1.451,1.5081,1.5798,1.6298,1.6707,1.6934,1.7141,1.7314,1.7476,1.774,-1.0232,-1.0635,-1.0503,-1.0875,-1.131,-1.0489,-0.9586,-0.874,-0.794,-0.7134,-0.6507,-0.6327,-0.63,-0.63,-0.63,-0.63,-0.6257,-0.6138,-0.5509,-0.4647,-0.3478,-0.2503,-0.157,-0.0671,-0.0478,-0.0688,-0.1035,-0.1142,-0.129,-0.1344,-0.1402,-0.1376,-0.1379,-0.1165,-0.0806,-0.0627,0.0,0.0,0.0,0.0,0.0,0.0,0.0,0.0,0.0,0.0,0.0,0.0,0.2465,0.336,0.4342,0.479,0.4612,0.4255,0.4076,0.3853,0.3987,0.4342,0.4656,0.5057,0.528,0.5599,0.5774,0.6302,0.7173,0.8301,0.9522,1.0832,1.1563,1.2072,1.2644,1.2656,1.2705,1.2705,1.2705,1.2705,1.2747,1.2723,1.2741,1.2869,1.3026,1.3031,1.3037,1.2985,1.2987,1.2818,1.2731,1.2579,1.23,1.2344,1.2419,1.2239,1.209,1.1972,1.1966,1.1892,1.1811,1.1818,1.2003,1.2335,1.2739,1.3251,1.3622,1.3804,1.4553,1.5401,1.5939,1.6088,1.6419,1.6757,1.701,1.7245,1.7364,1.7716,1.807]}]]